Darstellungsparameter: Aktuell verwendete Einstellungen:
Skalierung der Graphiken ... ?
xyx+y,   Skalierungsfaktor:      Skalierung: Modus: x, Faktor: 1
Darstellungszeitraum ... ?
Vom - - bis: - -   Zeitraum: 25.04.2019 - 24.04.2020
Min/Max/Avg-Anzeige ... ?
Zeige MMA aktuell
Zeige MMA Monat
Zeige MMA alles
Zeige --A aktuell
Zeige --A Monat
Zeige --A alles
Keine MMA-Anzeige
MMA:
Keine MMA-Graphiken
MMA-Basis: 25.04.2019 - 24.04.2020
Quicknavigation für Darstellung... ?
Tage:      1T, 2T, 3T, 5T -1T -2T -3T -5T +1T +2T +3T +5T
Wochen: 1W, 2W, 3W -1W -2W -3W +1W +2W +3W
Monate: 1M, 3M, 6M -1M -3M -6M +1M +3M +6M
Jahre:    1J, 3J, 5J, 10J -1J -3J -5J -10J +1J +3J +5J +10J
Nutze für die Darstellung ... ?
Originaldaten oder Mittelwerte auf ...
Stundenbasis Tagesbasis Wochenbasis
Monatsbasis Jahresbasis      Datenbasis: Original-Daten
Darstellen als:
Statistik (Auto) Statistik J:M      Darstellung:
Zur Graphik,    zurück zur Übersicht aller Sensoren.
 
Tabellarische Datenbersicht: ?
 
Sensor: Nr:Datum:Temp:Feuchte:
Aussen-T/F 1 25-04-2019 00:10:17 8.7 C 54 %
2 25-04-2019 00:22:17 8.5 C 54 %
3 25-04-2019 00:34:17 8.5 C 54 %
4 25-04-2019 00:46:17 8 C 54 %
5 25-04-2019 00:58:17 7.8 C 53 %
6 25-04-2019 01:10:17 7.8 C 56 %
7 25-04-2019 01:22:18 7.8 C 56 %
8 25-04-2019 01:34:17 7.3 C 56 %
9 25-04-2019 01:46:17 7.2 C 58 %
10 25-04-2019 01:58:17 6.9 C 57 %
11 25-04-2019 02:10:17 6.9 C 58 %
12 25-04-2019 02:22:18 6.9 C 61 %
13 25-04-2019 02:34:17 6.7 C 61 %
14 25-04-2019 02:46:17 6.8 C 62 %
15 25-04-2019 02:58:17 6.6 C 61 %
16 25-04-2019 03:10:18 6.5 C 62 %
17 25-04-2019 03:22:17 6.5 C 63 %
18 25-04-2019 03:34:17 6.5 C 64 %
19 25-04-2019 03:46:17 6.3 C 64 %
20 25-04-2019 03:58:17 6.3 C 65 %
21 25-04-2019 04:10:17 6.4 C 66 %
22 25-04-2019 04:22:17 6.4 C 66 %
23 25-04-2019 04:34:17 6.4 C 67 %
24 25-04-2019 04:46:17 6.5 C 68 %
25 25-04-2019 04:58:17 6.5 C 68 %
Sensor: Nr:Datum:Temp:Feuchte:
Aussen-T/F 26 25-04-2019 05:10:18 6.4 C 67 %
27 25-04-2019 05:22:17 6.2 C 66 %
28 25-04-2019 05:34:17 6.4 C 68 %
29 25-04-2019 05:46:17 6.3 C 68 %
30 25-04-2019 05:58:17 6.2 C 67 %
31 25-04-2019 06:10:17 6.3 C 67 %
32 25-04-2019 06:22:17 6.2 C 67 %
33 25-04-2019 06:34:17 6.3 C 68 %
34 25-04-2019 06:46:18 6.5 C 69 %
35 25-04-2019 06:58:18 6.8 C 70 %
36 25-04-2019 07:10:17 6.8 C 70 %
37 25-04-2019 07:22:17 7.1 C 68 %
38 25-04-2019 07:34:18 7.7 C 70 %
39 25-04-2019 07:46:17 8.1 C 70 %
40 25-04-2019 07:58:17 8.3 C 68 %
41 25-04-2019 08:10:17 8.7 C 68 %
42 25-04-2019 08:22:17 8.7 C 64 %
43 25-04-2019 08:34:17 9.1 C 60 %
44 25-04-2019 08:46:17 9.7 C 53 %
45 25-04-2019 08:58:17 10.1 C 47 %
46 25-04-2019 09:10:17 10 C 45 %
47 25-04-2019 09:22:17 10.1 C 45 %
48 25-04-2019 09:34:17 11.6 C 50 %
49 25-04-2019 09:46:17 11.6 C 48 %
50 25-04-2019 09:58:17 11.3 C 44 %
Sensor: Nr:Datum:Temp:Feuchte:
Aussen-T/F 51 25-04-2019 10:10:18 11.1 C 40 %
52 25-04-2019 10:22:17 11.5 C 40 %
53 25-04-2019 10:34:17 11.6 C 40 %
54 25-04-2019 10:46:17 11.7 C 36 %
55 25-04-2019 10:58:17 13 C 33 %
56 25-04-2019 11:10:17 14.8 C 26 %
57 25-04-2019 11:22:17 15.2 C 20 %
58 25-04-2019 11:34:17 16.3 C 20 %
59 25-04-2019 11:46:17 17.7 C 20 %
60 25-04-2019 11:58:17 17.6 C 20 %
61 25-04-2019 12:10:17 17.6 C 20 %
62 25-04-2019 12:22:17 18.2 C 20 %
63 25-04-2019 12:34:17 18.2 C 20 %
64 25-04-2019 12:46:17 18 C 20 %
65 25-04-2019 12:58:17 17.7 C 20 %
66 25-04-2019 13:10:17 18.3 C 20 %
67 25-04-2019 13:22:17 19.3 C 20 %
68 25-04-2019 13:34:18 19.5 C 20 %
69 25-04-2019 13:46:17 20 C 20 %
70 25-04-2019 13:58:17 20.1 C 20 %
71 25-04-2019 14:10:17 20.1 C 20 %
72 25-04-2019 14:22:17 20.1 C 20 %
73 25-04-2019 14:34:17 21.5 C 20 %
74 25-04-2019 14:46:17 21.6 C 20 %
75 25-04-2019 14:58:17 21.7 C 20 %
Sensor: Nr:Datum:Temp:Feuchte:
Aussen-T/F 76 25-04-2019 15:10:17 21.5 C 20 %
77 25-04-2019 15:22:17 22.1 C 20 %
78 25-04-2019 15:34:18 22.4 C 20 %
79 25-04-2019 15:46:17 23.1 C 20 %
80 25-04-2019 15:58:17 22.8 C 20 %
81 25-04-2019 16:10:17 22.7 C 20 %
82 25-04-2019 16:22:17 22.9 C 20 %
83 25-04-2019 16:34:17 21.9 C 20 %
84 25-04-2019 16:46:17 21.2 C 20 %
85 25-04-2019 16:58:17 20.7 C 20 %
86 25-04-2019 17:10:17 21.7 C 20 %
87 25-04-2019 17:22:17 21.3 C 20 %
88 25-04-2019 17:34:17 21.4 C 20 %
89 25-04-2019 17:46:17 21.6 C 20 %
90 25-04-2019 17:58:17 21.3 C 20 %
91 25-04-2019 18:10:18 21.4 C 20 %
92 25-04-2019 18:22:17 20.7 C 20 %
93 25-04-2019 18:34:17 20.9 C 20 %
94 25-04-2019 18:46:17 19.1 C 20 %
95 25-04-2019 18:58:17 18 C 20 %
96 25-04-2019 19:10:17 17.4 C 20 %
97 25-04-2019 19:22:17 16.9 C 20 %
98 25-04-2019 19:34:18 16.4 C 20 %
99 25-04-2019 19:46:17 16.2 C 20 %
100 25-04-2019 19:58:17 16 C 20 %
Sensor: Nr:Datum:Temp:Feuchte:
Aussen-T/F 101 25-04-2019 20:10:17 15.5 C 20 %
102 25-04-2019 20:22:17 15.2 C 20 %
103 25-04-2019 20:34:18 14.6 C 20 %
104 25-04-2019 20:46:17 14.5 C 20 %
105 25-04-2019 20:58:17 14.2 C 20 %
106 25-04-2019 21:10:17 14 C 20 %
107 25-04-2019 21:22:17 13.9 C 20 %
108 25-04-2019 21:34:17 13.6 C 20 %
109 25-04-2019 21:46:17 13.4 C 20 %
110 25-04-2019 21:58:17 13.3 C 20 %
111 25-04-2019 22:10:18 12.9 C 20 %
112 25-04-2019 22:22:17 12.9 C 20 %
113 25-04-2019 22:34:17 12.9 C 20 %
114 25-04-2019 22:46:17 12.8 C 20 %
115 25-04-2019 22:58:18 12.6 C 20 %
116 25-04-2019 23:10:17 12.3 C 20 %
117 25-04-2019 23:22:17 12.3 C 20 %
118 25-04-2019 23:34:17 12 C 25 %
119 25-04-2019 23:46:18 11.8 C 26 %
120 25-04-2019 23:58:18 11.2 C 27 %
121 26-04-2019 00:10:17 11 C 29 %
122 26-04-2019 00:22:17 11 C 29 %
123 26-04-2019 00:34:17 11 C 29 %
124 26-04-2019 00:46:17 10.8 C 30 %
125 26-04-2019 00:58:17 10.8 C 30 %
Sensor: Nr:Datum:Temp:Feuchte:
Aussen-T/F 126 26-04-2019 01:10:17 10.7 C 31 %
127 26-04-2019 01:22:17 10.7 C 31 %
128 26-04-2019 01:34:18 10.7 C 32 %
129 26-04-2019 01:46:17 10.7 C 32 %
130 26-04-2019 01:58:17 10.7 C 32 %
131 26-04-2019 02:10:17 11.2 C 27 %
132 26-04-2019 02:22:17 11.2 C 27 %
133 26-04-2019 02:34:18 11.2 C 26 %
134 26-04-2019 02:46:17 11.2 C 26 %
135 26-04-2019 02:58:17 11.2 C 26 %
136 26-04-2019 03:10:17 11.2 C 26 %
137 26-04-2019 03:22:17 11 C 26 %
138 26-04-2019 03:34:18 10.9 C 27 %
139 26-04-2019 03:46:17 10.9 C 27 %
140 26-04-2019 03:58:17 10.9 C 27 %
141 26-04-2019 04:10:17 10.9 C 27 %
142 26-04-2019 04:22:17 10.9 C 27 %
143 26-04-2019 04:34:17 10.9 C 27 %
144 26-04-2019 04:46:17 10.5 C 29 %
145 26-04-2019 04:58:17 10.5 C 28 %
146 26-04-2019 05:10:17 10.6 C 28 %
147 26-04-2019 05:22:17 10.6 C 28 %
148 26-04-2019 05:34:17 10.6 C 28 %
149 26-04-2019 05:46:17 9.2 C 45 %
150 26-04-2019 05:58:17 9.1 C 45 %
Sensor: Nr:Datum:Temp:Feuchte:
Aussen-T/F 151 26-04-2019 06:10:17 9.1 C 47 %
152 26-04-2019 06:22:17 9 C 47 %
153 26-04-2019 06:34:18 9 C 48 %
154 26-04-2019 06:46:18 8.9 C 49 %
155 26-04-2019 06:58:18 9 C 50 %
156 26-04-2019 07:10:17 9 C 50 %
157 26-04-2019 07:22:17 8.9 C 50 %
158 26-04-2019 07:34:17 9.1 C 50 %
159 26-04-2019 07:46:17 9 C 49 %
160 26-04-2019 07:58:17 9.1 C 49 %
161 26-04-2019 08:10:17 9.1 C 49 %
162 26-04-2019 08:22:17 9.1 C 48 %
163 26-04-2019 08:34:17 9 C 48 %
164 26-04-2019 08:46:17 9.1 C 49 %
165 26-04-2019 08:58:17 9.3 C 49 %
166 26-04-2019 09:10:18 9.5 C 48 %
167 26-04-2019 09:22:17 9.5 C 46 %
168 26-04-2019 09:34:17 9.6 C 45 %
169 26-04-2019 09:46:40 9.6 C 45 %
170 26-04-2019 09:58:40 9.7 C 45 %
171 26-04-2019 10:10:17 9.7 C 45 %
172 26-04-2019 10:22:17 9.7 C 43 %
173 26-04-2019 10:34:17 9.8 C 42 %
174 26-04-2019 10:46:17 10 C 40 %
175 26-04-2019 10:58:17 10.4 C 40 %
Sensor: Nr:Datum:Temp:Feuchte:
Aussen-T/F 176 26-04-2019 11:10:17 10.6 C 40 %
177 26-04-2019 11:22:17 10.6 C 40 %
178 26-04-2019 11:34:17 11 C 35 %
179 26-04-2019 11:46:17 11 C 35 %
180 26-04-2019 11:58:17 11.3 C 33 %
181 26-04-2019 12:10:17 11.9 C 31 %
182 26-04-2019 12:22:17 12.7 C 28 %
183 26-04-2019 12:34:17 12.8 C 27 %
184 26-04-2019 12:46:17 13.3 C 25 %
185 26-04-2019 12:58:18 13.2 C 25 %
186 26-04-2019 13:10:17 13.6 C 24 %
187 26-04-2019 13:22:17 13.8 C 22 %
188 26-04-2019 13:34:17 13.8 C 20 %
189 26-04-2019 13:46:17 13.5 C 20 %
190 26-04-2019 13:58:17 14 C 20 %
191 26-04-2019 14:10:17 14.1 C 20 %
192 26-04-2019 14:22:17 14.1 C 20 %
193 26-04-2019 14:34:17 14.6 C 20 %
194 26-04-2019 14:46:17 14.2 C 20 %
195 26-04-2019 14:58:17 14 C 20 %
196 26-04-2019 15:10:17 13.7 C 20 %
197 26-04-2019 15:22:17 13.6 C 20 %
198 26-04-2019 15:34:17 13.8 C 20 %
199 26-04-2019 15:46:17 14.4 C 20 %
200 26-04-2019 15:58:17 15.2 C 20 %
Sensor: Nr:Datum:Temp:Feuchte:
Aussen-T/F 201 26-04-2019 16:10:17 15.2 C 20 %
202 26-04-2019 16:22:17 15.7 C 20 %
203 26-04-2019 16:34:17 16.4 C 20 %
204 26-04-2019 16:46:17 16.3 C 20 %
205 26-04-2019 16:58:17 15.6 C 20 %
206 26-04-2019 17:10:17 16.4 C 20 %
207 26-04-2019 17:22:17 16.1 C 20 %
208 26-04-2019 17:34:17 15.4 C 20 %
209 26-04-2019 17:46:17 17.1 C 20 %
210 26-04-2019 17:58:17 17.5 C 20 %
211 26-04-2019 18:10:17 18.6 C 20 %
212 26-04-2019 18:22:17 18.3 C 20 %
213 26-04-2019 18:34:17 16.7 C 20 %
214 26-04-2019 18:46:17 16.2 C 20 %
215 26-04-2019 18:58:17 16.8 C 20 %
216 26-04-2019 19:10:17 16.8 C 20 %
217 26-04-2019 19:22:17 16.1 C 20 %
218 26-04-2019 19:34:18 14.8 C 23 %
219 26-04-2019 19:46:18 14.7 C 25 %
220 26-04-2019 19:58:18 13.5 C 27 %
221 26-04-2019 20:10:17 12.7 C 26 %
222 26-04-2019 20:22:17 12.1 C 27 %
223 26-04-2019 20:34:17 12.1 C 27 %
224 26-04-2019 20:46:17 10.8 C 33 %
225 26-04-2019 20:58:17 10.7 C 33 %
Sensor: Nr:Datum:Temp:Feuchte:
Aussen-T/F 226 26-04-2019 21:10:17 10.5 C 40 %
227 26-04-2019 21:22:17 10.3 C 37 %
228 26-04-2019 21:34:17 10.7 C 35 %
229 26-04-2019 21:46:17 10.7 C 34 %
230 26-04-2019 21:58:17 10.6 C 36 %
231 26-04-2019 22:10:17 10.2 C 37 %
232 26-04-2019 22:22:18 9.7 C 40 %
233 26-04-2019 22:34:17 9.6 C 43 %
234 26-04-2019 22:46:17 9.8 C 44 %
235 26-04-2019 22:58:17 10.1 C 41 %
236 26-04-2019 23:10:17 9.8 C 40 %
237 26-04-2019 23:22:17 9.3 C 41 %
238 26-04-2019 23:34:17 9.2 C 43 %
239 26-04-2019 23:46:17 9.2 C 45 %
240 26-04-2019 23:58:17 8.9 C 45 %
241 27-04-2019 00:10:17 8.5 C 46 %
242 27-04-2019 00:22:17 8.5 C 47 %
243 27-04-2019 00:34:17 8.7 C 48 %
244 27-04-2019 00:46:17 8.7 C 47 %
245 27-04-2019 00:58:17 8.7 C 47 %
246 27-04-2019 01:10:17 9 C 47 %
247 27-04-2019 01:22:17 8.9 C 47 %
248 27-04-2019 01:34:17 8.7 C 46 %
249 27-04-2019 01:46:17 8.5 C 47 %
250 27-04-2019 01:58:17 8.4 C 47 %
Sensor: Nr:Datum:Temp:Feuchte:
Aussen-T/F 251 27-04-2019 02:10:17 8.3 C 48 %
252 27-04-2019 02:22:17 8.1 C 48 %
253 27-04-2019 02:34:18 8.1 C 48 %
254 27-04-2019 02:46:17 7.6 C 49 %
255 27-04-2019 02:58:18 7.5 C 50 %
256 27-04-2019 03:10:18 7.4 C 50 %
257 27-04-2019 03:22:17 7.1 C 50 %
258 27-04-2019 03:34:17 6.9 C 51 %
259 27-04-2019 03:46:17 6.9 C 51 %
260 27-04-2019 03:58:17 6.8 C 51 %
261 27-04-2019 04:10:17 6.7 C 51 %
262 27-04-2019 04:22:17 6.3 C 51 %
263 27-04-2019 04:34:17 6.1 C 51 %
264 27-04-2019 04:46:17 6.3 C 52 %
265 27-04-2019 04:58:17 6.4 C 52 %
266 27-04-2019 05:10:18 6 C 51 %
267 27-04-2019 05:22:17 5.8 C 52 %
268 27-04-2019 05:34:17 5.7 C 52 %
269 27-04-2019 05:46:17 5.6 C 52 %
270 27-04-2019 05:58:17 5.5 C 53 %
271 27-04-2019 06:10:18 5.5 C 54 %
272 27-04-2019 06:22:17 5.7 C 55 %
273 27-04-2019 06:34:17 5.7 C 55 %
274 27-04-2019 06:46:17 6 C 55 %
275 27-04-2019 06:58:17 6.3 C 56 %
Sensor: Nr:Datum:Temp:Feuchte:
Aussen-T/F 276 27-04-2019 07:10:17 6.5 C 54 %
277 27-04-2019 07:22:17 6.7 C 55 %
278 27-04-2019 07:34:17 7.3 C 56 %
279 27-04-2019 07:46:17 7.5 C 57 %
280 27-04-2019 07:58:17 8 C 56 %
281 27-04-2019 08:10:17 8.4 C 55 %
282 27-04-2019 08:22:17 8.7 C 52 %
283 27-04-2019 08:34:17 8.9 C 50 %
284 27-04-2019 08:46:17 9.3 C 48 %
285 27-04-2019 08:58:17 9.8 C 44 %
286 27-04-2019 09:10:17 10.4 C 41 %
287 27-04-2019 09:22:17 10.4 C 41 %
288 27-04-2019 09:34:17 11.1 C 32 %
289 27-04-2019 09:46:17 11.4 C 31 %
290 27-04-2019 09:58:17 11.2 C 30 %
291 27-04-2019 10:10:17 11.1 C 30 %
292 27-04-2019 10:23:17 11.1 C 31 %
293 27-04-2019 10:35:17 11.3 C 31 %
294 27-04-2019 10:47:17 12.1 C 29 %
295 27-04-2019 10:58:17 12.2 C 25 %
296 27-04-2019 11:11:17 13.4 C 20 %
297 27-04-2019 11:23:17 13.5 C 20 %
298 27-04-2019 11:34:17 12.8 C 20 %
299 27-04-2019 11:46:17 12.7 C 20 %
300 27-04-2019 11:58:17 12.6 C 20 %
Sensor: Nr:Datum:Temp:Feuchte:
Aussen-T/F 301 27-04-2019 12:11:17 11.8 C 28 %
302 27-04-2019 12:23:17 12.2 C 27 %
303 27-04-2019 12:34:17 12.4 C 26 %
304 27-04-2019 12:46:17 13.1 C 25 %
305 27-04-2019 12:58:17 13.9 C 21 %
306 27-04-2019 13:10:17 14.4 C 21 %
307 27-04-2019 13:22:17 14.1 C 20 %
308 27-04-2019 13:34:17 13.7 C 20 %
309 27-04-2019 13:46:17 11.6 C 20 %
310 27-04-2019 13:58:17 8.6 C 33 %
311 27-04-2019 14:10:17 8.2 C 38 %
312 27-04-2019 14:22:18 8.7 C 40 %
313 27-04-2019 14:35:17 8.7 C 41 %
314 27-04-2019 14:46:18 9.8 C 35 %
315 27-04-2019 14:58:18 9.6 C 35 %
316 27-04-2019 15:10:18 9.6 C 40 %
317 27-04-2019 15:23:17 9.5 C 41 %
318 27-04-2019 15:35:17 10.8 C 37 %
319 27-04-2019 15:47:17 10.4 C 32 %
320 27-04-2019 15:59:17 10.8 C 32 %
321 27-04-2019 16:11:17 10.8 C 32 %
322 27-04-2019 16:23:17 12.2 C 23 %
323 27-04-2019 16:35:17 13.4 C 20 %
324 27-04-2019 16:47:17 12.5 C 20 %
325 27-04-2019 16:59:17 12.7 C 20 %
Sensor: Nr:Datum:Temp:Feuchte:
Aussen-T/F 326 27-04-2019 17:11:17 11.8 C 25 %
327 27-04-2019 17:23:17 11.8 C 21 %
328 27-04-2019 17:35:17 12.6 C 20 %
329 27-04-2019 17:47:17 11.8 C 20 %
330 27-04-2019 17:59:17 13.3 C 20 %
331 27-04-2019 18:11:17 12 C 20 %
332 27-04-2019 18:23:17 11.2 C 22 %
333 27-04-2019 18:35:17 9.2 C 34 %
334 27-04-2019 18:47:17 8.9 C 42 %
335 27-04-2019 18:59:17 9 C 43 %
336 27-04-2019 19:11:17 9.2 C 44 %
337 27-04-2019 19:23:17 9.2 C 41 %
338 27-04-2019 19:35:17 8.7 C 42 %
339 27-04-2019 19:47:17 7.8 C 40 %
340 27-04-2019 19:59:17 7.4 C 43 %
341 27-04-2019 20:11:17 7.2 C 44 %
342 27-04-2019 20:23:17 7.1 C 46 %
343 27-04-2019 20:35:17 7 C 46 %
344 27-04-2019 20:47:17 7 C 47 %
345 27-04-2019 20:59:18 7 C 46 %
346 27-04-2019 21:10:18 7 C 47 %
347 27-04-2019 21:23:17 7 C 47 %
348 27-04-2019 21:35:17 7 C 48 %
349 27-04-2019 21:47:17 6.8 C 49 %
350 27-04-2019 21:59:17 6.3 C 50 %
Sensor: Nr:Datum:Temp:Feuchte:
Aussen-T/F 351 27-04-2019 22:11:17 6.2 C 51 %
352 27-04-2019 22:23:17 6.5 C 51 %
353 27-04-2019 22:35:17 6.5 C 49 %
354 27-04-2019 22:47:17 6.4 C 48 %
355 27-04-2019 22:59:17 6.6 C 49 %
356 27-04-2019 23:11:17 6.6 C 49 %
357 27-04-2019 23:23:18 6.6 C 46 %
358 27-04-2019 23:35:18 6.8 C 42 %
359 27-04-2019 23:47:17 6.8 C 40 %
360 27-04-2019 23:59:17 6.8 C 40 %
361 28-04-2019 00:11:17 7 C 36 %
362 28-04-2019 00:23:17 7 C 36 %
363 28-04-2019 00:35:17 7 C 36 %
364 28-04-2019 00:47:17 7 C 36 %
365 28-04-2019 00:59:17 7.1 C 35 %
366 28-04-2019 01:11:17 6.9 C 36 %
367 28-04-2019 01:23:17 6.9 C 36 %
368 28-04-2019 01:35:17 6.9 C 36 %
369 28-04-2019 01:47:17 6.9 C 36 %
370 28-04-2019 01:59:17 6.9 C 36 %
371 28-04-2019 02:11:17 6.9 C 36 %
372 28-04-2019 02:23:17 6.9 C 36 %
373 28-04-2019 02:35:17 6.9 C 36 %
374 28-04-2019 02:47:17 6.9 C 36 %
375 28-04-2019 02:59:17 6.9 C 36 %
Sensor: Nr:Datum:Temp:Feuchte:
Aussen-T/F 376 28-04-2019 03:11:17 6.9 C 36 %
377 28-04-2019 03:23:17 6.9 C 36 %
378 28-04-2019 03:35:18 6.9 C 36 %
379 28-04-2019 03:47:17 6.9 C 36 %
380 28-04-2019 03:59:17 6.9 C 36 %
381 28-04-2019 04:11:17 6.9 C 36 %
382 28-04-2019 04:23:17 6.9 C 36 %
383 28-04-2019 04:35:17 6.9 C 36 %
384 28-04-2019 04:47:17 6.9 C 36 %
385 28-04-2019 04:59:17 6.9 C 36 %
386 28-04-2019 05:11:17 6.9 C 36 %
387 28-04-2019 05:23:17 6.9 C 36 %
388 28-04-2019 05:35:17 6.9 C 36 %
389 28-04-2019 05:47:17 6.9 C 36 %
390 28-04-2019 05:59:17 5.9 C 34 %
391 28-04-2019 06:11:17 5.8 C 35 %
392 28-04-2019 06:23:17 5.8 C 35 %
393 28-04-2019 06:35:17 5.9 C 35 %
394 28-04-2019 06:47:17 5.8 C 35 %
395 28-04-2019 06:59:17 6 C 35 %
396 28-04-2019 07:11:17 6.3 C 33 %
397 28-04-2019 07:23:17 6.7 C 32 %
398 28-04-2019 07:35:17 7.1 C 30 %
399 28-04-2019 07:47:17 7.3 C 30 %
400 28-04-2019 07:59:17 7.3 C 30 %
Sensor: Nr:Datum:Temp:Feuchte:
Aussen-T/F 401 28-04-2019 08:11:18 7.4 C 30 %
402 28-04-2019 08:23:17 7.3 C 29 %
403 28-04-2019 08:35:17 7.4 C 30 %
404 28-04-2019 08:47:17 7.4 C 30 %
405 28-04-2019 08:59:17 7.5 C 30 %
406 28-04-2019 09:11:18 7.6 C 31 %
407 28-04-2019 09:23:17 7.8 C 30 %
408 28-04-2019 09:35:17 7.7 C 31 %
409 28-04-2019 09:47:17 7.6 C 33 %
410 28-04-2019 09:59:17 8.5 C 32 %
411 28-04-2019 10:11:17 8.4 C 30 %
412 28-04-2019 10:23:17 9.4 C 26 %
413 28-04-2019 10:35:17 9.6 C 25 %
414 28-04-2019 10:47:17 10 C 21 %
415 28-04-2019 10:59:17 10.5 C 20 %
416 28-04-2019 11:11:17 10.9 C 20 %
417 28-04-2019 11:23:17 11.8 C 20 %
418 28-04-2019 11:35:17 11.4 C 20 %
419 28-04-2019 11:47:18 10.6 C 20 %
420 28-04-2019 11:59:18 10.9 C 20 %
421 28-04-2019 12:11:17 10.9 C 20 %
422 28-04-2019 12:23:17 10.4 C 20 %
423 28-04-2019 12:35:17 10.4 C 20 %
424 28-04-2019 12:47:17 10.5 C 20 %
425 28-04-2019 12:59:17 11 C 20 %
Sensor: Nr:Datum:Temp:Feuchte:
Aussen-T/F 426 28-04-2019 13:11:17 11.1 C 20 %
427 28-04-2019 13:23:17 11.2 C 20 %
428 28-04-2019 13:35:17 11.4 C 20 %
429 28-04-2019 13:47:17 12.1 C 20 %
430 28-04-2019 13:59:17 12.3 C 20 %
431 28-04-2019 14:11:17 12.2 C 20 %
432 28-04-2019 14:23:17 12.2 C 20 %
433 28-04-2019 14:35:17 12.9 C 20 %
434 28-04-2019 14:47:17 13.2 C 20 %
435 28-04-2019 14:59:17 13.1 C 20 %
436 28-04-2019 15:11:17 12 C 20 %
437 28-04-2019 15:23:18 11.4 C 20 %
438 28-04-2019 15:35:17 10.4 C 20 %
439 28-04-2019 15:47:17 9.8 C 27 %
440 28-04-2019 15:59:17 9.1 C 35 %
441 28-04-2019 16:11:17 9.1 C 35 %
442 28-04-2019 16:23:17 9.3 C 35 %
443 28-04-2019 16:35:17 9.6 C 33 %
444 28-04-2019 16:47:17 11.2 C 28 %
445 28-04-2019 16:59:17 11.2 C 28 %
446 28-04-2019 17:11:17 11.5 C 22 %
447 28-04-2019 17:23:17 11.5 C 25 %
448 28-04-2019 17:35:17 11.4 C 24 %
449 28-04-2019 17:47:17 11.1 C 25 %
450 28-04-2019 17:59:17 11.3 C 28 %
Sensor: Nr:Datum:Temp:Feuchte:
Aussen-T/F 451 28-04-2019 18:11:17 11.1 C 26 %
452 28-04-2019 18:23:17 11.7 C 20 %
453 28-04-2019 18:35:17 11.7 C 20 %
454 28-04-2019 18:47:17 11.2 C 20 %
455 28-04-2019 18:59:17 11.1 C 20 %
456 28-04-2019 19:11:17 10.5 C 20 %
457 28-04-2019 19:23:17 10.4 C 20 %
458 28-04-2019 19:35:17 10.5 C 21 %
459 28-04-2019 19:47:17 10.8 C 20 %
460 28-04-2019 19:59:18 10.5 C 20 %
461 28-04-2019 20:11:18 9.6 C 25 %
462 28-04-2019 20:23:17 8.7 C 30 %
463 28-04-2019 20:35:17 7.9 C 36 %
464 28-04-2019 20:47:17 8 C 35 %
465 28-04-2019 20:59:18 7.1 C 39 %
466 28-04-2019 21:11:18 6.6 C 41 %
467 28-04-2019 21:23:17 6.5 C 42 %
468 28-04-2019 21:35:17 6.2 C 42 %
469 28-04-2019 21:47:17 6.2 C 42 %
470 28-04-2019 21:59:17 5.7 C 46 %
471 28-04-2019 22:11:17 5.2 C 46 %
472 28-04-2019 22:23:17 5.2 C 46 %
473 28-04-2019 22:35:17 5.2 C 46 %
474 28-04-2019 22:47:17 4.7 C 50 %
475 28-04-2019 22:59:17 4.5 C 50 %
Sensor: Nr:Datum:Temp:Feuchte:
Aussen-T/F 476 28-04-2019 23:11:17 4.2 C 50 %
477 28-04-2019 23:23:17 4.1 C 50 %
478 28-04-2019 23:35:17 4 C 50 %
479 28-04-2019 23:47:17 3.9 C 52 %
480 28-04-2019 23:59:17 3.9 C 52 %
481 29-04-2019 00:11:17 3.7 C 52 %
482 29-04-2019 00:23:17 3.6 C 52 %
483 29-04-2019 00:35:17 3.5 C 52 %
484 29-04-2019 00:47:17 3.4 C 52 %
485 29-04-2019 00:59:17 3.5 C 53 %
486 29-04-2019 01:11:17 3.5 C 53 %
487 29-04-2019 01:23:17 3.3 C 52 %
488 29-04-2019 01:35:17 3 C 52 %
489 29-04-2019 01:47:17 2.8 C 53 %
490 29-04-2019 01:59:17 2.8 C 53 %
491 29-04-2019 02:11:17 2.9 C 54 %
492 29-04-2019 02:23:17 2.9 C 54 %
493 29-04-2019 02:35:18 2.7 C 54 %
494 29-04-2019 02:47:18 3.2 C 55 %
495 29-04-2019 02:59:18 3.2 C 55 %
496 29-04-2019 03:11:17 3.1 C 54 %
497 29-04-2019 03:23:17 3.4 C 56 %
498 29-04-2019 03:35:17 3.4 C 55 %
499 29-04-2019 03:47:17 3.3 C 55 %
500 29-04-2019 03:59:17 3.3 C 55 %
Sensor: Nr:Datum:Temp:Feuchte:
Aussen-T/F 501 29-04-2019 04:11:17 3.3 C 55 %
502 29-04-2019 04:23:17 3.2 C 55 %
503 29-04-2019 04:35:17 3.2 C 55 %
504 29-04-2019 04:47:17 3 C 53 %
505 29-04-2019 04:59:17 3.2 C 53 %
506 29-04-2019 05:11:17 3.3 C 53 %
507 29-04-2019 05:23:17 3.1 C 53 %
508 29-04-2019 05:35:17 3 C 52 %
509 29-04-2019 05:47:17 3 C 53 %
510 29-04-2019 05:59:17 3 C 53 %
511 29-04-2019 06:11:17 2.8 C 53 %
512 29-04-2019 06:23:17 2.7 C 52 %
513 29-04-2019 06:35:17 2.7 C 51 %
514 29-04-2019 06:47:17 2.8 C 51 %
515 29-04-2019 06:59:17 2.9 C 51 %
516 29-04-2019 07:11:17 2.8 C 50 %
517 29-04-2019 07:23:17 3 C 48 %
518 29-04-2019 07:35:17 3.1 C 47 %
519 29-04-2019 07:47:17 3.4 C 47 %
520 29-04-2019 07:59:17 3.6 C 46 %
521 29-04-2019 08:11:17 3.7 C 46 %
522 29-04-2019 08:23:17 3.8 C 45 %
523 29-04-2019 08:35:17 4.5 C 42 %
524 29-04-2019 08:47:17 4.5 C 40 %
525 29-04-2019 08:59:17 5 C 40 %
Sensor: Nr:Datum:Temp:Feuchte:
Aussen-T/F 526 29-04-2019 09:11:17 5.2 C 39 %
527 29-04-2019 09:23:18 5.7 C 37 %
528 29-04-2019 09:35:17 6 C 36 %
529 29-04-2019 09:47:17 6 C 36 %
530 29-04-2019 09:59:17 7 C 33 %
531 29-04-2019 10:11:17 7.8 C 32 %
532 29-04-2019 10:23:17 8.2 C 30 %
533 29-04-2019 10:35:17 8.6 C 31 %
534 29-04-2019 10:47:17 9.1 C 30 %
535 29-04-2019 10:59:17 11.7 C 23 %
536 29-04-2019 11:11:17 11.3 C 22 %
537 29-04-2019 11:23:17 12.5 C 20 %
538 29-04-2019 11:35:18 11.5 C 24 %
539 29-04-2019 11:47:17 11.3 C 25 %
540 29-04-2019 11:59:17 11.4 C 25 %
541 29-04-2019 12:11:17 11.9 C 24 %
542 29-04-2019 12:23:17 12.4 C 20 %
543 29-04-2019 12:35:17 12.7 C 20 %
544 29-04-2019 12:47:17 12.7 C 20 %
545 29-04-2019 12:59:17 14.2 C 20 %
546 29-04-2019 13:11:17 14.3 C 20 %
547 29-04-2019 13:23:17 14.3 C 20 %
548 29-04-2019 13:35:18 14.9 C 20 %
549 29-04-2019 13:47:18 15 C 20 %
550 29-04-2019 13:59:18 14.6 C 20 %
Sensor: Nr:Datum:Temp:Feuchte:
Aussen-T/F 551 29-04-2019 14:11:18 15.4 C 20 %
552 29-04-2019 14:23:17 15.5 C 20 %
553 29-04-2019 14:35:17 15.5 C 20 %
554 29-04-2019 14:47:17 16.7 C 20 %
555 29-04-2019 14:59:17 15.5 C 20 %
556 29-04-2019 15:11:17 16.5 C 20 %
557 29-04-2019 15:23:17 15.8 C 20 %
558 29-04-2019 15:35:17 15.8 C 20 %
559 29-04-2019 15:47:17 16 C 20 %
560 29-04-2019 15:59:17 15.4 C 20 %
561 29-04-2019 16:11:17 15.8 C 20 %
562 29-04-2019 16:23:17 15.8 C 20 %
563 29-04-2019 16:35:17 15.4 C 20 %
564 29-04-2019 16:47:17 15.6 C 20 %
565 29-04-2019 16:59:17 15.8 C 20 %
566 29-04-2019 17:11:17 15.8 C 20 %
567 29-04-2019 17:23:17 15.6 C 20 %
568 29-04-2019 17:35:17 15.4 C 20 %
569 29-04-2019 17:47:17 15.4 C 20 %
570 29-04-2019 17:59:17 15.4 C 20 %
571 29-04-2019 18:11:17 13.8 C 20 %
572 29-04-2019 18:23:17 13.2 C 20 %
573 29-04-2019 18:35:17 12.8 C 20 %
574 29-04-2019 18:47:17 11.2 C 33 %
575 29-04-2019 18:59:17 10.7 C 37 %
Sensor: Nr:Datum:Temp:Feuchte:
Aussen-T/F 576 29-04-2019 19:11:18 10.4 C 40 %
577 29-04-2019 19:23:17 10.1 C 43 %
578 29-04-2019 19:35:17 9.8 C 45 %
579 29-04-2019 19:47:17 9.7 C 46 %
580 29-04-2019 19:59:17 9.7 C 47 %
581 29-04-2019 20:11:18 9.5 C 47 %
582 29-04-2019 20:23:17 9.6 C 47 %
583 29-04-2019 20:35:17 9.6 C 48 %
584 29-04-2019 20:47:17 9.5 C 48 %
585 29-04-2019 20:59:17 9.5 C 48 %
586 29-04-2019 21:11:18 9.4 C 48 %
587 29-04-2019 21:23:17 9.4 C 47 %
588 29-04-2019 21:35:17 9.4 C 46 %
589 29-04-2019 21:47:17 9.5 C 45 %
590 29-04-2019 21:59:17 9.5 C 45 %
591 29-04-2019 22:11:17 9.4 C 45 %
592 29-04-2019 22:23:17 9.4 C 46 %
593 29-04-2019 22:35:17 9.5 C 45 %
594 29-04-2019 22:47:17 9.4 C 45 %
595 29-04-2019 22:59:17 9.7 C 44 %
596 29-04-2019 23:11:17 9.7 C 43 %
597 29-04-2019 23:23:17 9.9 C 40 %
598 29-04-2019 23:35:17 10.1 C 39 %
599 29-04-2019 23:47:17 10 C 40 %
600 29-04-2019 23:59:17 10 C 40 %
Sensor: Nr:Datum:Temp:Feuchte:
Aussen-T/F 601 30-04-2019 00:11:17 10 C 40 %
602 30-04-2019 00:23:17 10.6 C 34 %
603 30-04-2019 00:35:17 10.5 C 35 %
604 30-04-2019 00:47:17 10.5 C 35 %
605 30-04-2019 00:59:17 10.7 C 33 %
606 30-04-2019 01:11:17 10.7 C 32 %
607 30-04-2019 01:23:17 10.6 C 33 %
608 30-04-2019 01:35:17 10.5 C 35 %
609 30-04-2019 01:47:17 10.5 C 35 %
610 30-04-2019 01:59:17 10.5 C 35 %
611 30-04-2019 02:11:17 10.5 C 36 %
612 30-04-2019 02:23:17 10.5 C 36 %
613 30-04-2019 02:35:18 10.4 C 37 %
614 30-04-2019 02:47:17 10.3 C 37 %
615 30-04-2019 02:59:18 10.2 C 37 %
616 30-04-2019 03:11:18 10.2 C 37 %
617 30-04-2019 03:23:17 10.2 C 37 %
618 30-04-2019 03:35:17 10.1 C 36 %
619 30-04-2019 03:47:17 10 C 36 %
620 30-04-2019 03:59:17 10 C 37 %
621 30-04-2019 04:11:17 9.9 C 38 %
622 30-04-2019 04:23:17 9.8 C 38 %
623 30-04-2019 04:35:17 9.8 C 38 %
624 30-04-2019 04:47:17 9.8 C 38 %
625 30-04-2019 04:59:17 9.6 C 39 %
Sensor: Nr:Datum:Temp:Feuchte:
Aussen-T/F 626 30-04-2019 05:11:17 9.7 C 37 %
627 30-04-2019 05:23:17 9.7 C 37 %
628 30-04-2019 05:35:17 9.7 C 36 %
629 30-04-2019 05:47:17 9.7 C 36 %
630 30-04-2019 05:59:17 9.6 C 37 %
631 30-04-2019 06:11:18 9.6 C 38 %
632 30-04-2019 06:23:18 9.6 C 39 %
633 30-04-2019 06:35:18 9.5 C 39 %
634 30-04-2019 06:47:18 9.5 C 40 %
635 30-04-2019 06:59:18 9.5 C 40 %
636 30-04-2019 07:11:17 9.6 C 40 %
637 30-04-2019 07:23:17 9.8 C 36 %
638 30-04-2019 07:35:17 10 C 35 %
639 30-04-2019 07:47:17 10 C 35 %
640 30-04-2019 07:59:17 10.3 C 32 %
641 30-04-2019 08:11:17 10.5 C 31 %
642 30-04-2019 08:23:17 10.5 C 31 %
643 30-04-2019 08:35:17 10.9 C 26 %
644 30-04-2019 08:47:17 11 C 25 %
645 30-04-2019 08:59:17 10.8 C 22 %
646 30-04-2019 09:11:17 10.8 C 20 %
647 30-04-2019 09:23:17 10.8 C 20 %
648 30-04-2019 09:35:17 11.7 C 20 %
649 30-04-2019 09:47:17 12.1 C 20 %
650 30-04-2019 09:59:17 12.3 C 20 %
Sensor: Nr:Datum:Temp:Feuchte:
Aussen-T/F 651 30-04-2019 10:11:17 12.3 C 20 %
652 30-04-2019 10:23:17 12.3 C 20 %
653 30-04-2019 10:35:18 12.3 C 20 %
654 30-04-2019 10:47:18 12.3 C 20 %
655 30-04-2019 10:59:18 12.3 C 20 %
656 30-04-2019 11:11:17 12.3 C 20 %
657 30-04-2019 11:23:17 12.3 C 20 %
658 30-04-2019 11:35:17 14.9 C 20 %
659 30-04-2019 11:47:17 14.9 C 20 %
660 30-04-2019 11:59:17 14.9 C 20 %
661 30-04-2019 12:11:17 14.9 C 20 %
662 30-04-2019 12:23:17 14.6 C 20 %
663 30-04-2019 12:35:17 14.8 C 20 %
664 30-04-2019 12:47:18 15 C 20 %
665 30-04-2019 12:59:18 15.2 C 20 %
666 30-04-2019 13:11:17 15.2 C 20 %
667 30-04-2019 13:23:17 15.6 C 20 %
668 30-04-2019 13:35:17 15.7 C 20 %
669 30-04-2019 13:47:17 16 C 20 %
670 30-04-2019 13:59:17 16 C 20 %
671 30-04-2019 14:11:17 16.6 C 20 %
672 30-04-2019 14:23:17 17.2 C 20 %
673 30-04-2019 14:35:17 17.6 C 20 %
674 30-04-2019 14:47:17 18 C 20 %
675 30-04-2019 14:59:17 18.8 C 20 %
Sensor: Nr:Datum:Temp:Feuchte:
Aussen-T/F 676 30-04-2019 15:11:17 19.5 C 20 %
677 30-04-2019 15:23:17 19.2 C 20 %
678 30-04-2019 15:35:18 19.2 C 20 %
679 30-04-2019 15:47:17 19.4 C 20 %
680 30-04-2019 15:59:18 19.5 C 20 %
681 30-04-2019 16:11:17 20 C 20 %
682 30-04-2019 16:23:17 20.6 C 20 %
683 30-04-2019 16:35:18 20.1 C 20 %
684 30-04-2019 16:47:17 20.9 C 20 %
685 30-04-2019 16:59:17 20.8 C 20 %
686 30-04-2019 17:11:17 20.5 C 20 %
687 30-04-2019 17:23:18 21.2 C 20 %
688 30-04-2019 17:35:17 21.2 C 20 %
689 30-04-2019 17:47:17 21.2 C 20 %
690 30-04-2019 17:59:17 21.4 C 20 %
691 30-04-2019 18:11:17 20.5 C 20 %
692 30-04-2019 18:23:17 20.5 C 20 %
693 30-04-2019 18:35:17 21.4 C 20 %
694 30-04-2019 18:47:18 21.4 C 20 %
695 30-04-2019 18:59:18 20.6 C 20 %
696 30-04-2019 19:11:18 20.6 C 20 %
697 30-04-2019 19:23:17 19.2 C 20 %
698 30-04-2019 19:35:17 18.6 C 20 %
699 30-04-2019 19:47:17 18.2 C 20 %
700 30-04-2019 19:59:17 17.5 C 20 %
Sensor: Nr:Datum:Temp:Feuchte:
Aussen-T/F 701 30-04-2019 20:11:17 17.2 C 20 %
702 30-04-2019 20:23:17 17 C 20 %
703 30-04-2019 20:35:17 16.6 C 20 %
704 30-04-2019 20:47:17 16.6 C 20 %
705 30-04-2019 20:59:17 16.1 C 20 %
706 30-04-2019 21:11:17 15.4 C 20 %
707 30-04-2019 21:23:17 15 C 20 %
708 30-04-2019 21:35:18 15 C 20 %
709 30-04-2019 21:47:17 14.7 C 20 %
710 30-04-2019 21:59:17 14.1 C 20 %
711 30-04-2019 22:11:17 14.3 C 20 %
712 30-04-2019 22:23:17 14.1 C 20 %
713 30-04-2019 22:35:17 13.7 C 20 %
714 30-04-2019 22:47:17 13.2 C 20 %
715 30-04-2019 22:59:17 13 C 20 %
716 30-04-2019 23:11:17 12.8 C 20 %
717 30-04-2019 23:23:17 12 C 26 %
718 30-04-2019 23:35:17 11.7 C 27 %
719 30-04-2019 23:47:17 11.4 C 29 %
720 30-04-2019 23:59:17 10.8 C 32 %
721 01-05-2019 00:11:17 10.9 C 31 %
722 01-05-2019 00:23:17 10.7 C 32 %
723 01-05-2019 00:35:17 11 C 30 %
724 01-05-2019 00:47:17 10.4 C 31 %
725 01-05-2019 00:59:17 9.9 C 35 %
Sensor: Nr:Datum:Temp:Feuchte:
Aussen-T/F 726 01-05-2019 01:11:17 10.2 C 35 %
727 01-05-2019 01:23:17 9.9 C 35 %
728 01-05-2019 01:35:17 9.5 C 37 %
729 01-05-2019 01:47:17 9.5 C 38 %
730 01-05-2019 01:59:17 9.1 C 38 %
731 01-05-2019 02:11:17 8.9 C 40 %
732 01-05-2019 02:23:17 8.6 C 40 %
733 01-05-2019 02:35:17 8.3 C 41 %
734 01-05-2019 02:47:17 8.2 C 43 %
735 01-05-2019 02:59:17 8.1 C 44 %
736 01-05-2019 03:11:17 7.8 C 45 %
737 01-05-2019 03:23:17 7.8 C 46 %
738 01-05-2019 03:35:17 7.8 C 46 %
739 01-05-2019 03:47:17 7.8 C 47 %
740 01-05-2019 03:59:17 7.6 C 46 %
741 01-05-2019 04:11:17 7.7 C 47 %
742 01-05-2019 04:23:17 7.5 C 47 %
743 01-05-2019 04:35:17 7.1 C 46 %
744 01-05-2019 04:47:17 6.9 C 47 %
745 01-05-2019 04:59:17 6.8 C 48 %
746 01-05-2019 05:11:17 6.4 C 48 %
747 01-05-2019 05:23:17 6.2 C 48 %
748 01-05-2019 05:35:17 5.9 C 49 %
749 01-05-2019 05:47:17 5.8 C 50 %
750 01-05-2019 05:59:17 5.4 C 50 %
Sensor: Nr:Datum:Temp:Feuchte:
Aussen-T/F 751 01-05-2019 06:11:17 5.4 C 50 %
752 01-05-2019 06:23:17 5.5 C 51 %
753 01-05-2019 06:35:17 5.7 C 51 %
754 01-05-2019 06:47:17 5.7 C 51 %
755 01-05-2019 06:59:17 5.9 C 51 %
756 01-05-2019 07:11:17 6.4 C 51 %
757 01-05-2019 07:23:17 6.8 C 51 %
758 01-05-2019 07:35:17 7 C 48 %
759 01-05-2019 07:47:17 7.5 C 46 %
760 01-05-2019 07:59:17 7.5 C 46 %
761 01-05-2019 08:11:17 8.1 C 40 %
762 01-05-2019 08:23:17 8.6 C 38 %
763 01-05-2019 08:35:18 8.8 C 36 %
764 01-05-2019 08:47:17 8.9 C 35 %
765 01-05-2019 08:59:17 9.2 C 35 %
766 01-05-2019 09:11:17 9.2 C 34 %
767 01-05-2019 09:23:17 9.6 C 34 %
768 01-05-2019 09:35:17 9.6 C 32 %
769 01-05-2019 09:47:17 10.1 C 31 %
770 01-05-2019 09:59:17 10.6 C 30 %
771 01-05-2019 10:11:17 10.5 C 30 %
772 01-05-2019 10:23:17 11.2 C 28 %
773 01-05-2019 10:35:17 11.8 C 27 %
774 01-05-2019 10:47:17 11.7 C 27 %
775 01-05-2019 10:59:17 12.9 C 23 %
Sensor: Nr:Datum:Temp:Feuchte:
Aussen-T/F 776 01-05-2019 11:11:17 13.6 C 20 %
777 01-05-2019 11:23:17 14.2 C 20 %
778 01-05-2019 11:35:17 14.8 C 20 %
779 01-05-2019 11:47:17 13.8 C 20 %
780 01-05-2019 11:59:17 13.6 C 21 %
781 01-05-2019 12:11:17 14.1 C 21 %
782 01-05-2019 12:23:17 14.1 C 21 %
783 01-05-2019 12:35:17 14.1 C 21 %
784 01-05-2019 12:47:17 14.8 C 20 %
785 01-05-2019 12:59:17 15.1 C 20 %
786 01-05-2019 13:11:18 15.9 C 20 %
787 01-05-2019 13:23:17 16.2 C 20 %
788 01-05-2019 13:35:17 16.5 C 20 %
789 01-05-2019 13:47:17 16.5 C 20 %
790 01-05-2019 13:59:17 17.1 C 20 %
791 01-05-2019 14:11:17 17.5 C 20 %
792 01-05-2019 14:23:17 18.2 C 20 %
793 01-05-2019 14:35:17 18.6 C 20 %
794 01-05-2019 14:47:17 19.2 C 20 %
795 01-05-2019 14:59:17 19.3 C 20 %
796 01-05-2019 15:11:17 19.9 C 20 %
797 01-05-2019 15:23:17 19.9 C 20 %
798 01-05-2019 15:35:17 20.7 C 20 %
799 01-05-2019 15:47:17 21 C 20 %
800 01-05-2019 15:59:17 21.2 C 20 %
Sensor: Nr:Datum:Temp:Feuchte:
Aussen-T/F 801 01-05-2019 16:11:17 21.2 C 20 %
802 01-05-2019 16:23:17 21.8 C 20 %
803 01-05-2019 16:35:17 22.4 C 20 %
804 01-05-2019 16:47:17 21.9 C 20 %
805 01-05-2019 16:59:17 21.9 C 20 %
806 01-05-2019 17:11:17 22.3 C 20 %
807 01-05-2019 17:23:17 21.7 C 20 %
808 01-05-2019 17:35:17 21.4 C 20 %
809 01-05-2019 17:47:17 22.1 C 20 %
810 01-05-2019 17:59:18 21.3 C 20 %
811 01-05-2019 18:11:17 21.6 C 20 %
812 01-05-2019 18:23:17 21.5 C 20 %
813 01-05-2019 18:35:17 21.5 C 20 %
814 01-05-2019 18:47:17 20.3 C 20 %
815 01-05-2019 18:59:17 20.2 C 20 %
816 01-05-2019 19:11:17 19.5 C 20 %
817 01-05-2019 19:23:17 18.6 C 20 %
818 01-05-2019 19:35:17 17.6 C 20 %
819 01-05-2019 19:47:17 17.5 C 20 %
820 01-05-2019 19:59:17 16.9 C 20 %
821 01-05-2019 20:11:17 16.3 C 20 %
822 01-05-2019 20:23:17 16.3 C 20 %
823 01-05-2019 20:35:17 14.3 C 20 %
824 01-05-2019 20:47:18 13.5 C 20 %
825 01-05-2019 20:59:18 12.9 C 20 %
Sensor: Nr:Datum:Temp:Feuchte:
Aussen-T/F 826 01-05-2019 21:11:17 12.9 C 20 %
827 01-05-2019 21:23:17 13.1 C 20 %
828 01-05-2019 21:35:17 13.1 C 20 %
829 01-05-2019 21:47:17 13.1 C 20 %
830 01-05-2019 21:59:17 13.1 C 20 %
831 01-05-2019 22:11:17 13.1 C 20 %
832 01-05-2019 22:23:17 13.1 C 20 %
833 01-05-2019 22:35:17 13.1 C 20 %
834 01-05-2019 22:47:18 13.1 C 20 %
835 01-05-2019 22:59:18 13.1 C 20 %
836 01-05-2019 23:11:17 13.1 C 20 %
837 01-05-2019 23:23:17 13.1 C 20 %
838 01-05-2019 23:35:18 13.1 C 20 %
839 01-05-2019 23:47:17 13.1 C 20 %
840 01-05-2019 23:59:17 13.1 C 20 %
841 02-05-2019 00:11:17 13.1 C 20 %
842 02-05-2019 00:23:17 13.1 C 20 %
843 02-05-2019 00:35:17 13.1 C 20 %
844 02-05-2019 00:47:17 13.1 C 20 %
845 02-05-2019 00:59:17 13.1 C 20 %
846 02-05-2019 01:11:17 13.1 C 20 %
847 02-05-2019 01:23:17 13.1 C 20 %
848 02-05-2019 01:35:17 13.1 C 20 %
849 02-05-2019 01:47:17 13.1 C 20 %
850 02-05-2019 01:59:17 13.1 C 20 %
Sensor: Nr:Datum:Temp:Feuchte:
Aussen-T/F 851 02-05-2019 02:11:17 13.1 C 20 %
852 02-05-2019 02:23:17 7.6 C 47 %
853 02-05-2019 02:35:18 7.6 C 47 %
854 02-05-2019 02:47:17 7.6 C 47 %
855 02-05-2019 02:59:17 7.4 C 49 %
856 02-05-2019 03:11:17 7.3 C 49 %
857 02-05-2019 03:23:17 7.3 C 49 %
858 02-05-2019 03:35:17 7 C 49 %
859 02-05-2019 03:47:17 6.6 C 49 %
860 02-05-2019 03:59:17 6.5 C 50 %
861 02-05-2019 04:11:17 6.5 C 50 %
862 02-05-2019 04:23:17 6.4 C 50 %
863 02-05-2019 04:35:17 6.3 C 50 %
864 02-05-2019 04:47:17 6.1 C 50 %
865 02-05-2019 04:59:17 5.9 C 51 %
866 02-05-2019 05:11:17 5.9 C 51 %
867 02-05-2019 05:23:18 5.7 C 51 %
868 02-05-2019 05:35:17 5.5 C 51 %
869 02-05-2019 05:47:17 5.4 C 51 %
870 02-05-2019 05:59:17 5.4 C 51 %
871 02-05-2019 06:11:18 5.1 C 51 %
872 02-05-2019 06:23:17 5.1 C 51 %
873 02-05-2019 06:35:17 5.2 C 51 %
874 02-05-2019 06:47:17 5.6 C 52 %
875 02-05-2019 06:59:17 6 C 53 %
Sensor: Nr:Datum:Temp:Feuchte:
Aussen-T/F 876 02-05-2019 07:11:17 6.6 C 54 %
877 02-05-2019 07:23:17 7 C 52 %
878 02-05-2019 07:35:17 7.3 C 48 %
879 02-05-2019 07:47:17 7.6 C 46 %
880 02-05-2019 07:59:17 8.1 C 44 %
881 02-05-2019 08:11:17 8.3 C 43 %
882 02-05-2019 08:23:17 9.1 C 38 %
883 02-05-2019 08:35:17 9.3 C 35 %
884 02-05-2019 08:47:17 9.5 C 34 %
885 02-05-2019 08:59:17 9.6 C 33 %
886 02-05-2019 09:11:17 9.9 C 32 %
887 02-05-2019 09:23:17 9.7 C 31 %
888 02-05-2019 09:35:17 10 C 31 %
889 02-05-2019 09:47:17 10 C 31 %
890 02-05-2019 09:59:17 11.1 C 26 %
891 02-05-2019 10:11:17 11.4 C 25 %
892 02-05-2019 10:23:17 12 C 20 %
893 02-05-2019 10:35:18 12.7 C 20 %
894 02-05-2019 10:47:17 13.1 C 20 %
895 02-05-2019 10:59:17 13.9 C 20 %
896 02-05-2019 11:11:17 13.8 C 20 %
897 02-05-2019 11:23:17 13.6 C 20 %
898 02-05-2019 11:35:17 13.8 C 20 %
899 02-05-2019 11:47:17 13.3 C 20 %
900 02-05-2019 11:59:17 13.7 C 20 %
Sensor: Nr:Datum:Temp:Feuchte:
Aussen-T/F 901 02-05-2019 12:11:17 13.7 C 20 %
902 02-05-2019 12:23:17 13.8 C 20 %
903 02-05-2019 12:35:17 14 C 20 %
904 02-05-2019 12:47:17 14 C 20 %
905 02-05-2019 12:59:17 14.2 C 20 %
906 02-05-2019 13:11:17 14.9 C 20 %
907 02-05-2019 13:23:17 15.1 C 20 %
908 02-05-2019 13:35:18 15 C 20 %
909 02-05-2019 13:47:17 14.9 C 20 %
910 02-05-2019 13:59:17 16.2 C 20 %
911 02-05-2019 14:11:17 16.5 C 20 %
912 02-05-2019 14:23:17 16.9 C 20 %
913 02-05-2019 14:35:17 17.5 C 20 %
914 02-05-2019 14:47:17 18.3 C 20 %
915 02-05-2019 14:59:17 18.2 C 20 %
916 02-05-2019 15:11:17 17.7 C 20 %
917 02-05-2019 15:23:17 16.7 C 20 %
918 02-05-2019 15:35:18 17.5 C 20 %
919 02-05-2019 15:47:17 17.1 C 20 %
920 02-05-2019 15:59:17 17.3 C 20 %
921 02-05-2019 16:11:17 17.7 C 20 %
922 02-05-2019 16:23:17 18 C 20 %
923 02-05-2019 16:35:17 18.9 C 20 %
924 02-05-2019 16:47:17 18.3 C 20 %
925 02-05-2019 16:59:17 18.4 C 20 %
Sensor: Nr:Datum:Temp:Feuchte:
Aussen-T/F 926 02-05-2019 17:11:17 18.7 C 20 %
927 02-05-2019 17:23:17 18.1 C 20 %
928 02-05-2019 17:35:17 18.5 C 20 %
929 02-05-2019 17:47:17 18.5 C 20 %
930 02-05-2019 17:59:17 19.4 C 20 %
931 02-05-2019 18:11:17 19.5 C 20 %
932 02-05-2019 18:23:17 19.2 C 20 %
933 02-05-2019 18:35:18 19.2 C 20 %
934 02-05-2019 18:47:17 17.7 C 20 %
935 02-05-2019 18:59:17 17.6 C 20 %
936 02-05-2019 19:11:17 16.8 C 20 %
937 02-05-2019 19:23:17 15.4 C 20 %
938 02-05-2019 19:35:17 14.9 C 20 %
939 02-05-2019 19:47:18 14.5 C 20 %
940 02-05-2019 19:59:18 14.4 C 20 %
941 02-05-2019 20:11:18 13.5 C 20 %
942 02-05-2019 20:23:17 12.6 C 20 %
943 02-05-2019 20:35:17 12.4 C 22 %
944 02-05-2019 20:47:17 12.2 C 25 %
945 02-05-2019 20:59:17 11.2 C 31 %
946 02-05-2019 21:11:17 10.6 C 35 %
947 02-05-2019 21:23:17 10.7 C 35 %
948 02-05-2019 21:35:18 10.4 C 40 %
949 02-05-2019 21:47:17 10.6 C 44 %
950 02-05-2019 21:59:17 10.5 C 45 %
Sensor: Nr:Datum:Temp:Feuchte:
Aussen-T/F 951 02-05-2019 22:11:17 10.5 C 43 %
952 02-05-2019 22:23:18 10.5 C 43 %
953 02-05-2019 22:35:17 10.5 C 43 %
954 02-05-2019 22:47:17 10.2 C 44 %
955 02-05-2019 22:59:17 10.2 C 42 %
956 02-05-2019 23:11:17 10.1 C 45 %
957 02-05-2019 23:23:17 10.2 C 46 %
958 02-05-2019 23:35:17 10.2 C 46 %
959 02-05-2019 23:47:17 10.1 C 46 %
960 02-05-2019 23:59:17 10.1 C 46 %
961 03-05-2019 00:11:18 10.1 C 47 %
962 03-05-2019 00:23:17 10.1 C 46 %
963 03-05-2019 00:35:17 10.1 C 46 %
964 03-05-2019 00:47:17 10.3 C 41 %
965 03-05-2019 00:59:17 10.3 C 41 %
966 03-05-2019 01:11:17 10.3 C 41 %
967 03-05-2019 01:23:17 10.3 C 35 %
968 03-05-2019 01:35:17 10.2 C 32 %
969 03-05-2019 01:47:17 10.2 C 32 %
970 03-05-2019 01:59:17 10.2 C 32 %
971 03-05-2019 02:11:17 9.4 C 30 %
972 03-05-2019 02:23:17 9.3 C 31 %
973 03-05-2019 02:35:17 9.4 C 31 %
974 03-05-2019 02:47:17 9.3 C 32 %
975 03-05-2019 02:59:17 9.3 C 31 %
Sensor: Nr:Datum:Temp:Feuchte:
Aussen-T/F 976 03-05-2019 03:11:17 9.2 C 31 %
977 03-05-2019 03:23:17 9.2 C 31 %
978 03-05-2019 03:35:18 9.2 C 31 %
979 03-05-2019 03:47:17 9.2 C 31 %
980 03-05-2019 03:59:17 9.2 C 31 %
981 03-05-2019 04:11:17 8.9 C 35 %
982 03-05-2019 04:23:17 8.9 C 36 %
983 03-05-2019 04:35:17 9 C 35 %
984 03-05-2019 04:47:17 9 C 35 %
985 03-05-2019 04:59:17 9.2 C 33 %
986 03-05-2019 05:11:17 9.2 C 33 %
987 03-05-2019 05:23:18 9.2 C 33 %
988 03-05-2019 05:35:17 9.2 C 34 %
989 03-05-2019 05:47:17 9.2 C 34 %
990 03-05-2019 05:59:17 9.1 C 35 %
991 03-05-2019 06:11:17 9.1 C 35 %
992 03-05-2019 06:23:17 9.1 C 34 %
993 03-05-2019 06:35:17 9.1 C 33 %
994 03-05-2019 06:47:17 9.1 C 34 %
995 03-05-2019 06:59:17 9.1 C 34 %
996 03-05-2019 07:11:17 9.1 C 33 %
997 03-05-2019 07:23:17 9.2 C 31 %
998 03-05-2019 07:35:17 9.2 C 30 %
999 03-05-2019 07:47:17 9.3 C 30 %
1000 03-05-2019 07:59:17 9.4 C 28 %
Sensor: Nr:Datum:Temp:Feuchte:
Aussen-T/F 1001 03-05-2019 08:11:17 10 C 26 %
1002 03-05-2019 08:23:18 10 C 26 %
1003 03-05-2019 08:35:17 9.7 C 26 %
1004 03-05-2019 08:47:17 9.5 C 26 %
1005 03-05-2019 08:59:17 9.9 C 25 %
1006 03-05-2019 09:11:18 10.4 C 22 %
1007 03-05-2019 09:23:17 10.5 C 20 %
1008 03-05-2019 09:35:17 10.5 C 20 %
1009 03-05-2019 09:47:17 11 C 20 %
1010 03-05-2019 09:59:17 11.6 C 20 %
1011 03-05-2019 10:11:18 11.2 C 20 %
1012 03-05-2019 10:23:17 10.8 C 20 %
1013 03-05-2019 10:35:17 11.5 C 20 %
1014 03-05-2019 10:47:17 11.7 C 20 %
1015 03-05-2019 10:59:17 11.7 C 20 %
1016 03-05-2019 11:11:18 11.8 C 20 %
1017 03-05-2019 11:23:17 12.7 C 20 %
1018 03-05-2019 11:35:17 11.2 C 20 %
1019 03-05-2019 11:47:17 12.3 C 20 %
1020 03-05-2019 11:59:17 11.4 C 20 %
1021 03-05-2019 12:11:17 11.4 C 20 %
1022 03-05-2019 12:23:17 11.7 C 20 %
1023 03-05-2019 12:35:17 12.6 C 20 %
1024 03-05-2019 12:47:17 12.6 C 20 %
1025 03-05-2019 12:59:18 12.7 C 20 %
Sensor: Nr:Datum:Temp:Feuchte:
Aussen-T/F 1026 03-05-2019 13:11:17 12.2 C 20 %
1027 03-05-2019 13:23:17 13.1 C 20 %
1028 03-05-2019 13:35:18 13.1 C 20 %
1029 03-05-2019 13:47:17 12.7 C 20 %
1030 03-05-2019 13:59:17 13.8 C 20 %
1031 03-05-2019 14:11:17 13 C 20 %
1032 03-05-2019 14:23:18 13.1 C 20 %
1033 03-05-2019 14:35:17 14.1 C 20 %
1034 03-05-2019 14:47:17 14.9 C 20 %
1035 03-05-2019 14:59:17 13.6 C 20 %
1036 03-05-2019 15:11:17 14.7 C 20 %
1037 03-05-2019 15:23:18 14.6 C 20 %
1038 03-05-2019 15:35:17 14.9 C 20 %
1039 03-05-2019 15:47:17 16.2 C 20 %
1040 03-05-2019 15:59:17 16 C 20 %
1041 03-05-2019 16:11:17 16.2 C 20 %
1042 03-05-2019 16:23:17 16.2 C 20 %
1043 03-05-2019 16:35:17 14.9 C 20 %
1044 03-05-2019 16:47:17 15.9 C 20 %
1045 03-05-2019 16:59:17 15.7 C 20 %
1046 03-05-2019 17:11:17 15 C 20 %
1047 03-05-2019 17:23:17 14.4 C 20 %
1048 03-05-2019 17:35:17 14.2 C 20 %
1049 03-05-2019 17:47:17 14.2 C 20 %
1050 03-05-2019 17:59:17 14.2 C 20 %
Sensor: Nr:Datum:Temp:Feuchte:
Aussen-T/F 1051 03-05-2019 18:11:17 15.1 C 20 %
1052 03-05-2019 18:23:17 14.6 C 20 %
1053 03-05-2019 18:35:17 14.7 C 20 %
1054 03-05-2019 18:47:17 14.1 C 20 %
1055 03-05-2019 18:59:17 13.4 C 20 %
1056 03-05-2019 19:11:18 12.7 C 20 %
1057 03-05-2019 19:23:17 12.8 C 20 %
1058 03-05-2019 19:35:17 12.6 C 20 %
1059 03-05-2019 19:47:17 12.1 C 20 %
1060 03-05-2019 19:59:17 11.9 C 20 %
1061 03-05-2019 20:11:18 11.7 C 20 %
1062 03-05-2019 20:23:17 11.6 C 20 %
1063 03-05-2019 20:35:17 11.1 C 20 %
1064 03-05-2019 20:47:17 11.1 C 20 %
1065 03-05-2019 20:59:17 10.1 C 20 %
1066 03-05-2019 21:11:17 10 C 20 %
1067 03-05-2019 21:23:17 9.9 C 20 %
1068 03-05-2019 21:35:18 9.9 C 20 %
1069 03-05-2019 21:47:17 9.9 C 20 %
1070 03-05-2019 21:59:17 9.8 C 20 %
1071 03-05-2019 22:11:17 9.6 C 20 %
1072 03-05-2019 22:23:17 9.5 C 20 %
1073 03-05-2019 22:35:17 9.1 C 20 %
1074 03-05-2019 22:47:17 8.9 C 20 %
1075 03-05-2019 22:59:17 8.8 C 20 %
Sensor: Nr:Datum:Temp:Feuchte:
Aussen-T/F 1076 03-05-2019 23:11:17 8.7 C 20 %
1077 03-05-2019 23:23:17 8.3 C 21 %
1078 03-05-2019 23:35:17 8.1 C 26 %
1079 03-05-2019 23:47:17 8.1 C 26 %
1080 03-05-2019 23:59:17 8.1 C 26 %
1081 04-05-2019 00:11:17 8.1 C 27 %
1082 04-05-2019 00:23:17 7.9 C 28 %
1083 04-05-2019 00:35:17 7.8 C 29 %
1084 04-05-2019 00:47:17 7.6 C 30 %
1085 04-05-2019 00:59:17 7.5 C 30 %
1086 04-05-2019 01:11:17 7.5 C 30 %
1087 04-05-2019 01:23:18 7.5 C 30 %
1088 04-05-2019 01:35:17 7.5 C 31 %
1089 04-05-2019 01:47:17 7.4 C 30 %
1090 04-05-2019 01:59:17 7.4 C 30 %
1091 04-05-2019 02:11:17 7.5 C 30 %
1092 04-05-2019 02:23:18 7.7 C 30 %
1093 04-05-2019 02:35:17 7.6 C 30 %
1094 04-05-2019 02:47:17 7.4 C 30 %
1095 04-05-2019 02:59:17 7.2 C 34 %
1096 04-05-2019 03:11:17 7.1 C 35 %
1097 04-05-2019 03:23:17 7.2 C 35 %
1098 04-05-2019 03:35:17 7.3 C 35 %
1099 04-05-2019 03:47:17 7 C 36 %
1100 04-05-2019 03:59:17 7 C 40 %
Sensor: Nr:Datum:Temp:Feuchte:
Aussen-T/F 1101 04-05-2019 04:11:18 6.9 C 43 %
1102 04-05-2019 04:23:17 7 C 44 %
1103 04-05-2019 04:35:17 7 C 44 %
1104 04-05-2019 04:47:17 6.3 C 48 %
1105 04-05-2019 04:59:17 5.3 C 47 %
1106 04-05-2019 05:11:17 4.8 C 47 %
1107 04-05-2019 05:23:17 4.3 C 47 %
1108 04-05-2019 05:35:17 4 C 48 %
1109 04-05-2019 05:47:17 3.9 C 49 %
1110 04-05-2019 05:59:17 3.7 C 49 %
1111 04-05-2019 06:11:17 3.4 C 49 %
1112 04-05-2019 06:23:17 3.3 C 49 %
1113 04-05-2019 06:35:17 3.1 C 49 %
1114 04-05-2019 06:47:17 3 C 50 %
1115 04-05-2019 06:59:17 2.9 C 51 %
1116 04-05-2019 07:11:17 2.9 C 51 %
1117 04-05-2019 07:23:17 2.8 C 51 %
1118 04-05-2019 07:35:17 2.8 C 51 %
1119 04-05-2019 07:47:17 2.8 C 51 %
1120 04-05-2019 07:59:17 2.8 C 51 %
1121 04-05-2019 08:11:17 2.8 C 51 %
1122 04-05-2019 08:23:17 2.8 C 50 %
1123 04-05-2019 08:35:17 3 C 50 %
1124 04-05-2019 08:47:17 3.2 C 48 %
1125 04-05-2019 08:59:17 3.4 C 47 %
Sensor: Nr:Datum:Temp:Feuchte:
Aussen-T/F 1126 04-05-2019 09:11:18 3.6 C 47 %
1127 04-05-2019 09:23:17 3.8 C 44 %
1128 04-05-2019 09:35:17 4.2 C 43 %
1129 04-05-2019 09:47:17 4.2 C 43 %
1130 04-05-2019 09:59:17 4.5 C 40 %
1131 04-05-2019 10:11:17 4.7 C 37 %
1132 04-05-2019 10:23:17 4.8 C 35 %
1133 04-05-2019 10:35:17 5.4 C 32 %
1134 04-05-2019 10:47:17 5.3 C 32 %
1135 04-05-2019 10:59:17 5.1 C 31 %
1136 04-05-2019 11:11:17 5 C 32 %
1137 04-05-2019 11:23:18 5.1 C 31 %
1138 04-05-2019 11:35:17 5.7 C 31 %
1139 04-05-2019 11:47:17 5.9 C 30 %
1140 04-05-2019 11:59:17 5.8 C 28 %
1141 04-05-2019 12:11:18 5.8 C 30 %
1142 04-05-2019 12:23:17 6.8 C 27 %
1143 04-05-2019 12:35:17 6.8 C 25 %
1144 04-05-2019 12:47:18 7.2 C 20 %
1145 04-05-2019 12:59:18 7.2 C 20 %
1146 04-05-2019 13:11:17 7.1 C 20 %
1147 04-05-2019 13:23:17 7.8 C 20 %
1148 04-05-2019 13:35:17 8.2 C 20 %
1149 04-05-2019 13:47:18 8.5 C 20 %
1150 04-05-2019 13:59:18 8.5 C 20 %
Sensor: Nr:Datum:Temp:Feuchte:
Aussen-T/F 1151 04-05-2019 14:11:17 8.2 C 21 %
1152 04-05-2019 14:23:18 9 C 20 %
1153 04-05-2019 14:35:17 9.1 C 20 %
1154 04-05-2019 14:47:17 4.2 C 26 %
1155 04-05-2019 14:59:17 2.5 C 39 %
1156 04-05-2019 15:11:17 3.3 C 47 %
1157 04-05-2019 15:23:17 3.3 C 47 %
1158 04-05-2019 15:35:17 5.6 C 43 %
1159 04-05-2019 15:47:17 7.2 C 25 %
1160 04-05-2019 15:59:17 8.6 C 26 %
1161 04-05-2019 16:11:17 9 C 20 %
1162 04-05-2019 16:23:17 6.8 C 28 %
1163 04-05-2019 16:35:17 6.9 C 32 %
1164 04-05-2019 16:47:17 7.8 C 33 %
1165 04-05-2019 16:59:17 9.1 C 28 %
1166 04-05-2019 17:11:17 10.2 C 20 %
1167 04-05-2019 17:23:17 9.7 C 25 %
1168 04-05-2019 17:35:18 9.5 C 25 %
1169 04-05-2019 17:47:17 11.4 C 20 %
1170 04-05-2019 17:59:17 11.2 C 20 %
1171 04-05-2019 18:11:17 10.4 C 20 %
1172 04-05-2019 18:23:17 10.5 C 20 %
1173 04-05-2019 18:35:18 9.5 C 20 %
1174 04-05-2019 18:47:17 10 C 20 %
1175 04-05-2019 18:59:17 11.3 C 20 %
Sensor: Nr:Datum:Temp:Feuchte:
Aussen-T/F 1176 04-05-2019 19:11:17 9.7 C 20 %
1177 04-05-2019 19:23:17 9.4 C 20 %
1178 04-05-2019 19:35:17 8.5 C 20 %
1179 04-05-2019 19:47:17 7.5 C 20 %
1180 04-05-2019 19:59:17 7.6 C 20 %
1181 04-05-2019 20:11:18 7.4 C 20 %
1182 04-05-2019 20:23:17 7.1 C 20 %
1183 04-05-2019 20:35:18 6.7 C 20 %
1184 04-05-2019 20:47:17 6.6 C 21 %
1185 04-05-2019 20:59:17 6.3 C 23 %
1186 04-05-2019 21:11:17 6.4 C 23 %
1187 04-05-2019 21:23:17 6.4 C 20 %
1188 04-05-2019 21:35:17 6 C 25 %
1189 04-05-2019 21:47:17 5.7 C 30 %
1190 04-05-2019 21:59:17 5.1 C 31 %
1191 04-05-2019 22:11:17 4.9 C 32 %
1192 04-05-2019 22:23:17 4.5 C 34 %
1193 04-05-2019 22:35:17 3.9 C 37 %
1194 04-05-2019 22:47:17 3.6 C 39 %
1195 04-05-2019 22:59:17 3.2 C 43 %
1196 04-05-2019 23:11:18 3.3 C 45 %
1197 04-05-2019 23:23:17 3.2 C 45 %
1198 04-05-2019 23:35:17 3.1 C 45 %
1199 04-05-2019 23:47:17 3.2 C 46 %
1200 04-05-2019 23:59:17 3.1 C 47 %
Sensor: Nr:Datum:Temp:Feuchte:
Aussen-T/F 1201 05-05-2019 00:11:17 3 C 47 %
1202 05-05-2019 00:23:17 3.1 C 48 %
1203 05-05-2019 00:35:17 3.3 C 49 %
1204 05-05-2019 00:47:17 3.1 C 47 %
1205 05-05-2019 00:59:17 3.2 C 48 %
1206 05-05-2019 01:11:17 3 C 47 %
1207 05-05-2019 01:23:17 3.6 C 50 %
1208 05-05-2019 01:35:18 3.7 C 48 %
1209 05-05-2019 01:47:17 3.6 C 47 %
1210 05-05-2019 01:59:17 3.4 C 46 %
1211 05-05-2019 02:11:17 2.7 C 47 %
1212 05-05-2019 02:23:17 2.6 C 49 %
1213 05-05-2019 02:35:17 2.8 C 51 %
1214 05-05-2019 02:47:17 2.6 C 51 %
1215 05-05-2019 02:59:17 2.7 C 51 %
1216 05-05-2019 03:11:17 3.1 C 52 %
1217 05-05-2019 03:23:17 3.6 C 51 %
1218 05-05-2019 03:35:17 3.5 C 49 %
1219 05-05-2019 03:47:17 3.6 C 48 %
1220 05-05-2019 03:59:17 3.3 C 46 %
1221 05-05-2019 04:11:17 3.3 C 46 %
1222 05-05-2019 04:23:17 3.3 C 46 %
1223 05-05-2019 04:35:17 3.1 C 45 %
1224 05-05-2019 04:47:17 3.2 C 45 %
1225 05-05-2019 04:59:17 3.1 C 43 %
Sensor: Nr:Datum:Temp:Feuchte:
Aussen-T/F 1226 05-05-2019 05:11:18 3.1 C 43 %
1227 05-05-2019 05:23:17 2.7 C 44 %
1228 05-05-2019 05:35:17 2.7 C 44 %
1229 05-05-2019 05:47:17 2.7 C 45 %
1230 05-05-2019 05:59:17 2.7 C 45 %
1231 05-05-2019 06:11:18 2.2 C 46 %
1232 05-05-2019 06:23:17 2 C 48 %
1233 05-05-2019 06:35:17 2 C 50 %
1234 05-05-2019 06:47:17 2 C 50 %
1235 05-05-2019 06:59:17 1.9 C 51 %
1236 05-05-2019 07:11:17 1.7 C 51 %
1237 05-05-2019 07:23:18 1.8 C 52 %
1238 05-05-2019 07:35:17 2.2 C 52 %
1239 05-05-2019 07:47:17 3 C 52 %
1240 05-05-2019 07:59:17 2.9 C 51 %
1241 05-05-2019 08:11:17 3 C 47 %
1242 05-05-2019 08:23:17 3.3 C 45 %
1243 05-05-2019 08:35:18 3.6 C 41 %
1244 05-05-2019 08:47:17 4.1 C 38 %
1245 05-05-2019 08:59:17 4.4 C 36 %
1246 05-05-2019 09:11:17 4.6 C 35 %
1247 05-05-2019 09:23:18 5.7 C 30 %
1248 05-05-2019 09:35:17 5.5 C 27 %
1249 05-05-2019 09:47:17 5.5 C 28 %
1250 05-05-2019 09:59:17 5.5 C 28 %
Sensor: Nr:Datum:Temp:Feuchte:
Aussen-T/F 1251 05-05-2019 10:11:17 5.6 C 29 %
1252 05-05-2019 10:23:18 5.6 C 30 %
1253 05-05-2019 10:35:17 5.9 C 29 %
1254 05-05-2019 10:47:17 5.9 C 29 %
1255 05-05-2019 10:59:17 6.6 C 25 %
1256 05-05-2019 11:11:17 7 C 25 %
1257 05-05-2019 11:23:17 7.5 C 25 %
1258 05-05-2019 11:35:18 8.1 C 21 %
1259 05-05-2019 11:47:17 7.5 C 23 %
1260 05-05-2019 11:59:17 7.7 C 21 %
1261 05-05-2019 12:11:17 7.7 C 21 %
1262 05-05-2019 12:23:18 7.7 C 21 %
1263 05-05-2019 12:35:17 8.7 C 20 %
1264 05-05-2019 12:47:17 9 C 20 %
1265 05-05-2019 12:59:17 8.9 C 20 %
1266 05-05-2019 13:11:17 9.5 C 20 %
1267 05-05-2019 13:23:17 9.2 C 20 %
1268 05-05-2019 13:35:17 9.6 C 20 %
1269 05-05-2019 13:47:17 9.8 C 20 %
1270 05-05-2019 13:59:17 9.5 C 20 %
1271 05-05-2019 14:11:18 10.8 C 20 %
1272 05-05-2019 14:23:17 10.1 C 20 %
1273 05-05-2019 14:35:17 9.2 C 20 %
1274 05-05-2019 14:47:18 8.5 C 20 %
1275 05-05-2019 14:59:18 8.7 C 20 %
Sensor: Nr:Datum:Temp:Feuchte:
Aussen-T/F 1276 05-05-2019 15:11:17 10.3 C 20 %
1277 05-05-2019 15:23:17 11.2 C 20 %
1278 05-05-2019 15:35:18 12 C 20 %
1279 05-05-2019 15:47:17 11.1 C 20 %
1280 05-05-2019 15:59:17 11.3 C 20 %
1281 05-05-2019 16:11:17 11.8 C 20 %
1282 05-05-2019 16:23:17 12.1 C 20 %
1283 05-05-2019 16:35:17 13 C 20 %
1284 05-05-2019 16:47:17 14.1 C 20 %
1285 05-05-2019 16:59:17 11.5 C 20 %
1286 05-05-2019 17:11:18 11.9 C 20 %
1287 05-05-2019 17:23:17 12.7 C 20 %
1288 05-05-2019 17:35:17 14.1 C 20 %
1289 05-05-2019 17:47:17 14.2 C 20 %
1290 05-05-2019 17:59:17 14.4 C 20 %
1291 05-05-2019 18:11:17 13.2 C 20 %
1292 05-05-2019 18:23:17 10.4 C 20 %
1293 05-05-2019 18:35:17 10.8 C 20 %
1294 05-05-2019 18:47:17 11.1 C 20 %
1295 05-05-2019 18:59:17 10.4 C 20 %
1296 05-05-2019 19:11:17 10 C 20 %
1297 05-05-2019 19:23:17 9.8 C 20 %
1298 05-05-2019 19:35:17 9.8 C 20 %
1299 05-05-2019 19:47:17 9.7 C 20 %
1300 05-05-2019 19:59:18 9.6 C 20 %
Sensor: Nr:Datum:Temp:Feuchte:
Aussen-T/F 1301 05-05-2019 20:11:17 9.4 C 20 %
1302 05-05-2019 20:23:17 9.2 C 20 %
1303 05-05-2019 20:35:17 9 C 20 %
1304 05-05-2019 20:47:17 8.6 C 20 %
1305 05-05-2019 20:59:17 8.5 C 20 %
1306 05-05-2019 21:11:17 8.2 C 20 %
1307 05-05-2019 21:23:17 8 C 20 %
1308 05-05-2019 21:35:18 7.8 C 20 %
1309 05-05-2019 21:47:18 7.8 C 20 %
1310 05-05-2019 21:59:18 7.4 C 20 %
1311 05-05-2019 22:11:17 7 C 21 %
1312 05-05-2019 22:23:17 6.3 C 28 %
1313 05-05-2019 22:35:17 5.9 C 31 %
1314 05-05-2019 22:47:17 5.8 C 33 %
1315 05-05-2019 22:59:17 6 C 32 %
1316 05-05-2019 23:11:17 6 C 32 %
1317 05-05-2019 23:23:17 6 C 32 %
1318 05-05-2019 23:35:17 5.8 C 33 %
1319 05-05-2019 23:47:17 5.9 C 35 %
1320 05-05-2019 23:59:17 5.9 C 33 %
1321 06-05-2019 00:11:18 5.7 C 34 %
1322 06-05-2019 00:23:17 5.7 C 35 %
1323 06-05-2019 00:35:17 5.8 C 35 %
1324 06-05-2019 00:47:18 5.6 C 35 %
1325 06-05-2019 00:59:18 5.7 C 36 %
Sensor: Nr:Datum:Temp:Feuchte:
Aussen-T/F 1326 06-05-2019 01:11:17 5.7 C 37 %
1327 06-05-2019 01:23:17 5.6 C 38 %
1328 06-05-2019 01:35:17 5.2 C 37 %
1329 06-05-2019 01:47:17 5.2 C 36 %
1330 06-05-2019 01:59:17 5 C 37 %
1331 06-05-2019 02:11:17 4.5 C 38 %
1332 06-05-2019 02:23:18 4.2 C 40 %
1333 06-05-2019 02:35:17 4 C 42 %
1334 06-05-2019 02:47:17 3.8 C 45 %
1335 06-05-2019 02:59:17 3.7 C 46 %
1336 06-05-2019 03:11:17 3.6 C 46 %
1337 06-05-2019 03:23:17 3.5 C 46 %
1338 06-05-2019 03:35:17 3.4 C 47 %
1339 06-05-2019 03:47:18 3.5 C 47 %
1340 06-05-2019 03:59:18 3.3 C 47 %
1341 06-05-2019 04:11:17 3.2 C 47 %
1342 06-05-2019 04:23:17 2.7 C 48 %
1343 06-05-2019 04:35:17 2.5 C 49 %
1344 06-05-2019 04:47:17 2.7 C 51 %
1345 06-05-2019 04:59:17 2.6 C 51 %
1346 06-05-2019 05:11:17 2.3 C 51 %
1347 06-05-2019 05:23:17 2.2 C 51 %
1348 06-05-2019 05:35:17 2.1 C 51 %
1349 06-05-2019 05:47:17 1.9 C 52 %
1350 06-05-2019 05:59:17 1.8 C 53 %
Sensor: Nr:Datum:Temp:Feuchte:
Aussen-T/F 1351 06-05-2019 06:11:17 2.5 C 54 %
1352 06-05-2019 06:23:17 2.9 C 54 %
1353 06-05-2019 06:35:17 3.2 C 53 %
1354 06-05-2019 06:47:17 3.3 C 50 %
1355 06-05-2019 06:59:17 3.4 C 46 %
1356 06-05-2019 07:11:17 3.5 C 44 %
1357 06-05-2019 07:23:17 3.6 C 42 %
1358 06-05-2019 07:35:17 4.1 C 40 %
1359 06-05-2019 07:47:17 4 C 38 %
1360 06-05-2019 07:59:17 4.2 C 38 %
1361 06-05-2019 08:11:17 4.5 C 36 %
1362 06-05-2019 08:23:17 4.7 C 36 %
1363 06-05-2019 08:35:17 4.7 C 37 %
1364 06-05-2019 08:47:17 4.9 C 36 %
1365 06-05-2019 08:59:17 5.6 C 35 %
1366 06-05-2019 09:11:17 6.8 C 29 %
1367 06-05-2019 09:23:17 7 C 25 %
1368 06-05-2019 09:35:17 6.7 C 25 %
1369 06-05-2019 09:47:17 7.5 C 21 %
1370 06-05-2019 09:59:17 7.8 C 20 %
1371 06-05-2019 10:11:17 8.2 C 20 %
1372 06-05-2019 10:23:17 8.4 C 20 %
1373 06-05-2019 10:35:17 8.8 C 20 %
1374 06-05-2019 10:47:17 10.3 C 20 %
1375 06-05-2019 10:59:18 11.4 C 20 %
Sensor: Nr:Datum:Temp:Feuchte:
Aussen-T/F 1376 06-05-2019 11:11:17 11.7 C 20 %
1377 06-05-2019 11:23:18 9.5 C 20 %
1378 06-05-2019 11:35:17 9.4 C 20 %
1379 06-05-2019 11:47:18 9.9 C 20 %
1380 06-05-2019 11:59:18 9.9 C 20 %
1381 06-05-2019 12:11:17 10.6 C 20 %
1382 06-05-2019 12:23:17 10.9 C 20 %
1383 06-05-2019 12:35:18 11.4 C 20 %
1384 06-05-2019 12:47:17 11.8 C 20 %
1385 06-05-2019 12:59:17 11.2 C 20 %
1386 06-05-2019 13:11:17 11.4 C 20 %
1387 06-05-2019 13:23:17 12.1 C 20 %
1388 06-05-2019 13:35:17 12 C 20 %
1389 06-05-2019 13:47:17 12.3 C 20 %
1390 06-05-2019 13:59:17 11.8 C 20 %
1391 06-05-2019 14:11:18 12.3 C 20 %
1392 06-05-2019 14:23:17 12.6 C 20 %
1393 06-05-2019 14:35:18 12 C 20 %
1394 06-05-2019 14:47:17 11.9 C 20 %
1395 06-05-2019 14:59:17 12.1 C 20 %
1396 06-05-2019 15:11:17 12.5 C 20 %
1397 06-05-2019 15:23:17 12.2 C 20 %
1398 06-05-2019 15:35:17 11.5 C 20 %
1399 06-05-2019 15:47:17 11.8 C 20 %
1400 06-05-2019 15:59:17 11.8 C 20 %
Sensor: Nr:Datum:Temp:Feuchte:
Aussen-T/F 1401 06-05-2019 16:11:17 11.8 C 20 %
1402 06-05-2019 16:23:17 12 C 20 %
1403 06-05-2019 16:35:18 11.4 C 20 %
1404 06-05-2019 16:47:17 11.1 C 20 %
1405 06-05-2019 16:59:17 11.1 C 20 %
1406 06-05-2019 17:11:17 11.1 C 20 %
1407 06-05-2019 17:23:17 11 C 20 %
1408 06-05-2019 17:35:18 10.9 C 20 %
1409 06-05-2019 17:47:17 10.7 C 20 %
1410 06-05-2019 17:59:17 10.5 C 20 %
1411 06-05-2019 18:11:17 11.5 C 20 %
1412 06-05-2019 18:23:17 11.7 C 20 %
1413 06-05-2019 18:35:17 11.4 C 20 %
1414 06-05-2019 18:47:17 11.5 C 20 %
1415 06-05-2019 18:59:17 11.1 C 20 %
1416 06-05-2019 19:11:17 10.6 C 20 %
1417 06-05-2019 19:23:17 10.1 C 20 %
1418 06-05-2019 19:35:17 9.5 C 20 %
1419 06-05-2019 19:47:17 9.3 C 20 %
1420 06-05-2019 19:59:17 9 C 20 %
1421 06-05-2019 20:11:17 8.5 C 21 %
1422 06-05-2019 20:23:18 8.7 C 20 %
1423 06-05-2019 20:35:17 8.3 C 21 %
1424 06-05-2019 20:47:17 8 C 27 %
1425 06-05-2019 20:59:17 8 C 27 %
Sensor: Nr:Datum:Temp:Feuchte:
Aussen-T/F 1426 06-05-2019 21:11:17 7.8 C 27 %
1427 06-05-2019 21:23:17 7.8 C 27 %
1428 06-05-2019 21:35:17 7.7 C 28 %
1429 06-05-2019 21:47:17 7.6 C 30 %
1430 06-05-2019 21:59:17 7.5 C 31 %
1431 06-05-2019 22:11:17 7.3 C 31 %
1432 06-05-2019 22:23:17 7.2 C 32 %
1433 06-05-2019 22:35:18 7 C 38 %
1434 06-05-2019 22:47:17 7 C 37 %
1435 06-05-2019 22:59:17 6.9 C 37 %
1436 06-05-2019 23:11:17 7 C 36 %
1437 06-05-2019 23:23:17 7 C 35 %
1438 06-05-2019 23:35:18 7.1 C 35 %
1439 06-05-2019 23:47:17 7 C 35 %
1440 06-05-2019 23:59:17 6.9 C 37 %
1441 07-05-2019 00:11:18 6.9 C 36 %
1442 07-05-2019 00:23:17 7 C 37 %
1443 07-05-2019 00:35:17 6.9 C 38 %
1444 07-05-2019 00:47:17 6.8 C 39 %
1445 07-05-2019 00:59:17 6.7 C 40 %
1446 07-05-2019 01:11:18 6.6 C 40 %
1447 07-05-2019 01:23:18 6.5 C 41 %
1448 07-05-2019 01:35:17 6.4 C 42 %
1449 07-05-2019 01:47:17 6.3 C 42 %
1450 07-05-2019 01:59:17 6.3 C 43 %
Sensor: Nr:Datum:Temp:Feuchte:
Aussen-T/F 1451 07-05-2019 02:11:17 6.3 C 43 %
1452 07-05-2019 02:23:17 6.3 C 42 %
1453 07-05-2019 02:35:17 6.3 C 42 %
1454 07-05-2019 02:47:17 6.3 C 42 %
1455 07-05-2019 02:59:17 6.3 C 42 %
1456 07-05-2019 03:11:17 6.3 C 42 %
1457 07-05-2019 03:23:17 6.3 C 42 %
1458 07-05-2019 03:35:18 6.2 C 41 %
1459 07-05-2019 03:47:17 6.1 C 41 %
1460 07-05-2019 03:59:17 6.1 C 41 %
1461 07-05-2019 04:11:17 6 C 41 %
1462 07-05-2019 04:23:17 6 C 41 %
1463 07-05-2019 04:35:17 5.9 C 42 %
1464 07-05-2019 04:47:17 5.9 C 42 %
1465 07-05-2019 04:59:17 5.9 C 43 %
1466 07-05-2019 05:11:17 5.8 C 43 %
1467 07-05-2019 05:23:18 5.7 C 43 %
1468 07-05-2019 05:35:17 5.5 C 45 %
1469 07-05-2019 05:47:17 5.6 C 45 %
1470 07-05-2019 05:59:17 5.6 C 45 %
1471 07-05-2019 06:11:17 5.6 C 45 %
1472 07-05-2019 06:23:17 5.3 C 46 %
1473 07-05-2019 06:35:18 5.3 C 46 %
1474 07-05-2019 06:47:17 5.6 C 46 %
1475 07-05-2019 06:59:17 5.7 C 46 %
Sensor: Nr:Datum:Temp:Feuchte:
Aussen-T/F 1476 07-05-2019 07:11:17 6 C 46 %
1477 07-05-2019 07:23:17 6.4 C 44 %
1478 07-05-2019 07:35:17 6.8 C 41 %
1479 07-05-2019 07:47:17 6.9 C 38 %
1480 07-05-2019 07:59:17 7 C 36 %
1481 07-05-2019 08:11:17 7.3 C 35 %
1482 07-05-2019 08:23:17 7.4 C 34 %
1483 07-05-2019 08:35:17 7.6 C 34 %
1484 07-05-2019 08:47:17 7.9 C 32 %
1485 07-05-2019 08:59:17 8.3 C 30 %
1486 07-05-2019 09:11:17 8.5 C 30 %
1487 07-05-2019 09:23:17 8.9 C 29 %
1488 07-05-2019 09:35:17 9.1 C 25 %
1489 07-05-2019 09:47:17 9.4 C 21 %
1490 07-05-2019 09:59:17 9.7 C 20 %
1491 07-05-2019 10:11:18 9.8 C 20 %
1492 07-05-2019 10:23:17 10 C 20 %
1493 07-05-2019 10:35:17 10.5 C 20 %
1494 07-05-2019 10:47:18 10.9 C 20 %
1495 07-05-2019 10:59:18 10.4 C 20 %
1496 07-05-2019 11:11:17 10.7 C 20 %
1497 07-05-2019 11:23:17 11.7 C 20 %
1498 07-05-2019 11:35:17 11.9 C 20 %
1499 07-05-2019 11:47:17 12.3 C 20 %
1500 07-05-2019 11:59:17 12.5 C 20 %
Sensor: Nr:Datum:Temp:Feuchte:
Aussen-T/F 1501 07-05-2019 12:11:17 13 C 20 %
1502 07-05-2019 12:23:17 13 C 20 %
1503 07-05-2019 12:35:17 13.1 C 20 %
1504 07-05-2019 12:47:17 13.2 C 20 %
1505 07-05-2019 12:59:17 12.4 C 20 %
1506 07-05-2019 13:11:17 12.4 C 20 %
1507 07-05-2019 13:23:17 12.6 C 20 %
1508 07-05-2019 13:35:17 13.1 C 20 %
1509 07-05-2019 13:47:17 14 C 20 %
1510 07-05-2019 13:59:17 14.3 C 20 %
1511 07-05-2019 14:11:18 14.1 C 20 %
1512 07-05-2019 14:23:17 13.4 C 20 %
1513 07-05-2019 14:35:18 14 C 20 %
1514 07-05-2019 14:47:17 13.7 C 20 %
1515 07-05-2019 14:59:17 13.2 C 20 %
1516 07-05-2019 15:11:17 13.2 C 20 %
1517 07-05-2019 15:23:17 13.7 C 20 %
1518 07-05-2019 15:35:17 14.3 C 20 %
1519 07-05-2019 15:47:17 14.4 C 20 %
1520 07-05-2019 15:59:17 14.7 C 20 %
1521 07-05-2019 16:11:18 14.5 C 20 %
1522 07-05-2019 16:23:17 14.4 C 20 %
1523 07-05-2019 16:35:17 14.9 C 20 %
1524 07-05-2019 16:47:17 15.3 C 20 %
1525 07-05-2019 16:59:18 15.2 C 20 %
Sensor: Nr:Datum:Temp:Feuchte:
Aussen-T/F 1526 07-05-2019 17:11:17 15.2 C 20 %
1527 07-05-2019 17:23:17 15.5 C 20 %
1528 07-05-2019 17:35:17 14.9 C 20 %
1529 07-05-2019 17:47:18 15.2 C 20 %
1530 07-05-2019 17:59:18 15.3 C 20 %
1531 07-05-2019 18:11:17 15.3 C 20 %
1532 07-05-2019 18:23:17 15.2 C 20 %
1533 07-05-2019 18:35:17 15.6 C 20 %
1534 07-05-2019 18:47:17 14.6 C 20 %
1535 07-05-2019 18:59:17 13.7 C 20 %
1536 07-05-2019 19:11:17 13.2 C 20 %
1537 07-05-2019 19:23:18 13 C 20 %
1538 07-05-2019 19:35:17 12.8 C 20 %
1539 07-05-2019 19:47:17 12 C 20 %
1540 07-05-2019 19:59:17 11.8 C 20 %
1541 07-05-2019 20:11:18 11.2 C 20 %
1542 07-05-2019 20:23:17 11.2 C 20 %
1543 07-05-2019 20:35:17 9.9 C 20 %
1544 07-05-2019 20:47:17 9.4 C 20 %
1545 07-05-2019 20:59:17 9.2 C 20 %
1546 07-05-2019 21:11:18 9.2 C 20 %
1547 07-05-2019 21:23:17 8.1 C 20 %
1548 07-05-2019 21:35:17 7.9 C 20 %
1549 07-05-2019 21:47:17 7.9 C 20 %
1550 07-05-2019 21:59:17 7.9 C 20 %
Sensor: Nr:Datum:Temp:Feuchte:
Aussen-T/F 1551 07-05-2019 22:11:18 7.5 C 20 %
1552 07-05-2019 22:23:17 7.3 C 20 %
1553 07-05-2019 22:35:17 7.2 C 20 %
1554 07-05-2019 22:47:17 7.2 C 20 %
1555 07-05-2019 22:59:17 6.5 C 27 %
1556 07-05-2019 23:11:18 6.3 C 29 %
1557 07-05-2019 23:23:17 6 C 31 %
1558 07-05-2019 23:35:17 5.9 C 32 %
1559 07-05-2019 23:47:17 5.9 C 32 %
1560 07-05-2019 23:59:18 6.1 C 33 %
1561 08-05-2019 00:11:17 5.6 C 34 %
1562 08-05-2019 00:23:17 5.6 C 34 %
1563 08-05-2019 00:35:18 5.7 C 35 %
1564 08-05-2019 00:47:17 5.7 C 34 %
1565 08-05-2019 00:59:17 5.7 C 34 %
1566 08-05-2019 01:11:17 5.7 C 34 %
1567 08-05-2019 01:23:17 5 C 35 %
1568 08-05-2019 01:35:17 4.8 C 37 %
1569 08-05-2019 01:47:17 4.8 C 37 %
1570 08-05-2019 01:59:17 4.8 C 37 %
1571 08-05-2019 02:11:17 4.5 C 39 %
1572 08-05-2019 02:23:17 4.5 C 40 %
1573 08-05-2019 02:35:18 4.5 C 40 %
1574 08-05-2019 02:47:17 4.4 C 41 %
1575 08-05-2019 02:59:17 4.2 C 41 %
Sensor: Nr:Datum:Temp:Feuchte:
Aussen-T/F 1576 08-05-2019 03:11:17 4 C 42 %
1577 08-05-2019 03:23:17 4 C 43 %
1578 08-05-2019 03:35:17 4 C 43 %
1579 08-05-2019 03:47:17 4.1 C 45 %
1580 08-05-2019 03:59:17 4.2 C 45 %
1581 08-05-2019 04:11:17 4.2 C 45 %
1582 08-05-2019 04:23:17 4.6 C 45 %
1583 08-05-2019 04:35:17 4.7 C 45 %
1584 08-05-2019 04:47:17 4.7 C 45 %
1585 08-05-2019 04:59:17 4.9 C 44 %
1586 08-05-2019 05:11:17 5 C 42 %
1587 08-05-2019 05:23:17 5 C 42 %
1588 08-05-2019 05:35:17 5 C 43 %
1589 08-05-2019 05:47:17 5.1 C 43 %
1590 08-05-2019 05:59:17 5.1 C 43 %
1591 08-05-2019 06:11:18 5.2 C 43 %
1592 08-05-2019 06:23:17 5.3 C 42 %
1593 08-05-2019 06:35:17 5.4 C 42 %
1594 08-05-2019 06:47:17 5.7 C 41 %
1595 08-05-2019 06:59:17 6 C 39 %
1596 08-05-2019 07:11:17 6 C 39 %
1597 08-05-2019 07:23:17 6.2 C 36 %
1598 08-05-2019 07:35:17 6.4 C 35 %
1599 08-05-2019 07:47:17 6.6 C 35 %
1600 08-05-2019 07:59:18 7 C 33 %
Sensor: Nr:Datum:Temp:Feuchte:
Aussen-T/F 1601 08-05-2019 08:11:17 7 C 33 %
1602 08-05-2019 08:23:17 7 C 36 %
1603 08-05-2019 08:35:17 7.2 C 38 %
1604 08-05-2019 08:47:17 7.2 C 38 %
1605 08-05-2019 08:59:17 8 C 29 %
1606 08-05-2019 09:11:17 8.1 C 28 %
1607 08-05-2019 09:23:17 8.2 C 29 %
1608 08-05-2019 09:35:18 8.1 C 28 %
1609 08-05-2019 09:47:17 7.8 C 31 %
1610 08-05-2019 09:59:17 7.8 C 31 %
1611 08-05-2019 10:11:17 8 C 36 %
1612 08-05-2019 10:23:17 8.3 C 37 %
1613 08-05-2019 10:35:17 8.3 C 37 %
1614 08-05-2019 10:47:17 8.7 C 37 %
1615 08-05-2019 10:59:17 8.7 C 37 %
1616 08-05-2019 11:11:17 8.9 C 40 %
1617 08-05-2019 11:23:18 8.9 C 40 %
1618 08-05-2019 11:35:17 9.2 C 41 %
1619 08-05-2019 11:47:17 9.2 C 41 %
1620 08-05-2019 11:59:17 10.3 C 36 %
1621 08-05-2019 12:11:17 11.2 C 34 %
1622 08-05-2019 12:23:17 11.6 C 33 %
1623 08-05-2019 12:35:17 12.1 C 28 %
1624 08-05-2019 12:47:17 12.9 C 28 %
1625 08-05-2019 12:59:17 13.4 C 25 %
Sensor: Nr:Datum:Temp:Feuchte:
Aussen-T/F 1626 08-05-2019 13:11:18 13.4 C 25 %
1627 08-05-2019 13:23:17 14.6 C 21 %
1628 08-05-2019 13:35:17 14.6 C 21 %
1629 08-05-2019 13:47:17 14.6 C 21 %
1630 08-05-2019 13:59:17 15.5 C 20 %
1631 08-05-2019 14:11:17 15.4 C 20 %
1632 08-05-2019 14:23:17 15.4 C 20 %
1633 08-05-2019 14:35:18 15.2 C 20 %
1634 08-05-2019 14:47:17 15.2 C 20 %
1635 08-05-2019 14:59:17 15.5 C 20 %
1636 08-05-2019 15:11:17 14.9 C 20 %
1637 08-05-2019 15:23:17 14.9 C 20 %
1638 08-05-2019 15:35:18 14.7 C 20 %
1639 08-05-2019 15:47:17 14.7 C 21 %
1640 08-05-2019 15:59:17 13.6 C 28 %
1641 08-05-2019 16:11:17 13.2 C 34 %
1642 08-05-2019 16:23:17 13.2 C 34 %
1643 08-05-2019 16:35:17 12.7 C 39 %
1644 08-05-2019 16:47:17 12.2 C 41 %
1645 08-05-2019 16:59:17 12.2 C 42 %
1646 08-05-2019 17:11:17 12.2 C 44 %
1647 08-05-2019 17:23:17 12.1 C 45 %
1648 08-05-2019 17:35:17 12 C 45 %
1649 08-05-2019 17:47:18 12 C 45 %
1650 08-05-2019 17:59:18 11.9 C 46 %
Sensor: Nr:Datum:Temp:Feuchte:
Aussen-T/F 1651 08-05-2019 18:11:17 11.9 C 46 %
1652 08-05-2019 18:23:17 12 C 45 %
1653 08-05-2019 18:35:17 12 C 47 %
1654 08-05-2019 18:47:17 12 C 48 %
1655 08-05-2019 18:59:17 12 C 48 %
1656 08-05-2019 19:11:17 12 C 48 %
1657 08-05-2019 19:23:18 11.7 C 48 %
1658 08-05-2019 19:35:17 11.6 C 49 %
1659 08-05-2019 19:47:17 11.5 C 50 %
1660 08-05-2019 19:59:17 11.5 C 51 %
1661 08-05-2019 20:11:17 11.3 C 51 %
1662 08-05-2019 20:23:17 11 C 51 %
1663 08-05-2019 20:35:17 10.9 C 52 %
1664 08-05-2019 20:47:17 10.9 C 52 %
1665 08-05-2019 20:59:17 10.6 C 52 %
1666 08-05-2019 21:11:17 10.5 C 55 %
1667 08-05-2019 21:23:17 10.4 C 57 %
1668 08-05-2019 21:35:17 10.2 C 58 %
1669 08-05-2019 21:47:17 9.7 C 54 %
1670 08-05-2019 21:59:17 9.7 C 58 %
1671 08-05-2019 22:11:17 9.7 C 58 %
1672 08-05-2019 22:23:17 9.5 C 60 %
1673 08-05-2019 22:35:17 9.6 C 60 %
1674 08-05-2019 22:47:17 9.5 C 50 %
1675 08-05-2019 22:59:17 9.5 C 45 %
Sensor: Nr:Datum:Temp:Feuchte:
Aussen-T/F 1676 08-05-2019 23:11:17 9.2 C 43 %
1677 08-05-2019 23:23:17 9.3 C 41 %
1678 08-05-2019 23:35:18 9.1 C 40 %
1679 08-05-2019 23:47:17 9.1 C 41 %
1680 08-05-2019 23:59:17 8.8 C 44 %
1681 09-05-2019 00:11:17 8.4 C 45 %
1682 09-05-2019 00:23:18 8.3 C 45 %
1683 09-05-2019 00:35:17 8.3 C 45 %
1684 09-05-2019 00:47:17 8.5 C 44 %
1685 09-05-2019 00:59:17 8.3 C 44 %
1686 09-05-2019 01:11:17 8.3 C 45 %
1687 09-05-2019 01:23:17 8.1 C 45 %
1688 09-05-2019 01:35:18 7.7 C 47 %
1689 09-05-2019 01:47:17 7.3 C 48 %
1690 09-05-2019 01:59:17 7 C 49 %
1691 09-05-2019 02:11:17 6.9 C 50 %
1692 09-05-2019 02:23:17 7 C 49 %
1693 09-05-2019 02:35:18 6.8 C 50 %
1694 09-05-2019 02:47:17 6.5 C 50 %
1695 09-05-2019 02:59:17 6.4 C 51 %
1696 09-05-2019 03:11:17 6.7 C 53 %
1697 09-05-2019 03:23:17 6.9 C 53 %
1698 09-05-2019 03:35:18 7 C 53 %
1699 09-05-2019 03:47:17 7 C 53 %
1700 09-05-2019 03:59:17 7.1 C 54 %
Sensor: Nr:Datum:Temp:Feuchte:
Aussen-T/F 1701 09-05-2019 04:11:17 7.3 C 56 %
1702 09-05-2019 04:23:17 7.4 C 53 %
1703 09-05-2019 04:35:18 7.3 C 50 %
1704 09-05-2019 04:47:17 7.3 C 49 %
1705 09-05-2019 04:59:17 7.3 C 49 %
1706 09-05-2019 05:11:17 7.3 C 49 %
1707 09-05-2019 05:23:17 7.4 C 50 %
1708 09-05-2019 05:35:17 7.4 C 49 %
1709 09-05-2019 05:47:17 7.4 C 49 %
1710 09-05-2019 05:59:17 6.8 C 48 %
1711 09-05-2019 06:11:18 6.4 C 48 %
1712 09-05-2019 06:23:17 6.5 C 50 %
1713 09-05-2019 06:35:17 7 C 52 %
1714 09-05-2019 06:47:17 7.6 C 56 %
1715 09-05-2019 06:59:17 8.1 C 59 %
1716 09-05-2019 07:11:17 8.5 C 59 %
1717 09-05-2019 07:23:17 8.6 C 53 %
1718 09-05-2019 07:35:18 9 C 43 %
1719 09-05-2019 07:47:17 8.9 C 42 %
1720 09-05-2019 07:59:17 8.8 C 42 %
1721 09-05-2019 08:11:17 9.8 C 40 %
1722 09-05-2019 08:23:17 10.5 C 33 %
1723 09-05-2019 08:35:17 10.8 C 30 %
1724 09-05-2019 08:47:17 11.1 C 28 %
1725 09-05-2019 08:59:17 11.4 C 30 %
Sensor: Nr:Datum:Temp:Feuchte:
Aussen-T/F 1726 09-05-2019 09:11:17 11.6 C 30 %
1727 09-05-2019 09:23:18 11.9 C 29 %
1728 09-05-2019 09:35:17 11.8 C 30 %
1729 09-05-2019 09:47:17 11.2 C 29 %
1730 09-05-2019 09:59:17 11.2 C 29 %
1731 09-05-2019 10:11:18 10.9 C 35 %
1732 09-05-2019 10:23:17 11.1 C 34 %
1733 09-05-2019 10:35:17 11.4 C 32 %
1734 09-05-2019 10:47:17 12.1 C 30 %
1735 09-05-2019 10:59:17 13 C 27 %
1736 09-05-2019 11:11:18 13.3 C 25 %
1737 09-05-2019 11:23:17 13.8 C 25 %
1738 09-05-2019 11:35:17 14 C 23 %
1739 09-05-2019 11:47:17 14.4 C 22 %
1740 09-05-2019 11:59:17 13.5 C 25 %
1741 09-05-2019 12:11:18 13.5 C 25 %
1742 09-05-2019 12:23:17 13.3 C 25 %
1743 09-05-2019 12:35:17 13.2 C 29 %
1744 09-05-2019 12:47:17 13 C 30 %
1745 09-05-2019 12:59:17 13 C 29 %
1746 09-05-2019 13:11:17 13.2 C 29 %
1747 09-05-2019 13:23:17 13.8 C 25 %
1748 09-05-2019 13:35:18 14.1 C 23 %
1749 09-05-2019 13:47:17 14.4 C 23 %
1750 09-05-2019 13:59:17 14.8 C 22 %
Sensor: Nr:Datum:Temp:Feuchte:
Aussen-T/F 1751 09-05-2019 14:11:17 14.2 C 21 %
1752 09-05-2019 14:23:17 14 C 20 %
1753 09-05-2019 14:35:18 13.8 C 21 %
1754 09-05-2019 14:47:17 13.5 C 21 %
1755 09-05-2019 14:59:17 13.7 C 22 %
1756 09-05-2019 15:11:17 13.9 C 23 %
1757 09-05-2019 15:23:17 13.3 C 25 %
1758 09-05-2019 15:35:17 13.5 C 26 %
1759 09-05-2019 15:47:17 13.7 C 27 %
1760 09-05-2019 15:59:17 14.3 C 25 %
1761 09-05-2019 16:11:17 14 C 22 %
1762 09-05-2019 16:23:17 14.5 C 21 %
1763 09-05-2019 16:35:17 14.7 C 20 %
1764 09-05-2019 16:47:17 15.2 C 20 %
1765 09-05-2019 16:59:18 15.3 C 20 %
1766 09-05-2019 17:11:17 14.8 C 20 %
1767 09-05-2019 17:23:17 14.8 C 20 %
1768 09-05-2019 17:35:17 13.6 C 26 %
1769 09-05-2019 17:47:17 14.3 C 30 %
1770 09-05-2019 17:59:17 14.8 C 27 %
1771 09-05-2019 18:11:17 14.8 C 27 %
1772 09-05-2019 18:23:17 16 C 23 %
1773 09-05-2019 18:35:17 16.4 C 20 %
1774 09-05-2019 18:47:17 15.4 C 20 %
1775 09-05-2019 18:59:17 14.8 C 25 %
Sensor: Nr:Datum:Temp:Feuchte:
Aussen-T/F 1776 09-05-2019 19:11:17 14.5 C 26 %
1777 09-05-2019 19:23:17 15.1 C 22 %
1778 09-05-2019 19:35:17 15.3 C 22 %
1779 09-05-2019 19:47:17 14.3 C 25 %
1780 09-05-2019 19:59:17 13.7 C 31 %
1781 09-05-2019 20:11:17 13.3 C 31 %
1782 09-05-2019 20:23:17 13 C 34 %
1783 09-05-2019 20:35:18 12.8 C 35 %
1784 09-05-2019 20:47:17 12.4 C 37 %
1785 09-05-2019 20:59:17 12.5 C 37 %
1786 09-05-2019 21:11:17 11 C 41 %
1787 09-05-2019 21:23:17 10.7 C 47 %
1788 09-05-2019 21:35:17 10.5 C 48 %
1789 09-05-2019 21:47:17 10.4 C 49 %
1790 09-05-2019 21:59:17 10.4 C 49 %
1791 09-05-2019 22:11:18 10.4 C 50 %
1792 09-05-2019 22:23:17 10.4 C 50 %
1793 09-05-2019 22:35:17 10.4 C 50 %
1794 09-05-2019 22:47:17 10.3 C 50 %
1795 09-05-2019 22:59:17 10.3 C 50 %
1796 09-05-2019 23:11:17 10.3 C 52 %
1797 09-05-2019 23:23:17 10.3 C 52 %
1798 09-05-2019 23:35:17 10.2 C 52 %
1799 09-05-2019 23:59:17 10.3 C 50 %
1800 09-05-2019 23:59:17 10.2 C 48 %
Sensor: Nr:Datum:Temp:Feuchte:
Aussen-T/F 1801 10-05-2019 00:11:17 10.2 C 48 %
1802 10-05-2019 00:23:17 10.1 C 48 %
1803 10-05-2019 00:35:17 10 C 47 %
1804 10-05-2019 00:47:17 9.9 C 48 %
1805 10-05-2019 00:59:17 9.9 C 48 %
1806 10-05-2019 01:11:17 9 C 48 %
1807 10-05-2019 01:23:17 9 C 48 %
1808 10-05-2019 01:35:18 8.9 C 53 %
1809 10-05-2019 01:47:17 8.7 C 53 %
1810 10-05-2019 01:59:17 8.3 C 54 %
1811 10-05-2019 02:11:17 8.2 C 58 %
1812 10-05-2019 02:23:17 8.2 C 62 %
1813 10-05-2019 02:35:18 8.2 C 63 %
1814 10-05-2019 02:47:17 8.2 C 63 %
1815 10-05-2019 02:59:17 7.6 C 60 %
1816 10-05-2019 03:11:17 7.3 C 59 %
1817 10-05-2019 03:23:17 7 C 59 %
1818 10-05-2019 03:35:18 7.2 C 63 %
1819 10-05-2019 03:59:17 7.2 C 63 %
1820 10-05-2019 04:00:17 8.2 C 69 %
1821 10-05-2019 04:12:17 8.1 C 70 %
1822 10-05-2019 04:24:17 8.3 C 70 %
1823 10-05-2019 04:36:17 8.4 C 70 %
1824 10-05-2019 04:48:17 8.2 C 68 %
1825 10-05-2019 05:00:18 8 C 66 %
Sensor: Nr:Datum:Temp:Feuchte:
Aussen-T/F 1826 10-05-2019 05:12:18 8 C 66 %
1827 10-05-2019 05:24:17 7.8 C 65 %
1828 10-05-2019 05:36:17 7.8 C 54 %
1829 10-05-2019 05:48:18 8.2 C 47 %
1830 10-05-2019 06:00:17 8.5 C 42 %
1831 10-05-2019 06:12:17 8.5 C 38 %
1832 10-05-2019 06:24:17 8.5 C 37 %
1833 10-05-2019 06:36:18 8.5 C 37 %
1834 10-05-2019 06:48:17 8.5 C 37 %
1835 10-05-2019 07:00:17 8.4 C 41 %
1836 10-05-2019 07:12:17 8.6 C 41 %
1837 10-05-2019 07:24:17 8.6 C 41 %
1838 10-05-2019 07:36:17 8.7 C 39 %
1839 10-05-2019 07:48:17 8.7 C 40 %
1840 10-05-2019 08:00:17 8.9 C 37 %
1841 10-05-2019 08:12:17 8.8 C 40 %
1842 10-05-2019 08:24:17 8.9 C 38 %
1843 10-05-2019 08:36:17 9.2 C 36 %
1844 10-05-2019 08:48:17 9.6 C 35 %
1845 10-05-2019 09:00:17 10.7 C 31 %
1846 10-05-2019 09:12:17 10.8 C 30 %
1847 10-05-2019 09:24:17 10.8 C 29 %
1848 10-05-2019 09:36:17 10.8 C 29 %
1849 10-05-2019 09:48:17 10.8 C 29 %
1850 10-05-2019 10:00:16 12.1 C 26 %
Sensor: Nr:Datum:Temp:Feuchte:
Aussen-T/F 1851 10-05-2019 10:12:16 12.2 C 25 %
1852 10-05-2019 10:24:17 12.4 C 24 %
1853 10-05-2019 10:36:17 13.1 C 21 %
1854 10-05-2019 10:48:17 13.1 C 20 %
1855 10-05-2019 11:00:17 13.1 C 20 %
1856 10-05-2019 11:12:17 13.1 C 20 %
1857 10-05-2019 11:24:17 16.7 C 20 %
1858 10-05-2019 11:36:17 15.1 C 20 %
1859 10-05-2019 11:48:16 15.3 C 20 %
1860 10-05-2019 12:00:16 15.3 C 20 %
1861 10-05-2019 12:12:16 14 C 20 %
1862 10-05-2019 12:24:17 13.9 C 20 %
1863 10-05-2019 12:36:17 14.4 C 20 %
1864 10-05-2019 12:48:17 15 C 20 %
1865 10-05-2019 13:00:17 15 C 20 %
1866 10-05-2019 13:12:17 15.5 C 20 %
1867 10-05-2019 13:24:16 15.5 C 20 %
1868 10-05-2019 13:36:17 15.8 C 20 %
1869 10-05-2019 13:48:16 16.6 C 20 %
1870 10-05-2019 14:00:16 16.6 C 20 %
1871 10-05-2019 14:12:16 17.5 C 20 %
1872 10-05-2019 14:24:17 17.3 C 20 %
1873 10-05-2019 14:36:16 18.1 C 20 %
1874 10-05-2019 14:48:17 18.1 C 20 %
1875 10-05-2019 15:00:16 18.1 C 20 %
Sensor: Nr:Datum:Temp:Feuchte:
Aussen-T/F 1876 10-05-2019 15:12:16 17 C 20 %
1877 10-05-2019 15:24:17 17.9 C 20 %
1878 10-05-2019 15:36:16 17.5 C 20 %
1879 10-05-2019 15:48:16 18.1 C 20 %
1880 10-05-2019 16:00:17 18.7 C 20 %
1881 10-05-2019 16:12:17 17.7 C 20 %
1882 10-05-2019 16:24:16 18 C 20 %
1883 10-05-2019 16:36:16 18 C 20 %
1884 10-05-2019 16:48:17 17.5 C 20 %
1885 10-05-2019 17:00:17 18 C 20 %
1886 10-05-2019 17:12:17 17.7 C 20 %
1887 10-05-2019 17:24:16 17.7 C 20 %
1888 10-05-2019 17:36:17 18 C 20 %
1889 10-05-2019 17:48:16 18.4 C 20 %
1890 10-05-2019 18:00:16 18.4 C 20 %
1891 10-05-2019 18:12:16 17 C 20 %
1892 10-05-2019 18:24:16 17.7 C 20 %
1893 10-05-2019 18:36:16 17.4 C 20 %
1894 10-05-2019 18:48:16 17.4 C 20 %
1895 10-05-2019 19:00:17 17.6 C 20 %
1896 10-05-2019 19:12:17 18.7 C 20 %
1897 10-05-2019 19:24:16 17.2 C 20 %
1898 10-05-2019 19:36:16 17.2 C 20 %
1899 10-05-2019 19:48:16 15.3 C 20 %
1900 10-05-2019 20:00:16 13.7 C 20 %
Sensor: Nr:Datum:Temp:Feuchte:
Aussen-T/F 1901 10-05-2019 20:12:16 13.4 C 20 %
1902 10-05-2019 20:24:16 13.4 C 20 %
1903 10-05-2019 20:36:16 12.5 C 24 %
1904 10-05-2019 20:48:17 12.2 C 24 %
1905 10-05-2019 21:00:16 12 C 24 %
1906 10-05-2019 21:12:16 12.1 C 25 %
1907 10-05-2019 21:24:16 11.7 C 26 %
1908 10-05-2019 21:36:16 11.6 C 26 %
1909 10-05-2019 21:48:16 11.6 C 26 %
1910 10-05-2019 22:00:16 11.3 C 29 %
1911 10-05-2019 22:12:16 11.4 C 29 %
1912 10-05-2019 22:24:16 11.3 C 30 %
1913 10-05-2019 22:36:16 11.3 C 30 %
1914 10-05-2019 22:48:16 11.2 C 30 %
1915 10-05-2019 23:00:16 11.1 C 31 %
1916 10-05-2019 23:12:16 11.1 C 31 %
1917 10-05-2019 23:24:16 11 C 30 %
1918 10-05-2019 23:36:16 10.8 C 31 %
1919 10-05-2019 23:48:16 10.4 C 34 %
1920 11-05-2019 00:00:17 10.4 C 34 %
1921 11-05-2019 00:12:17 10.4 C 37 %
1922 11-05-2019 00:24:16 10.4 C 37 %
1923 11-05-2019 00:36:16 10.4 C 37 %
1924 11-05-2019 00:48:16 10.4 C 37 %
1925 11-05-2019 01:00:16 9.7 C 46 %
Sensor: Nr:Datum:Temp:Feuchte:
Aussen-T/F 1926 11-05-2019 01:12:16 9.7 C 46 %
1927 11-05-2019 01:24:16 9.7 C 46 %
1928 11-05-2019 01:36:16 9.7 C 46 %
1929 11-05-2019 01:48:16 9.5 C 50 %
1930 11-05-2019 02:00:16 9.4 C 50 %
1931 11-05-2019 02:12:16 9.5 C 51 %
1932 11-05-2019 02:24:16 9.5 C 51 %
1933 11-05-2019 02:36:16 9.5 C 51 %
1934 11-05-2019 02:48:17 9.5 C 51 %
1935 11-05-2019 03:00:17 9.4 C 51 %
1936 11-05-2019 03:12:17 9.4 C 51 %
1937 11-05-2019 03:24:17 9.4 C 51 %
1938 11-05-2019 03:36:17 9.2 C 51 %
1939 11-05-2019 03:48:17 9.2 C 51 %
1940 11-05-2019 04:00:17 9.2 C 51 %
1941 11-05-2019 04:12:17 9.2 C 51 %
1942 11-05-2019 04:24:17 9.2 C 52 %
1943 11-05-2019 04:36:18 9.2 C 52 %
1944 11-05-2019 04:48:17 9.2 C 53 %
1945 11-05-2019 05:00:17 9.2 C 53 %
1946 11-05-2019 05:12:17 9.3 C 56 %
1947 11-05-2019 05:24:17 9.3 C 56 %
1948 11-05-2019 05:36:17 9.3 C 56 %
1949 11-05-2019 05:48:17 9.2 C 61 %
1950 11-05-2019 06:00:17 9.2 C 61 %
Sensor: Nr:Datum:Temp:Feuchte:
Aussen-T/F 1951 11-05-2019 06:12:17 9.1 C 62 %
1952 11-05-2019 06:24:17 9.1 C 62 %
1953 11-05-2019 06:36:18 9.2 C 64 %
1954 11-05-2019 06:48:17 9.2 C 64 %
1955 11-05-2019 07:00:17 9.2 C 64 %
1956 11-05-2019 07:12:17 9.2 C 64 %
1957 11-05-2019 07:24:17 9.2 C 64 %
1958 11-05-2019 07:36:17 9.2 C 64 %
1959 11-05-2019 07:48:17 9.2 C 65 %
1960 11-05-2019 08:00:17 9.2 C 65 %
1961 11-05-2019 08:12:17 9.2 C 65 %
1962 11-05-2019 08:24:17 9.2 C 64 %
1963 11-05-2019 08:36:17 9.2 C 63 %
1964 11-05-2019 08:48:18 9.1 C 63 %
1965 11-05-2019 09:00:17 9 C 60 %
1966 11-05-2019 09:12:17 9.2 C 59 %
1967 11-05-2019 09:24:17 9.2 C 59 %
1968 11-05-2019 09:36:17 9.3 C 55 %
1969 11-05-2019 09:48:17 9.3 C 51 %
1970 11-05-2019 10:00:18 9.3 C 50 %
1971 11-05-2019 10:12:18 9.4 C 49 %
1972 11-05-2019 10:24:17 9.4 C 49 %
1973 11-05-2019 10:36:17 9.5 C 47 %
1974 11-05-2019 10:48:17 9.6 C 47 %
1975 11-05-2019 11:00:17 9.6 C 46 %
Sensor: Nr:Datum:Temp:Feuchte:
Aussen-T/F 1976 11-05-2019 11:12:17 9.6 C 46 %
1977 11-05-2019 11:24:17 9.7 C 46 %
1978 11-05-2019 11:36:17 9.7 C 46 %
1979 11-05-2019 11:48:17 9.8 C 45 %
1980 11-05-2019 12:00:17 9.9 C 43 %
1981 11-05-2019 12:12:17 10.1 C 42 %
1982 11-05-2019 12:24:17 10.2 C 42 %
1983 11-05-2019 12:36:17 10.1 C 42 %
1984 11-05-2019 12:48:17 9.8 C 44 %
1985 11-05-2019 13:00:17 9.5 C 45 %
1986 11-05-2019 13:12:17 9.3 C 46 %
1987 11-05-2019 13:24:17 9.1 C 46 %
1988 11-05-2019 13:36:17 9 C 44 %
1989 11-05-2019 13:48:17 9 C 45 %
1990 11-05-2019 14:00:17 9.1 C 45 %
1991 11-05-2019 14:12:17 9.3 C 48 %
1992 11-05-2019 14:24:17 9.2 C 48 %
1993 11-05-2019 14:36:17 9.1 C 48 %
1994 11-05-2019 14:48:17 9.1 C 48 %
1995 11-05-2019 15:00:17 9.3 C 49 %
1996 11-05-2019 15:12:17 9.4 C 49 %
1997 11-05-2019 15:24:17 9.5 C 48 %
1998 11-05-2019 15:36:17 9.5 C 48 %
1999 11-05-2019 15:48:17 9.5 C 48 %
2000 11-05-2019 16:00:17 9.5 C 48 %
Sensor: Nr:Datum:Temp:Feuchte:
Aussen-T/F 2001 11-05-2019 16:12:17 9.8 C 50 %
2002 11-05-2019 16:24:17 9.8 C 50 %
2003 11-05-2019 16:36:17 10 C 49 %
2004 11-05-2019 16:48:17 10 C 49 %
2005 11-05-2019 17:00:17 10 C 49 %
2006 11-05-2019 17:12:17 10 C 49 %
2007 11-05-2019 17:24:17 10 C 49 %
2008 11-05-2019 17:36:18 10 C 49 %
2009 11-05-2019 17:48:17 10 C 49 %
2010 11-05-2019 18:00:17 11.2 C 37 %
2011 11-05-2019 18:12:17 11.2 C 37 %
2012 11-05-2019 18:24:17 11.4 C 31 %
2013 11-05-2019 18:36:17 11.9 C 31 %
2014 11-05-2019 18:48:17 12.5 C 28 %
2015 11-05-2019 19:00:17 12.7 C 26 %
2016 11-05-2019 19:12:17 11.7 C 27 %
2017 11-05-2019 19:24:17 11.7 C 27 %
2018 11-05-2019 19:36:17 11.7 C 27 %
2019 11-05-2019 19:48:17 11.7 C 27 %
2020 11-05-2019 20:00:17 11.7 C 27 %
2021 11-05-2019 20:12:17 11.7 C 27 %
2022 11-05-2019 20:24:17 10.8 C 29 %
2023 11-05-2019 20:36:17 10.3 C 32 %
2024 11-05-2019 20:48:17 10.2 C 32 %
2025 11-05-2019 21:00:18 10.2 C 32 %
Sensor: Nr:Datum:Temp:Feuchte:
Aussen-T/F 2026 11-05-2019 21:12:18 9 C 42 %
2027 11-05-2019 21:24:17 8.9 C 45 %
2028 11-05-2019 21:36:18 8.5 C 46 %
2029 11-05-2019 21:48:17 8 C 46 %
2030 11-05-2019 22:00:17 7.7 C 49 %
2031 11-05-2019 22:12:17 7.5 C 50 %
2032 11-05-2019 22:24:17 7.5 C 50 %
2033 11-05-2019 22:36:18 7.8 C 52 %
2034 11-05-2019 22:48:17 7.3 C 51 %
2035 11-05-2019 23:00:18 7 C 51 %
2036 11-05-2019 23:12:18 7 C 51 %
2037 11-05-2019 23:24:17 6.8 C 53 %
2038 11-05-2019 23:36:18 6.9 C 53 %
2039 11-05-2019 23:48:17 6.9 C 53 %
2040 12-05-2019 00:00:17 6.9 C 53 %
2041 12-05-2019 00:12:17 6.9 C 53 %
2042 12-05-2019 00:24:17 6.9 C 53 %
2043 12-05-2019 00:36:17 6.9 C 53 %
2044 12-05-2019 00:48:18 6.9 C 53 %
2045 12-05-2019 01:00:17 6.9 C 53 %
2046 12-05-2019 01:12:17 6.9 C 53 %
2047 12-05-2019 01:24:17 6.9 C 53 %
2048 12-05-2019 01:36:17 6.9 C 53 %
2049 12-05-2019 01:48:17 6.9 C 53 %
2050 12-05-2019 02:00:17 6.9 C 53 %
Sensor: Nr:Datum:Temp:Feuchte:
Aussen-T/F 2051 12-05-2019 02:12:17 6.9 C 53 %
2052 12-05-2019 02:24:17 5.6 C 50 %
2053 12-05-2019 02:36:17 5.6 C 50 %
2054 12-05-2019 02:48:17 5.6 C 50 %
2055 12-05-2019 03:00:17 5.6 C 50 %
2056 12-05-2019 03:12:17 5.1 C 47 %
2057 12-05-2019 03:24:17 5.1 C 47 %
2058 12-05-2019 03:36:17 5.1 C 47 %
2059 12-05-2019 03:48:17 5.1 C 47 %
2060 12-05-2019 04:00:17 5.1 C 47 %
2061 12-05-2019 04:12:17 5.1 C 47 %
2062 12-05-2019 04:24:17 5.1 C 47 %
2063 12-05-2019 04:36:18 5.1 C 47 %
2064 12-05-2019 04:48:17 3.6 C 51 %
2065 12-05-2019 05:00:17 3.5 C 52 %
2066 12-05-2019 05:12:17 3.5 C 52 %
2067 12-05-2019 05:24:17 3.5 C 52 %
2068 12-05-2019 05:36:17 3.5 C 52 %
2069 12-05-2019 05:48:17 3.4 C 53 %
2070 12-05-2019 06:00:17 3.4 C 53 %
2071 12-05-2019 06:12:17 3.4 C 53 %
2072 12-05-2019 06:24:17 3.8 C 55 %
2073 12-05-2019 06:36:17 4.3 C 55 %
2074 12-05-2019 06:48:17 4.7 C 51 %
2075 12-05-2019 07:00:17 4.8 C 46 %
Sensor: Nr:Datum:Temp:Feuchte:
Aussen-T/F 2076 12-05-2019 07:12:17 4.8 C 42 %
2077 12-05-2019 07:24:17 5.3 C 41 %
2078 12-05-2019 07:36:17 5.6 C 39 %
2079 12-05-2019 07:48:17 5.6 C 39 %
2080 12-05-2019 08:00:17 5.9 C 35 %
2081 12-05-2019 08:12:17 6.2 C 33 %
2082 12-05-2019 08:24:17 6.6 C 31 %
2083 12-05-2019 08:36:17 6.9 C 30 %
2084 12-05-2019 08:48:17 7.5 C 26 %
2085 12-05-2019 09:00:17 7.8 C 26 %
2086 12-05-2019 09:12:17 7.9 C 25 %
2087 12-05-2019 09:24:17 8.4 C 25 %
2088 12-05-2019 09:36:18 8.3 C 21 %
2089 12-05-2019 09:48:17 8.5 C 20 %
2090 12-05-2019 10:00:17 8.6 C 20 %
2091 12-05-2019 10:12:17 8.7 C 20 %
2092 12-05-2019 10:24:17 9.1 C 20 %
2093 12-05-2019 10:36:17 9.2 C 20 %
2094 12-05-2019 10:48:17 9.8 C 20 %
2095 12-05-2019 11:00:17 9.3 C 20 %
2096 12-05-2019 11:12:17 10.1 C 20 %
2097 12-05-2019 11:24:17 12.7 C 20 %
2098 12-05-2019 11:36:17 11.5 C 20 %
2099 12-05-2019 11:48:17 12.1 C 20 %
2100 12-05-2019 12:00:17 11.2 C 20 %
Sensor: Nr:Datum:Temp:Feuchte:
Aussen-T/F 2101 12-05-2019 12:12:17 11.1 C 20 %
2102 12-05-2019 12:24:17 11.8 C 20 %
2103 12-05-2019 12:36:17 10.6 C 20 %
2104 12-05-2019 12:48:17 11 C 20 %
2105 12-05-2019 13:00:18 11 C 20 %
2106 12-05-2019 13:12:18 11 C 20 %
2107 12-05-2019 13:24:17 11.8 C 20 %
2108 12-05-2019 13:36:18 12.1 C 20 %
2109 12-05-2019 13:48:17 12 C 20 %
2110 12-05-2019 14:00:17 12.5 C 20 %
2111 12-05-2019 14:12:17 13.3 C 20 %
2112 12-05-2019 14:24:17 13.7 C 20 %
2113 12-05-2019 14:36:17 13.8 C 20 %
2114 12-05-2019 14:48:17 13.8 C 20 %
2115 12-05-2019 15:00:18 14.4 C 20 %
2116 12-05-2019 15:12:18 15 C 20 %
2117 12-05-2019 15:24:17 14.1 C 20 %
2118 12-05-2019 15:36:17 14.1 C 20 %
2119 12-05-2019 15:48:18 15.6 C 20 %
2120 12-05-2019 16:00:17 16 C 20 %
2121 12-05-2019 16:12:17 14.7 C 20 %
2122 12-05-2019 16:24:17 16.4 C 20 %
2123 12-05-2019 16:36:17 16.5 C 20 %
2124 12-05-2019 16:48:17 16.5 C 20 %
2125 12-05-2019 17:00:17 14.9 C 20 %
Sensor: Nr:Datum:Temp:Feuchte:
Aussen-T/F 2126 12-05-2019 17:12:17 14.5 C 20 %
2127 12-05-2019 17:24:17 15.2 C 20 %
2128 12-05-2019 17:36:17 15.2 C 20 %
2129 12-05-2019 17:48:18 15 C 20 %
2130 12-05-2019 18:00:17 16.1 C 20 %
2131 12-05-2019 18:12:17 16.6 C 20 %
2132 12-05-2019 18:24:17 14.7 C 20 %
2133 12-05-2019 18:36:18 15.9 C 20 %
2134 12-05-2019 18:48:17 15.8 C 20 %
2135 12-05-2019 19:00:17 15.8 C 20 %
2136 12-05-2019 19:12:17 15.8 C 20 %
2137 12-05-2019 19:24:17 14.4 C 20 %
2138 12-05-2019 19:36:17 13.9 C 20 %
2139 12-05-2019 19:48:17 13.6 C 20 %
2140 12-05-2019 20:00:17 13.5 C 20 %
2141 12-05-2019 20:12:17 13.2 C 20 %
2142 12-05-2019 20:24:17 12.9 C 20 %
2143 12-05-2019 20:36:18 12.9 C 20 %
2144 12-05-2019 20:48:17 11.8 C 20 %
2145 12-05-2019 21:00:17 9.7 C 20 %
2146 12-05-2019 21:12:17 9 C 20 %
2147 12-05-2019 21:24:17 8.7 C 20 %
2148 12-05-2019 21:36:17 8.1 C 23 %
2149 12-05-2019 21:48:17 8.4 C 26 %
2150 12-05-2019 22:00:17 8.1 C 27 %
Sensor: Nr:Datum:Temp:Feuchte:
Aussen-T/F 2151 12-05-2019 22:12:17 7.7 C 26 %
2152 12-05-2019 22:24:17 7.8 C 25 %
2153 12-05-2019 22:36:17 7.8 C 25 %
2154 12-05-2019 22:48:17 7.1 C 26 %
2155 12-05-2019 23:00:17 6.7 C 29 %
2156 12-05-2019 23:12:17 6.5 C 30 %
2157 12-05-2019 23:24:17 6.4 C 30 %
2158 12-05-2019 23:36:18 6.4 C 30 %
2159 12-05-2019 23:48:17 6.1 C 30 %
2160 13-05-2019 00:00:17 6 C 30 %
2161 13-05-2019 00:12:17 6 C 30 %
2162 13-05-2019 00:24:17 6 C 30 %
2163 13-05-2019 00:36:17 5.3 C 33 %
2164 13-05-2019 00:48:17 5.3 C 33 %
2165 13-05-2019 01:00:18 5.3 C 33 %
2166 13-05-2019 01:12:18 5.3 C 33 %
2167 13-05-2019 01:24:17 5.3 C 33 %
2168 13-05-2019 01:36:17 5.3 C 33 %
2169 13-05-2019 01:48:17 3.8 C 43 %
2170 13-05-2019 02:00:17 3.7 C 44 %
2171 13-05-2019 02:12:17 3.4 C 45 %
2172 13-05-2019 02:24:17 3.4 C 45 %
2173 13-05-2019 02:36:17 3.4 C 45 %
2174 13-05-2019 02:48:17 3.2 C 47 %
2175 13-05-2019 03:00:17 3.2 C 48 %
Sensor: Nr:Datum:Temp:Feuchte:
Aussen-T/F 2176 13-05-2019 03:12:17 3.2 C 48 %
2177 13-05-2019 03:24:17 2.8 C 50 %
2178 13-05-2019 03:36:18 2.6 C 50 %
2179 13-05-2019 03:48:17 2.6 C 51 %
2180 13-05-2019 04:00:17 2.5 C 51 %
2181 13-05-2019 04:12:17 2.3 C 51 %
2182 13-05-2019 04:24:17 2.3 C 51 %
2183 13-05-2019 04:36:17 2.3 C 51 %
2184 13-05-2019 04:48:17 2.2 C 52 %
2185 13-05-2019 05:00:18 2 C 52 %
2186 13-05-2019 05:12:18 2 C 52 %
2187 13-05-2019 05:24:17 2 C 52 %
2188 13-05-2019 05:36:17 1.8 C 53 %
2189 13-05-2019 05:48:18 1.7 C 53 %
2190 13-05-2019 06:00:17 1.7 C 53 %
2191 13-05-2019 06:12:17 1.6 C 54 %
2192 13-05-2019 06:24:17 1.6 C 54 %
2193 13-05-2019 06:36:17 1.6 C 54 %
2194 13-05-2019 06:48:17 1.6 C 54 %
2195 13-05-2019 07:00:18 1.7 C 55 %
2196 13-05-2019 07:12:18 1.8 C 55 %
2197 13-05-2019 07:24:17 1.8 C 55 %
2198 13-05-2019 07:36:17 2.4 C 54 %
2199 13-05-2019 07:48:17 2.6 C 55 %
2200 13-05-2019 08:00:17 3 C 54 %
Sensor: Nr:Datum:Temp:Feuchte:
Aussen-T/F 2201 13-05-2019 08:12:17 3.6 C 55 %
2202 13-05-2019 08:24:17 4.1 C 53 %
2203 13-05-2019 08:36:17 4.7 C 52 %
2204 13-05-2019 08:48:17 4.7 C 52 %
2205 13-05-2019 09:00:17 5.6 C 47 %
2206 13-05-2019 09:12:17 6 C 42 %
2207 13-05-2019 09:24:17 7.3 C 38 %
2208 13-05-2019 09:36:17 8.8 C 26 %
2209 13-05-2019 09:48:17 8.9 C 25 %
2210 13-05-2019 10:00:17 9.5 C 20 %
2211 13-05-2019 10:12:17 10.2 C 20 %
2212 13-05-2019 10:24:17 10.6 C 20 %
2213 13-05-2019 10:36:17 11 C 20 %
2214 13-05-2019 10:48:17 11 C 20 %
2215 13-05-2019 11:00:17 12.8 C 20 %
2216 13-05-2019 11:12:17 13.2 C 20 %
2217 13-05-2019 11:24:17 15.9 C 20 %
2218 13-05-2019 11:36:17 15.9 C 20 %
2219 13-05-2019 11:48:17 13.8 C 20 %
2220 13-05-2019 12:00:17 12.9 C 20 %
2221 13-05-2019 12:12:17 13.4 C 20 %
2222 13-05-2019 12:24:17 13.6 C 20 %
2223 13-05-2019 12:36:17 13.6 C 20 %
2224 13-05-2019 12:48:17 13.7 C 20 %
2225 13-05-2019 13:00:18 13.8 C 20 %
Sensor: Nr:Datum:Temp:Feuchte:
Aussen-T/F 2226 13-05-2019 13:12:18 14 C 20 %
2227 13-05-2019 13:24:17 14.4 C 20 %
2228 13-05-2019 13:36:17 14.8 C 20 %
2229 13-05-2019 13:48:17 15 C 20 %
2230 13-05-2019 14:00:17 15 C 20 %
2231 13-05-2019 14:12:17 15 C 20 %
2232 13-05-2019 14:24:17 15.8 C 20 %
2233 13-05-2019 14:36:17 16.5 C 20 %
2234 13-05-2019 14:48:17 17.1 C 20 %
2235 13-05-2019 15:00:17 17 C 20 %
2236 13-05-2019 15:12:17 17.1 C 20 %
2237 13-05-2019 15:24:17 18.2 C 20 %
2238 13-05-2019 15:36:17 18.6 C 20 %
2239 13-05-2019 15:48:17 18.9 C 20 %
2240 13-05-2019 16:00:18 18.9 C 20 %
2241 13-05-2019 16:12:18 18.9 C 20 %
2242 13-05-2019 16:24:17 18.6 C 20 %
2243 13-05-2019 16:36:17 18.6 C 20 %
2244 13-05-2019 16:48:17 18.6 C 20 %
2245 13-05-2019 17:00:17 18.6 C 20 %
2246 13-05-2019 17:12:17 19 C 20 %
2247 13-05-2019 17:24:17 19 C 20 %
2248 13-05-2019 17:36:18 19 C 20 %
2249 13-05-2019 17:48:17 19.1 C 20 %
2250 13-05-2019 18:00:17 18.8 C 20 %
Sensor: Nr:Datum:Temp:Feuchte:
Aussen-T/F 2251 13-05-2019 18:12:17 18.5 C 20 %
2252 13-05-2019 18:24:18 18.3 C 20 %
2253 13-05-2019 18:36:17 18.3 C 20 %
2254 13-05-2019 18:48:17 18.1 C 20 %
2255 13-05-2019 19:00:18 18.3 C 20 %
2256 13-05-2019 19:12:18 17.8 C 20 %
2257 13-05-2019 19:24:17 17.3 C 20 %
2258 13-05-2019 19:36:17 16.6 C 20 %
2259 13-05-2019 19:48:17 16.2 C 20 %
2260 13-05-2019 20:00:17 15.9 C 20 %
2261 13-05-2019 20:12:17 15.7 C 20 %
2262 13-05-2019 20:24:17 15.4 C 20 %
2263 13-05-2019 20:36:18 15.1 C 20 %
2264 13-05-2019 20:48:17 14.4 C 20 %
2265 13-05-2019 21:00:17 14 C 20 %
2266 13-05-2019 21:12:17 12.1 C 20 %
2267 13-05-2019 21:24:18 12.1 C 20 %
2268 13-05-2019 21:36:17 10 C 20 %
2269 13-05-2019 21:48:17 9.5 C 20 %
2270 13-05-2019 22:00:17 9.5 C 20 %
2271 13-05-2019 22:12:17 8.6 C 20 %
2272 13-05-2019 22:24:17 8.4 C 20 %
2273 13-05-2019 22:36:17 8.2 C 20 %
2274 13-05-2019 22:48:17 8.2 C 20 %
2275 13-05-2019 23:00:17 8.2 C 20 %
Sensor: Nr:Datum:Temp:Feuchte:
Aussen-T/F 2276 13-05-2019 23:12:17 8.2 C 20 %
2277 13-05-2019 23:24:18 8.2 C 20 %
2278 13-05-2019 23:36:17 8.2 C 20 %
2279 13-05-2019 23:48:17 8.2 C 20 %
2280 14-05-2019 00:00:17 8.2 C 20 %
2281 14-05-2019 00:12:17 8.2 C 20 %
2282 14-05-2019 00:24:18 8.2 C 20 %
2283 14-05-2019 00:36:17 8.2 C 20 %
2284 14-05-2019 00:48:17 8.2 C 20 %
2285 14-05-2019 01:00:17 8.2 C 20 %
2286 14-05-2019 01:12:17 8.2 C 20 %
2287 14-05-2019 01:24:17 8.2 C 20 %
2288 14-05-2019 01:36:17 8.2 C 20 %
2289 14-05-2019 01:48:17 4.5 C 29 %
2290 14-05-2019 02:00:17 4.3 C 29 %
2291 14-05-2019 02:12:17 4.3 C 29 %
2292 14-05-2019 02:24:17 4.3 C 29 %
2293 14-05-2019 02:36:17 3.6 C 32 %
2294 14-05-2019 02:48:18 3.5 C 33 %
2295 14-05-2019 03:00:17 3.4 C 34 %
2296 14-05-2019 03:12:17 3.2 C 35 %
2297 14-05-2019 03:24:17 3.1 C 35 %
2298 14-05-2019 03:36:18 3.1 C 35 %
2299 14-05-2019 03:48:17 3.1 C 35 %
2300 14-05-2019 04:00:17 2.7 C 37 %
Sensor: Nr:Datum:Temp:Feuchte:
Aussen-T/F 2301 14-05-2019 04:12:17 2.6 C 38 %
2302 14-05-2019 04:24:18 2.4 C 39 %
2303 14-05-2019 04:36:17 2.4 C 39 %
2304 14-05-2019 04:48:17 2.2 C 40 %
2305 14-05-2019 05:00:17 2.2 C 41 %
2306 14-05-2019 05:12:17 2.2 C 41 %
2307 14-05-2019 05:24:17 2.2 C 41 %
2308 14-05-2019 05:36:17 2.2 C 41 %
2309 14-05-2019 05:48:17 1.7 C 45 %
2310 14-05-2019 06:00:17 1.8 C 45 %
2311 14-05-2019 06:12:17 1.8 C 46 %
2312 14-05-2019 06:24:17 1.8 C 46 %
2313 14-05-2019 06:36:17 1.8 C 47 %
2314 14-05-2019 06:48:17 2 C 47 %
2315 14-05-2019 07:00:17 2 C 47 %
2316 14-05-2019 07:12:17 2 C 47 %
2317 14-05-2019 07:24:18 2.3 C 48 %
2318 14-05-2019 07:36:17 2.4 C 48 %
2319 14-05-2019 07:48:17 2.6 C 48 %
2320 14-05-2019 08:00:17 3.1 C 48 %
2321 14-05-2019 08:12:17 3.3 C 48 %
2322 14-05-2019 08:24:17 3.3 C 48 %
2323 14-05-2019 08:36:17 4.1 C 46 %
2324 14-05-2019 08:48:17 5 C 39 %
2325 14-05-2019 09:00:17 5.4 C 35 %
Sensor: Nr:Datum:Temp:Feuchte:
Aussen-T/F 2326 14-05-2019 09:12:17 5.9 C 33 %
2327 14-05-2019 09:24:17 7 C 29 %
2328 14-05-2019 09:36:17 8.9 C 20 %
2329 14-05-2019 09:48:17 8.5 C 20 %
2330 14-05-2019 10:00:17 8.5 C 20 %
2331 14-05-2019 10:12:17 9.4 C 20 %
2332 14-05-2019 10:24:17 10 C 20 %
2333 14-05-2019 10:36:17 11.1 C 20 %
2334 14-05-2019 10:48:17 11.7 C 20 %
2335 14-05-2019 11:00:17 13.6 C 20 %
2336 14-05-2019 11:12:17 13.1 C 20 %
2337 14-05-2019 11:24:17 15.6 C 20 %
2338 14-05-2019 11:36:17 14.5 C 20 %
2339 14-05-2019 11:48:17 13.5 C 20 %
2340 14-05-2019 12:00:17 13.1 C 20 %
2341 14-05-2019 12:12:17 13.3 C 20 %
2342 14-05-2019 12:24:17 14 C 20 %
2343 14-05-2019 12:36:17 14.2 C 20 %
2344 14-05-2019 12:48:17 13.6 C 20 %
2345 14-05-2019 13:00:17 14.4 C 20 %
2346 14-05-2019 13:12:17 14.9 C 20 %
2347 14-05-2019 13:24:17 14.9 C 20 %
2348 14-05-2019 13:36:18 14.5 C 20 %
2349 14-05-2019 13:48:17 14.4 C 20 %
2350 14-05-2019 14:00:17 14.3 C 20 %
Sensor: Nr:Datum:Temp:Feuchte:
Aussen-T/F 2351 14-05-2019 14:12:17 15 C 20 %
2352 14-05-2019 14:24:17 15.3 C 20 %
2353 14-05-2019 14:36:17 15.5 C 20 %
2354 14-05-2019 14:48:17 15.5 C 20 %
2355 14-05-2019 15:00:17 16.7 C 20 %
2356 14-05-2019 15:12:17 16.7 C 20 %
2357 14-05-2019 15:24:17 16.1 C 20 %
2358 14-05-2019 15:36:17 16.1 C 20 %
2359 14-05-2019 15:48:17 16 C 20 %
2360 14-05-2019 16:00:17 16.7 C 20 %
2361 14-05-2019 16:12:17 16.5 C 20 %
2362 14-05-2019 16:24:17 16.5 C 20 %
2363 14-05-2019 16:36:17 17 C 20 %
2364 14-05-2019 16:48:17 16.8 C 20 %
2365 14-05-2019 17:00:17 16.6 C 20 %
2366 14-05-2019 17:12:17 17.8 C 20 %
2367 14-05-2019 17:24:17 17 C 20 %
2368 14-05-2019 17:36:17 16.9 C 20 %
2369 14-05-2019 17:48:18 16.6 C 20 %
2370 14-05-2019 18:00:17 16.2 C 20 %
2371 14-05-2019 18:12:17 16.6 C 20 %
2372 14-05-2019 18:24:17 17.3 C 20 %
2373 14-05-2019 18:36:17 16.4 C 20 %
2374 14-05-2019 18:48:17 17.6 C 20 %
2375 14-05-2019 19:00:17 17 C 20 %
Sensor: Nr:Datum:Temp:Feuchte:
Aussen-T/F 2376 14-05-2019 19:12:17 17.4 C 20 %
2377 14-05-2019 19:24:17 16.2 C 20 %
2378 14-05-2019 19:36:17 15.7 C 20 %
2379 14-05-2019 19:48:17 15 C 20 %
2380 14-05-2019 20:00:18 15 C 20 %
2381 14-05-2019 20:12:18 14.1 C 20 %
2382 14-05-2019 20:24:17 13.1 C 20 %
2383 14-05-2019 20:36:17 12.2 C 20 %
2384 14-05-2019 20:48:17 12 C 20 %
2385 14-05-2019 21:00:17 10.6 C 20 %
2386 14-05-2019 21:12:17 10 C 20 %
2387 14-05-2019 21:24:17 9.5 C 20 %
2388 14-05-2019 21:36:17 9.2 C 20 %
2389 14-05-2019 21:48:17 8.8 C 20 %
2390 14-05-2019 22:00:17 8.6 C 20 %
2391 14-05-2019 22:12:17 8.6 C 20 %
2392 14-05-2019 22:24:17 8.6 C 20 %
2393 14-05-2019 22:36:17 7.8 C 20 %
2394 14-05-2019 22:48:17 7.7 C 20 %
2395 14-05-2019 23:00:18 7.7 C 20 %
2396 14-05-2019 23:12:18 7.7 C 20 %
2397 14-05-2019 23:24:17 7.7 C 20 %
2398 14-05-2019 23:36:17 7.7 C 20 %
2399 14-05-2019 23:48:17 7.7 C 20 %
2400 15-05-2019 00:00:18 7.7 C 20 %
Sensor: Nr:Datum:Temp:Feuchte:
Aussen-T/F 2401 15-05-2019 00:12:18 7.7 C 20 %
2402 15-05-2019 00:24:17 7.7 C 20 %
2403 15-05-2019 00:36:17 7.7 C 20 %
2404 15-05-2019 00:48:17 7.7 C 20 %
2405 15-05-2019 01:00:17 7.7 C 20 %
2406 15-05-2019 01:12:17 7.7 C 20 %
2407 15-05-2019 01:24:17 7.7 C 20 %
2408 15-05-2019 01:36:17 7.7 C 20 %
2409 15-05-2019 01:48:17 7.7 C 20 %
2410 15-05-2019 02:00:17 7.7 C 20 %
2411 15-05-2019 02:12:17 7.7 C 20 %
2412 15-05-2019 02:24:17 7.7 C 20 %
2413 15-05-2019 02:36:17 7.7 C 20 %
2414 15-05-2019 02:48:17 7.7 C 20 %
2415 15-05-2019 03:00:17 7.7 C 20 %
2416 15-05-2019 03:12:17 7.7 C 20 %
2417 15-05-2019 03:24:17 7.7 C 20 %
2418 15-05-2019 03:36:18 7.7 C 20 %
2419 15-05-2019 03:48:17 7.7 C 20 %
2420 15-05-2019 04:00:18 7.7 C 20 %
2421 15-05-2019 04:12:18 7.7 C 20 %
2422 15-05-2019 04:24:17 7.7 C 20 %
2423 15-05-2019 04:36:17 7.7 C 20 %
2424 15-05-2019 04:48:18 7.7 C 20 %
2425 15-05-2019 05:00:17 7.7 C 20 %
Sensor: Nr:Datum:Temp:Feuchte:
Aussen-T/F 2426 15-05-2019 05:12:17 7.7 C 20 %
2427 15-05-2019 05:24:17 7.7 C 20 %
2428 15-05-2019 05:36:17 7.7 C 20 %
2429 15-05-2019 05:48:17 1.8 C 46 %
2430 15-05-2019 06:00:18 1.8 C 46 %
2431 15-05-2019 06:12:18 1.6 C 47 %
2432 15-05-2019 06:24:17 1.7 C 47 %
2433 15-05-2019 06:36:17 1.8 C 48 %
2434 15-05-2019 06:48:17 1.8 C 48 %
2435 15-05-2019 07:00:17 2.1 C 48 %
2436 15-05-2019 07:12:17 2.2 C 48 %
2437 15-05-2019 07:24:17 2.3 C 48 %
2438 15-05-2019 07:36:18 2.4 C 49 %
2439 15-05-2019 07:48:17 2.5 C 49 %
2440 15-05-2019 08:00:17 2.6 C 49 %
2441 15-05-2019 08:12:17 2.8 C 49 %
2442 15-05-2019 08:24:17 3.1 C 48 %
2443 15-05-2019 08:36:17 3.6 C 48 %
2444 15-05-2019 08:48:17 4.2 C 45 %
2445 15-05-2019 09:00:18 4.5 C 42 %
2446 15-05-2019 09:12:18 5.3 C 39 %
2447 15-05-2019 09:24:17 6.4 C 35 %
2448 15-05-2019 09:36:18 6.4 C 35 %
2449 15-05-2019 09:48:17 8.1 C 28 %
2450 15-05-2019 10:00:17 9.5 C 20 %
Sensor: Nr:Datum:Temp:Feuchte:
Aussen-T/F 2451 15-05-2019 10:12:17 10 C 20 %
2452 15-05-2019 10:24:18 10 C 20 %
2453 15-05-2019 10:36:17 11.4 C 20 %
2454 15-05-2019 10:48:17 11.9 C 20 %
2455 15-05-2019 11:00:17 12.2 C 20 %
2456 15-05-2019 11:12:17 13.1 C 20 %
2457 15-05-2019 11:24:17 15.6 C 20 %
2458 15-05-2019 11:36:17 14.6 C 20 %
2459 15-05-2019 11:48:18 14.6 C 20 %
2460 15-05-2019 12:00:17 13.1 C 20 %
2461 15-05-2019 12:12:17 13.1 C 20 %
2462 15-05-2019 12:24:17 13.1 C 20 %
2463 15-05-2019 12:36:17 13.1 C 20 %
2464 15-05-2019 12:48:17 13.1 C 20 %
2465 15-05-2019 13:00:18 13.7 C 20 %
2466 15-05-2019 13:12:18 14 C 20 %
2467 15-05-2019 13:24:17 14 C 20 %
2468 15-05-2019 13:36:17 14.4 C 20 %
2469 15-05-2019 13:48:18 14.5 C 20 %
2470 15-05-2019 14:00:17 14.5 C 20 %
2471 15-05-2019 14:12:17 14.5 C 20 %
2472 15-05-2019 14:24:17 15.3 C 20 %
2473 15-05-2019 14:36:17 15.6 C 20 %
2474 15-05-2019 14:48:17 15.6 C 20 %
2475 15-05-2019 15:00:17 16.2 C 20 %
Sensor: Nr:Datum:Temp:Feuchte:
Aussen-T/F 2476 15-05-2019 15:12:17 16 C 20 %
2477 15-05-2019 15:24:18 16.6 C 20 %
2478 15-05-2019 15:36:17 17.1 C 20 %
2479 15-05-2019 15:48:17 16.4 C 20 %
2480 15-05-2019 16:00:17 16.7 C 20 %
2481 15-05-2019 16:12:17 16.6 C 20 %
2482 15-05-2019 16:24:17 16.6 C 20 %
2483 15-05-2019 16:36:17 17 C 20 %
2484 15-05-2019 16:48:17 17.4 C 20 %
2485 15-05-2019 17:00:17 18.1 C 20 %
2486 15-05-2019 17:12:17 18.1 C 20 %
2487 15-05-2019 17:24:17 18.4 C 20 %
2488 15-05-2019 17:36:17 18.9 C 20 %
2489 15-05-2019 17:48:17 18.9 C 20 %
2490 15-05-2019 18:00:17 18.9 C 20 %
2491 15-05-2019 18:12:17 17 C 20 %
2492 15-05-2019 18:24:17 18 C 20 %
2493 15-05-2019 18:36:17 17.6 C 20 %
2494 15-05-2019 18:48:17 18.2 C 20 %
2495 15-05-2019 19:00:18 17.9 C 20 %
2496 15-05-2019 19:12:18 17.6 C 20 %
2497 15-05-2019 19:24:17 16.6 C 20 %
2498 15-05-2019 19:36:17 16 C 20 %
2499 15-05-2019 19:48:17 15.6 C 20 %
2500 15-05-2019 20:00:17 15.6 C 20 %
Sensor: Nr:Datum:Temp:Feuchte:
Aussen-T/F 2501 15-05-2019 20:12:17 15.6 C 20 %
2502 15-05-2019 20:24:17 15.3 C 20 %
2503 15-05-2019 20:36:17 14.3 C 20 %
2504 15-05-2019 20:48:17 12.9 C 20 %
2505 15-05-2019 21:00:17 12 C 20 %
2506 15-05-2019 21:12:17 11.1 C 20 %
2507 15-05-2019 21:24:18 10.9 C 20 %
2508 15-05-2019 21:36:17 9.9 C 20 %
2509 15-05-2019 21:48:17 9.9 C 20 %
2510 15-05-2019 22:00:18 9.7 C 20 %
2511 15-05-2019 22:12:18 9.7 C 20 %
2512 15-05-2019 22:24:17 8.7 C 20 %
2513 15-05-2019 22:36:17 8.6 C 20 %
2514 15-05-2019 22:48:17 8.1 C 20 %
2515 15-05-2019 23:00:17 8 C 20 %
2516 15-05-2019 23:12:17 7.6 C 20 %
2517 15-05-2019 23:24:17 7.4 C 20 %
2518 15-05-2019 23:36:17 7.1 C 20 %
2519 15-05-2019 23:48:17 6.9 C 20 %
2520 16-05-2019 00:00:17 6.7 C 20 %
2521 16-05-2019 00:12:17 6.7 C 20 %
2522 16-05-2019 00:24:17 6.6 C 20 %
2523 16-05-2019 00:36:18 6.6 C 20 %
2524 16-05-2019 00:48:17 6.4 C 20 %
2525 16-05-2019 01:00:17 6.4 C 20 %
Sensor: Nr:Datum:Temp:Feuchte:
Aussen-T/F 2526 16-05-2019 01:12:17 6.4 C 20 %
2527 16-05-2019 01:24:17 5.9 C 20 %
2528 16-05-2019 01:36:17 5.6 C 20 %
2529 16-05-2019 01:48:17 5.6 C 20 %
2530 16-05-2019 02:00:17 5.6 C 20 %
2531 16-05-2019 02:12:18 5.2 C 23 %
2532 16-05-2019 02:24:17 5 C 25 %
2533 16-05-2019 02:36:17 5 C 25 %
2534 16-05-2019 02:48:17 5 C 25 %
2535 16-05-2019 03:00:17 5 C 29 %
2536 16-05-2019 03:12:17 5 C 29 %
2537 16-05-2019 03:24:17 5 C 29 %
2538 16-05-2019 03:36:18 5.3 C 28 %
2539 16-05-2019 03:48:17 5.3 C 28 %
2540 16-05-2019 04:00:17 5.3 C 28 %
2541 16-05-2019 04:12:17 5.3 C 28 %
2542 16-05-2019 04:24:17 5.3 C 28 %
2543 16-05-2019 04:36:18 5.3 C 28 %
2544 16-05-2019 04:48:17 5.3 C 28 %
2545 16-05-2019 05:00:17 5.3 C 28 %
2546 16-05-2019 05:12:17 5.3 C 28 %
2547 16-05-2019 05:24:17 5.3 C 28 %
2548 16-05-2019 05:36:17 5.3 C 28 %
2549 16-05-2019 05:48:17 5.7 C 30 %
2550 16-05-2019 06:00:17 5.7 C 31 %
Sensor: Nr:Datum:Temp:Feuchte:
Aussen-T/F 2551 16-05-2019 06:12:17 5.7 C 31 %
2552 16-05-2019 06:24:17 5.8 C 31 %
2553 16-05-2019 06:36:17 5.8 C 31 %
2554 16-05-2019 06:48:17 5.8 C 32 %
2555 16-05-2019 07:00:17 5.8 C 32 %
2556 16-05-2019 07:12:17 6.4 C 30 %
2557 16-05-2019 07:24:17 6.6 C 27 %
2558 16-05-2019 07:36:17 7.1 C 26 %
2559 16-05-2019 07:48:17 7.1 C 26 %
2560 16-05-2019 08:00:18 7.4 C 27 %
2561 16-05-2019 08:12:18 7.7 C 26 %
2562 16-05-2019 08:24:17 7.8 C 25 %
2563 16-05-2019 08:36:17 7.8 C 25 %
2564 16-05-2019 08:48:17 8.8 C 20 %
2565 16-05-2019 09:00:17 9.2 C 20 %
2566 16-05-2019 09:12:17 10 C 20 %
2567 16-05-2019 09:24:18 10.1 C 20 %
2568 16-05-2019 09:36:17 10.1 C 20 %
2569 16-05-2019 09:48:17 11.4 C 20 %
2570 16-05-2019 10:00:18 11.7 C 20 %
2571 16-05-2019 10:12:18 11.9 C 20 %
2572 16-05-2019 10:24:17 11.9 C 20 %
2573 16-05-2019 10:36:18 11.9 C 20 %
2574 16-05-2019 10:48:17 11.9 C 20 %
2575 16-05-2019 11:00:18 11.9 C 20 %
Sensor: Nr:Datum:Temp:Feuchte:
Aussen-T/F 2576 16-05-2019 11:12:18 11.9 C 20 %
2577 16-05-2019 11:24:17 11.9 C 20 %
2578 16-05-2019 11:36:18 11.9 C 20 %
2579 16-05-2019 11:48:17 11.9 C 20 %
2580 16-05-2019 12:00:17 11.9 C 20 %
2581 16-05-2019 12:12:17 11.9 C 20 %
2582 16-05-2019 12:24:17 11.9 C 20 %
2583 16-05-2019 12:36:17 11.9 C 20 %
2584 16-05-2019 12:48:17 11.9 C 20 %
2585 16-05-2019 13:00:17 11.9 C 20 %
2586 16-05-2019 13:12:17 11.9 C 20 %
2587 16-05-2019 13:24:17 11.9 C 20 %
2588 16-05-2019 13:36:18 11.9 C 20 %
2589 16-05-2019 13:48:17 15.4 C 20 %
2590 16-05-2019 14:00:17 15.4 C 20 %
2591 16-05-2019 14:12:17 15.4 C 20 %
2592 16-05-2019 14:24:17 15.4 C 20 %
2593 16-05-2019 14:36:17 15.4 C 20 %
2594 16-05-2019 14:48:17 15.4 C 20 %
2595 16-05-2019 15:00:17 15.4 C 20 %
2596 16-05-2019 15:12:17 15.4 C 20 %
2597 16-05-2019 15:24:17 18.7 C 20 %
2598 16-05-2019 15:36:18 18.7 C 20 %
2599 16-05-2019 15:48:17 18.7 C 20 %
2600 16-05-2019 16:00:17 18.7 C 20 %
Sensor: Nr:Datum:Temp:Feuchte:
Aussen-T/F 2601 16-05-2019 16:12:17 19.6 C 20 %
2602 16-05-2019 16:24:18 19.7 C 20 %
2603 16-05-2019 16:36:17 19.7 C 20 %
2604 16-05-2019 16:48:17 18.5 C 20 %
2605 16-05-2019 17:00:17 17.9 C 20 %
2606 16-05-2019 17:12:17 17.9 C 20 %
2607 16-05-2019 17:24:17 17.3 C 20 %
2608 16-05-2019 17:36:17 17.3 C 20 %
2609 16-05-2019 17:48:17 16.9 C 20 %
2610 16-05-2019 18:00:17 16.2 C 20 %
2611 16-05-2019 18:12:17 16 C 20 %
2612 16-05-2019 18:24:17 16 C 20 %
2613 16-05-2019 18:36:17 15.2 C 20 %
2614 16-05-2019 18:48:17 15 C 20 %
2615 16-05-2019 19:00:17 14.8 C 20 %
2616 16-05-2019 19:12:17 14.4 C 20 %
2617 16-05-2019 19:24:17 14 C 20 %
2618 16-05-2019 19:36:17 13.8 C 20 %
2619 16-05-2019 19:48:17 13.8 C 20 %
2620 16-05-2019 20:00:17 13.2 C 20 %
2621 16-05-2019 20:12:17 13 C 20 %
2622 16-05-2019 20:24:17 12.5 C 20 %
2623 16-05-2019 20:36:17 12.5 C 20 %
2624 16-05-2019 20:48:17 12.1 C 20 %
2625 16-05-2019 21:00:17 11.7 C 20 %
Sensor: Nr:Datum:Temp:Feuchte:
Aussen-T/F 2626 16-05-2019 21:12:17 11.5 C 20 %
2627 16-05-2019 21:24:17 11.1 C 20 %
2628 16-05-2019 21:36:17 10.9 C 20 %
2629 16-05-2019 21:48:17 10.8 C 20 %
2630 16-05-2019 22:00:17 10.6 C 20 %
2631 16-05-2019 22:12:17 10.1 C 27 %
2632 16-05-2019 22:24:17 9.9 C 29 %
2633 16-05-2019 22:36:18 9.9 C 30 %
2634 16-05-2019 22:48:17 9.9 C 30 %
2635 16-05-2019 23:00:17 9.9 C 30 %
2636 16-05-2019 23:12:17 9.4 C 32 %
2637 16-05-2019 23:24:17 9.1 C 35 %
2638 16-05-2019 23:36:17 9.1 C 35 %
2639 16-05-2019 23:48:17 8.5 C 40 %
2640 17-05-2019 00:00:17 8.5 C 42 %
2641 17-05-2019 00:12:17 8.5 C 44 %
2642 17-05-2019 00:24:17 8.4 C 44 %
2643 17-05-2019 00:36:17 8.3 C 45 %
2644 17-05-2019 00:48:17 8.4 C 47 %
2645 17-05-2019 01:00:17 8.4 C 47 %
2646 17-05-2019 01:12:17 8.4 C 47 %
2647 17-05-2019 01:24:18 8.3 C 49 %
2648 17-05-2019 01:36:17 8.2 C 49 %
2649 17-05-2019 01:48:17 8.2 C 49 %
2650 17-05-2019 02:00:17 8.2 C 49 %
Sensor: Nr:Datum:Temp:Feuchte:
Aussen-T/F 2651 17-05-2019 02:12:17 8.2 C 49 %
2652 17-05-2019 02:24:17 8.2 C 50 %
2653 17-05-2019 02:36:17 8.2 C 50 %
2654 17-05-2019 02:48:17 8.2 C 50 %
2655 17-05-2019 03:00:18 8.2 C 50 %
2656 17-05-2019 03:12:18 8.2 C 50 %
2657 17-05-2019 03:24:17 8.2 C 50 %
2658 17-05-2019 03:36:17 8.2 C 50 %
2659 17-05-2019 03:48:17 8.2 C 50 %
2660 17-05-2019 04:00:18 8.1 C 50 %
2661 17-05-2019 04:12:18 8.1 C 50 %
2662 17-05-2019 04:24:17 8.1 C 50 %
2663 17-05-2019 04:36:17 8 C 50 %
2664 17-05-2019 04:48:17 8 C 51 %
2665 17-05-2019 05:00:17 8 C 51 %
2666 17-05-2019 05:12:17 8 C 51 %
2667 17-05-2019 05:24:17 8 C 51 %
2668 17-05-2019 05:36:17 8 C 51 %
2669 17-05-2019 05:48:18 8.1 C 51 %
2670 17-05-2019 06:00:17 8 C 52 %
2671 17-05-2019 06:12:17 8 C 52 %
2672 17-05-2019 06:24:17 8.1 C 52 %
2673 17-05-2019 06:36:17 8.1 C 52 %
2674 17-05-2019 06:48:17 8.1 C 52 %
2675 17-05-2019 07:00:17 8.3 C 54 %
Sensor: Nr:Datum:Temp:Feuchte:
Aussen-T/F 2676 17-05-2019 07:12:17 8.4 C 54 %
2677 17-05-2019 07:24:17 8.4 C 54 %
2678 17-05-2019 07:36:17 8.6 C 55 %
2679 17-05-2019 07:48:17 8.5 C 54 %
2680 17-05-2019 08:00:17 8.6 C 52 %
2681 17-05-2019 08:12:17 8.6 C 52 %
2682 17-05-2019 08:24:17 8.7 C 51 %
2683 17-05-2019 08:36:17 8.8 C 49 %
2684 17-05-2019 08:48:17 8.9 C 48 %
2685 17-05-2019 09:00:17 8.9 C 47 %
2686 17-05-2019 09:12:17 9 C 47 %
2687 17-05-2019 09:24:17 9.1 C 46 %
2688 17-05-2019 09:36:17 9.2 C 46 %
2689 17-05-2019 09:48:18 9.1 C 46 %
2690 17-05-2019 10:00:17 9.1 C 46 %
2691 17-05-2019 10:12:17 9.2 C 45 %
2692 17-05-2019 10:24:17 9.2 C 45 %
2693 17-05-2019 10:36:17 9.5 C 44 %
2694 17-05-2019 10:48:17 9.7 C 44 %
2695 17-05-2019 11:00:18 9.9 C 43 %
2696 17-05-2019 11:12:18 9.8 C 43 %
2697 17-05-2019 11:24:17 10 C 42 %
2698 17-05-2019 11:36:17 10.1 C 41 %
2699 17-05-2019 11:48:17 10.4 C 42 %
2700 17-05-2019 12:00:17 10.6 C 40 %
Sensor: Nr:Datum:Temp:Feuchte:
Aussen-T/F 2701 17-05-2019 12:12:17 11.1 C 38 %
2702 17-05-2019 12:24:17 11.5 C 36 %
2703 17-05-2019 12:36:17 11.9 C 35 %
2704 17-05-2019 12:48:17 12.5 C 31 %
2705 17-05-2019 13:00:18 12.7 C 32 %
2706 17-05-2019 13:12:18 13.8 C 29 %
2707 17-05-2019 13:24:17 13.9 C 28 %
2708 17-05-2019 13:36:17 13.7 C 27 %
2709 17-05-2019 13:48:17 14.5 C 26 %
2710 17-05-2019 14:00:17 14.7 C 26 %
2711 17-05-2019 14:12:17 15.1 C 25 %
2712 17-05-2019 14:24:18 15.8 C 25 %
2713 17-05-2019 14:36:17 16 C 22 %
2714 17-05-2019 14:48:17 16.5 C 20 %
2715 17-05-2019 15:00:17 15.9 C 25 %
2716 17-05-2019 15:12:17 15.8 C 23 %
2717 17-05-2019 15:24:18 16.7 C 22 %
2718 17-05-2019 15:36:17 16.2 C 20 %
2719 17-05-2019 15:48:17 16.2 C 20 %
2720 17-05-2019 16:00:17 17.4 C 20 %
2721 17-05-2019 16:12:17 16.8 C 20 %
2722 17-05-2019 16:24:17 16.6 C 20 %
2723 17-05-2019 16:36:17 17.1 C 20 %
2724 17-05-2019 16:48:17 17.4 C 20 %
2725 17-05-2019 17:00:17 17.8 C 20 %
Sensor: Nr:Datum:Temp:Feuchte:
Aussen-T/F 2726 17-05-2019 17:12:17 17.7 C 20 %
2727 17-05-2019 17:24:17 17.6 C 20 %
2728 17-05-2019 17:36:17 18.7 C 20 %
2729 17-05-2019 17:48:17 17.5 C 20 %
2730 17-05-2019 18:00:17 17 C 20 %
2731 17-05-2019 18:12:17 17 C 21 %
2732 17-05-2019 18:24:17 16.5 C 26 %
2733 17-05-2019 18:36:17 16.3 C 27 %
2734 17-05-2019 18:48:17 16.2 C 22 %
2735 17-05-2019 19:00:18 17.2 C 20 %
2736 17-05-2019 19:12:18 17.3 C 20 %
2737 17-05-2019 19:24:17 16.5 C 26 %
2738 17-05-2019 19:36:17 16.5 C 26 %
2739 17-05-2019 19:48:17 14.9 C 31 %
2740 17-05-2019 20:00:17 14.1 C 33 %
2741 17-05-2019 20:12:17 13.9 C 34 %
2742 17-05-2019 20:24:17 13.9 C 34 %
2743 17-05-2019 20:36:17 12.4 C 39 %
2744 17-05-2019 20:48:17 12 C 40 %
2745 17-05-2019 21:00:17 11.6 C 41 %
2746 17-05-2019 21:12:17 11.6 C 41 %
2747 17-05-2019 21:24:17 11.2 C 43 %
2748 17-05-2019 21:36:17 11.1 C 45 %
2749 17-05-2019 21:48:17 11.3 C 46 %
2750 17-05-2019 22:00:17 11.4 C 46 %
Sensor: Nr:Datum:Temp:Feuchte:
Aussen-T/F 2751 17-05-2019 22:12:17 11.6 C 46 %
2752 17-05-2019 22:24:17 11.6 C 45 %
2753 17-05-2019 22:36:17 11.6 C 45 %
2754 17-05-2019 22:48:17 11.7 C 45 %
2755 17-05-2019 23:00:17 11.5 C 45 %
2756 17-05-2019 23:12:17 11.5 C 46 %
2757 17-05-2019 23:24:17 11.3 C 49 %
2758 17-05-2019 23:36:17 11.3 C 49 %
2759 17-05-2019 23:48:17 11.3 C 49 %
2760 18-05-2019 00:00:17 11.3 C 49 %
2761 18-05-2019 00:12:17 11.3 C 49 %
2762 18-05-2019 00:24:17 11.3 C 49 %
2763 18-05-2019 00:36:17 11.3 C 49 %
2764 18-05-2019 00:48:17 11.3 C 49 %
2765 18-05-2019 01:00:18 11.3 C 49 %
2766 18-05-2019 01:12:18 11.3 C 49 %
2767 18-05-2019 01:24:17 11.3 C 49 %
2768 18-05-2019 01:36:17 11.3 C 49 %
2769 18-05-2019 01:48:17 11.3 C 49 %
2770 18-05-2019 02:00:17 11.3 C 49 %
2771 18-05-2019 02:12:17 11.3 C 49 %
2772 18-05-2019 02:24:18 11.3 C 49 %
2773 18-05-2019 02:36:17 11.3 C 49 %
2774 18-05-2019 02:48:17 11.3 C 49 %
2775 18-05-2019 03:00:17 11.3 C 49 %
Sensor: Nr:Datum:Temp:Feuchte:
Aussen-T/F 2776 18-05-2019 03:12:17 11.3 C 49 %
2777 18-05-2019 03:24:17 11.3 C 49 %
2778 18-05-2019 03:36:17 11.3 C 49 %
2779 18-05-2019 03:48:17 11.3 C 49 %
2780 18-05-2019 04:00:17 11.3 C 49 %
2781 18-05-2019 04:12:17 11.3 C 49 %
2782 18-05-2019 04:24:17 11.3 C 49 %
2783 18-05-2019 04:36:17 11.3 C 49 %
2784 18-05-2019 04:48:17 11.3 C 49 %
2785 18-05-2019 05:00:17 11.3 C 49 %
2786 18-05-2019 05:12:17 11.3 C 49 %
2787 18-05-2019 05:24:17 11.3 C 49 %
2788 18-05-2019 05:36:17 11.3 C 49 %
2789 18-05-2019 05:48:17 8.3 C 62 %
2790 18-05-2019 06:00:17 8.3 C 62 %
2791 18-05-2019 06:12:17 8.3 C 62 %
2792 18-05-2019 06:24:17 8.6 C 65 %
2793 18-05-2019 06:36:17 8.9 C 66 %
2794 18-05-2019 06:48:17 8.9 C 66 %
2795 18-05-2019 07:00:17 9.6 C 67 %
2796 18-05-2019 07:12:17 9.6 C 65 %
2797 18-05-2019 07:24:17 9.9 C 66 %
2798 18-05-2019 07:36:17 10 C 65 %
2799 18-05-2019 07:48:17 10.5 C 65 %
2800 18-05-2019 08:00:17 10.6 C 65 %
Sensor: Nr:Datum:Temp:Feuchte:
Aussen-T/F 2801 18-05-2019 08:12:17 10.6 C 65 %
2802 18-05-2019 08:24:17 11.3 C 62 %
2803 18-05-2019 08:36:17 11.7 C 63 %
2804 18-05-2019 08:48:18 12.2 C 50 %
2805 18-05-2019 09:00:17 12.3 C 44 %
2806 18-05-2019 09:12:17 12.7 C 38 %
2807 18-05-2019 09:24:17 13.2 C 35 %
2808 18-05-2019 09:36:17 13.2 C 35 %
2809 18-05-2019 09:48:17 14.1 C 31 %
2810 18-05-2019 10:00:17 14.6 C 32 %
2811 18-05-2019 10:12:17 14.7 C 31 %
2812 18-05-2019 10:24:17 14.9 C 31 %
2813 18-05-2019 10:36:17 15.8 C 30 %
2814 18-05-2019 10:48:17 16.8 C 26 %
2815 18-05-2019 11:00:17 17.5 C 22 %
2816 18-05-2019 11:12:17 17.6 C 20 %
2817 18-05-2019 11:24:17 19.2 C 20 %
2818 18-05-2019 11:36:17 18.9 C 20 %
2819 18-05-2019 11:48:17 18.5 C 20 %
2820 18-05-2019 12:00:17 18.7 C 20 %
2821 18-05-2019 12:12:17 19 C 20 %
2822 18-05-2019 12:24:17 19.2 C 20 %
2823 18-05-2019 12:36:18 19.1 C 20 %
2824 18-05-2019 12:48:17 19.1 C 20 %
2825 18-05-2019 13:00:17 18.8 C 20 %
Sensor: Nr:Datum:Temp:Feuchte:
Aussen-T/F 2826 18-05-2019 13:12:17 19.4 C 20 %
2827 18-05-2019 13:24:17 19.3 C 20 %
2828 18-05-2019 13:36:17 19.6 C 20 %
2829 18-05-2019 13:48:17 19.4 C 20 %
2830 18-05-2019 14:00:17 20.1 C 20 %
2831 18-05-2019 14:12:17 21.1 C 20 %
2832 18-05-2019 14:24:17 21.6 C 20 %
2833 18-05-2019 14:36:17 21.6 C 20 %
2834 18-05-2019 14:48:17 21.4 C 20 %
2835 18-05-2019 15:00:18 21.2 C 20 %
2836 18-05-2019 15:12:18 21.1 C 20 %
2837 18-05-2019 15:24:17 21.2 C 20 %
2838 18-05-2019 15:36:17 21.2 C 20 %
2839 18-05-2019 15:48:17 22.9 C 20 %
2840 18-05-2019 16:00:18 22 C 20 %
2841 18-05-2019 16:12:18 22 C 20 %
2842 18-05-2019 16:24:17 22.5 C 20 %
2843 18-05-2019 16:36:17 22.7 C 20 %
2844 18-05-2019 16:48:17 21.8 C 20 %
2845 18-05-2019 17:00:17 21.5 C 20 %
2846 18-05-2019 17:12:17 21.6 C 20 %
2847 18-05-2019 17:24:17 21.6 C 20 %
2848 18-05-2019 17:36:17 20.2 C 20 %
2849 18-05-2019 17:48:18 20.4 C 20 %
2850 18-05-2019 18:00:17 19.4 C 20 %
Sensor: Nr:Datum:Temp:Feuchte:
Aussen-T/F 2851 18-05-2019 18:12:17 18.4 C 24 %
2852 18-05-2019 18:24:17 16.7 C 29 %
2853 18-05-2019 18:36:18 16.2 C 30 %
2854 18-05-2019 18:48:17 16.1 C 30 %
2855 18-05-2019 19:00:17 15.4 C 30 %
2856 18-05-2019 19:12:17 14.8 C 38 %
2857 18-05-2019 19:24:18 14.7 C 42 %
2858 18-05-2019 19:36:17 14.7 C 44 %
2859 18-05-2019 19:48:17 14.6 C 43 %
2860 18-05-2019 20:00:17 14.5 C 42 %
2861 18-05-2019 20:12:17 14.4 C 44 %
2862 18-05-2019 20:24:17 14.2 C 43 %
2863 18-05-2019 20:36:17 14 C 43 %
2864 18-05-2019 20:48:18 13.8 C 44 %
2865 18-05-2019 21:00:17 13.8 C 44 %
2866 18-05-2019 21:12:17 13.8 C 44 %
2867 18-05-2019 21:24:17 13.2 C 46 %
2868 18-05-2019 21:36:18 13.1 C 46 %
2869 18-05-2019 21:48:17 13.1 C 46 %
2870 18-05-2019 22:00:17 12.5 C 47 %
2871 18-05-2019 22:12:17 12.3 C 47 %
2872 18-05-2019 22:24:18 12.2 C 47 %
2873 18-05-2019 22:36:17 12.2 C 47 %
2874 18-05-2019 22:48:17 12 C 48 %
2875 18-05-2019 23:00:18 12 C 48 %
Sensor: Nr:Datum:Temp:Feuchte:
Aussen-T/F 2876 18-05-2019 23:12:18 12 C 48 %
2877 18-05-2019 23:24:17 12 C 48 %
2878 18-05-2019 23:36:17 12.1 C 49 %
2879 18-05-2019 23:48:17 12.1 C 49 %
2880 19-05-2019 00:00:17 12.1 C 49 %
2881 19-05-2019 00:12:17 12.1 C 49 %
2882 19-05-2019 00:24:18 12.3 C 48 %
2883 19-05-2019 00:36:17 12.3 C 48 %
2884 19-05-2019 00:48:17 12.4 C 49 %
2885 19-05-2019 01:00:17 12.4 C 50 %
2886 19-05-2019 01:12:17 12.3 C 51 %
2887 19-05-2019 01:24:17 12.4 C 51 %
2888 19-05-2019 01:36:17 12.2 C 52 %
2889 19-05-2019 01:48:17 12.1 C 52 %
2890 19-05-2019 02:00:17 12.1 C 52 %
2891 19-05-2019 02:12:17 12.1 C 52 %
2892 19-05-2019 02:24:17 12.1 C 52 %
2893 19-05-2019 02:36:17 12.1 C 52 %
2894 19-05-2019 02:48:17 12.1 C 52 %
2895 19-05-2019 03:00:17 12.1 C 52 %
2896 19-05-2019 03:12:17 10.9 C 60 %
2897 19-05-2019 03:24:17 10.9 C 60 %
2898 19-05-2019 03:36:17 10.9 C 60 %
2899 19-05-2019 03:48:17 10.9 C 60 %
2900 19-05-2019 04:00:17 11.2 C 64 %
Sensor: Nr:Datum:Temp:Feuchte:
Aussen-T/F 2901 19-05-2019 04:12:17 11.2 C 64 %
2902 19-05-2019 04:24:17 11.2 C 64 %
2903 19-05-2019 04:36:17 11.2 C 64 %
2904 19-05-2019 04:48:17 11.2 C 64 %
2905 19-05-2019 05:00:17 11.2 C 64 %
2906 19-05-2019 05:12:17 11.2 C 64 %
2907 19-05-2019 05:24:17 11.2 C 64 %
2908 19-05-2019 05:36:18 11.2 C 64 %
2909 19-05-2019 05:48:17 11.2 C 64 %
2910 19-05-2019 06:00:17 11.2 C 64 %
2911 19-05-2019 06:12:17 11.2 C 64 %
2912 19-05-2019 06:24:17 11.2 C 64 %
2913 19-05-2019 06:36:17 11.2 C 64 %
2914 19-05-2019 06:48:18 11.2 C 64 %
2915 19-05-2019 07:00:17 11.2 C 64 %
2916 19-05-2019 07:12:17 11.2 C 64 %
2917 19-05-2019 07:24:17 11.2 C 64 %
2918 19-05-2019 07:36:18 11.2 C 64 %
2919 19-05-2019 07:48:17 11.2 C 64 %
2920 19-05-2019 08:00:17 12.1 C 64 %
2921 19-05-2019 08:12:17 12.5 C 64 %
2922 19-05-2019 08:24:17 12.5 C 62 %
2923 19-05-2019 08:36:17 12.8 C 60 %
2924 19-05-2019 08:48:17 12.8 C 60 %
2925 19-05-2019 09:00:18 13.3 C 48 %
Sensor: Nr:Datum:Temp:Feuchte:
Aussen-T/F 2926 19-05-2019 09:12:18 13.7 C 46 %
2927 19-05-2019 09:24:17 13.8 C 45 %
2928 19-05-2019 09:36:17 14.3 C 41 %
2929 19-05-2019 09:48:17 15.1 C 37 %
2930 19-05-2019 10:00:18 15.1 C 35 %
2931 19-05-2019 10:12:18 15.8 C 33 %
2932 19-05-2019 10:24:17 15.9 C 32 %
2933 19-05-2019 10:36:17 16 C 32 %
2934 19-05-2019 10:48:17 15.9 C 32 %
2935 19-05-2019 11:00:17 15.8 C 32 %
2936 19-05-2019 11:12:17 16.5 C 32 %
2937 19-05-2019 11:24:17 17.5 C 30 %
2938 19-05-2019 11:36:17 17.8 C 30 %
2939 19-05-2019 11:48:17 17.8 C 28 %
2940 19-05-2019 12:00:17 18.8 C 26 %
2941 19-05-2019 12:12:17 18.6 C 25 %
2942 19-05-2019 12:24:17 19.4 C 25 %
2943 19-05-2019 12:36:17 19.7 C 25 %
2944 19-05-2019 12:48:17 19.5 C 25 %
2945 19-05-2019 13:00:17 19.5 C 25 %
2946 19-05-2019 13:12:18 19 C 23 %
2947 19-05-2019 13:24:17 19.1 C 22 %
2948 19-05-2019 13:36:17 19.4 C 21 %
2949 19-05-2019 13:48:17 19.7 C 20 %
2950 19-05-2019 14:00:17 19.9 C 20 %
Sensor: Nr:Datum:Temp:Feuchte:
Aussen-T/F 2951 19-05-2019 14:12:17 20.6 C 20 %
2952 19-05-2019 14:24:18 21.1 C 20 %
2953 19-05-2019 14:36:17 21.9 C 20 %
2954 19-05-2019 14:48:17 22.6 C 20 %
2955 19-05-2019 15:00:18 22.6 C 20 %
2956 19-05-2019 15:12:18 22.8 C 20 %
2957 19-05-2019 15:24:17 23.1 C 20 %
2958 19-05-2019 15:36:18 23.6 C 20 %
2959 19-05-2019 15:48:17 24 C 20 %
2960 19-05-2019 16:00:17 24 C 20 %
2961 19-05-2019 16:12:17 23.2 C 20 %
2962 19-05-2019 16:24:18 23.8 C 20 %
2963 19-05-2019 16:36:17 24.2 C 20 %
2964 19-05-2019 16:48:17 23.2 C 20 %
2965 19-05-2019 17:00:18 22 C 20 %
2966 19-05-2019 17:12:18 19.9 C 20 %
2967 19-05-2019 17:24:17 19.9 C 20 %
2968 19-05-2019 17:36:17 18.9 C 20 %
2969 19-05-2019 17:48:17 19.1 C 20 %
2970 19-05-2019 18:00:17 19.3 C 20 %
2971 19-05-2019 18:12:17 20.4 C 20 %
2972 19-05-2019 18:24:17 20.4 C 20 %
2973 19-05-2019 18:36:17 21.4 C 20 %
2974 19-05-2019 18:48:17 21.2 C 20 %
2975 19-05-2019 19:00:18 21 C 20 %
Sensor: Nr:Datum:Temp:Feuchte:
Aussen-T/F 2976 19-05-2019 19:12:18 23.4 C 20 %
2977 19-05-2019 19:24:17 22.5 C 20 %
2978 19-05-2019 19:36:18 20.4 C 20 %
2979 19-05-2019 19:48:17 20.4 C 20 %
2980 19-05-2019 20:00:17 19.3 C 20 %
2981 19-05-2019 20:12:17 18.9 C 20 %
2982 19-05-2019 20:24:18 18.8 C 20 %
2983 19-05-2019 20:36:17 17.7 C 20 %
2984 19-05-2019 20:48:17 16.2 C 25 %
2985 19-05-2019 21:00:17 15.5 C 27 %
2986 19-05-2019 21:12:17 14.9 C 29 %
2987 19-05-2019 21:24:17 14.6 C 31 %
2988 19-05-2019 21:36:17 14.5 C 33 %
2989 19-05-2019 21:48:17 14.3 C 33 %
2990 19-05-2019 22:00:17 14.1 C 34 %
2991 19-05-2019 22:12:17 14 C 35 %
2992 19-05-2019 22:24:17 14.1 C 35 %
2993 19-05-2019 22:36:17 14.2 C 35 %
2994 19-05-2019 22:48:17 14.1 C 35 %
2995 19-05-2019 23:00:17 14.4 C 32 %
2996 19-05-2019 23:12:17 14.2 C 32 %
2997 19-05-2019 23:24:17 14.4 C 32 %
2998 19-05-2019 23:36:18 14 C 32 %
2999 19-05-2019 23:48:17 13.8 C 34 %
3000 20-05-2019 00:00:17 13.8 C 34 %
Sensor: Nr:Datum:Temp:Feuchte:
Aussen-T/F 3001 20-05-2019 00:12:17 14.2 C 32 %
3002 20-05-2019 00:24:17 14 C 33 %
3003 20-05-2019 00:36:17 13.7 C 35 %
3004 20-05-2019 00:48:17 13.4 C 37 %
3005 20-05-2019 01:00:18 13.2 C 38 %
3006 20-05-2019 01:12:18 13.1 C 40 %
3007 20-05-2019 01:24:17 12.9 C 41 %
3008 20-05-2019 01:36:17 12.9 C 41 %
3009 20-05-2019 01:48:17 12.1 C 44 %
3010 20-05-2019 02:00:17 12 C 45 %
3011 20-05-2019 02:12:17 12 C 45 %
3012 20-05-2019 02:24:17 11.7 C 46 %
3013 20-05-2019 02:36:18 11.6 C 46 %
3014 20-05-2019 02:48:17 11.6 C 46 %
3015 20-05-2019 03:00:17 11.6 C 46 %
3016 20-05-2019 03:12:17 11.8 C 49 %
3017 20-05-2019 03:24:17 11.8 C 47 %
3018 20-05-2019 03:36:17 11.7 C 47 %
3019 20-05-2019 03:48:17 12 C 48 %
3020 20-05-2019 04:00:18 12.1 C 47 %
3021 20-05-2019 04:12:18 12.5 C 46 %
3022 20-05-2019 04:24:17 12.7 C 44 %
3023 20-05-2019 04:36:17 12.8 C 43 %
3024 20-05-2019 04:48:17 12.9 C 41 %
3025 20-05-2019 05:00:17 13.1 C 40 %
Sensor: Nr:Datum:Temp:Feuchte:
Aussen-T/F 3026 20-05-2019 05:12:17 13.1 C 40 %
3027 20-05-2019 05:24:17 13.1 C 40 %
3028 20-05-2019 05:36:17 13.1 C 40 %
3029 20-05-2019 05:48:17 13.1 C 40 %
3030 20-05-2019 06:00:18 13.1 C 39 %
3031 20-05-2019 06:12:18 13.1 C 38 %
3032 20-05-2019 06:24:17 13.1 C 39 %
3033 20-05-2019 06:36:17 13.1 C 38 %
3034 20-05-2019 06:48:17 13 C 39 %
3035 20-05-2019 07:00:18 13.1 C 39 %
3036 20-05-2019 07:12:18 13.1 C 39 %
3037 20-05-2019 07:24:17 13.1 C 39 %
3038 20-05-2019 07:36:17 13.1 C 39 %
3039 20-05-2019 07:48:17 13.2 C 39 %
3040 20-05-2019 08:00:17 13.2 C 39 %
3041 20-05-2019 08:12:17 13.2 C 39 %
3042 20-05-2019 08:24:17 13.5 C 38 %
3043 20-05-2019 08:36:18 13.6 C 38 %
3044 20-05-2019 08:48:18 13.7 C 37 %
3045 20-05-2019 09:00:17 13.6 C 37 %
3046 20-05-2019 09:12:17 13.8 C 36 %
3047 20-05-2019 09:24:17 14 C 35 %
3048 20-05-2019 09:36:18 14 C 35 %
3049 20-05-2019 09:48:17 14 C 35 %
3050 20-05-2019 10:00:17 14.2 C 35 %
Sensor: Nr:Datum:Temp:Feuchte:
Aussen-T/F 3051 20-05-2019 10:12:17 14.2 C 34 %
3052 20-05-2019 10:24:17 14.2 C 34 %
3053 20-05-2019 10:36:17 14 C 35 %
3054 20-05-2019 10:48:17 13.6 C 40 %
3055 20-05-2019 11:00:17 13.5 C 41 %
3056 20-05-2019 11:12:17 13.5 C 44 %
3057 20-05-2019 11:24:17 13.4 C 44 %
3058 20-05-2019 11:36:17 13.7 C 46 %
3059 20-05-2019 11:48:17 13.4 C 44 %
3060 20-05-2019 12:00:17 13.6 C 45 %
3061 20-05-2019 12:12:17 13.5 C 44 %
3062 20-05-2019 12:24:17 13.7 C 43 %
3063 20-05-2019 12:36:18 13.8 C 41 %
3064 20-05-2019 12:48:17 13.8 C 40 %
3065 20-05-2019 13:00:17 13.8 C 41 %
3066 20-05-2019 13:12:17 13.8 C 41 %
3067 20-05-2019 13:24:18 13.4 C 42 %
3068 20-05-2019 13:36:17 13.4 C 42 %
3069 20-05-2019 13:48:17 13.5 C 42 %
3070 20-05-2019 14:00:17 13.8 C 41 %
3071 20-05-2019 14:12:17 14.1 C 37 %
3072 20-05-2019 14:24:17 14.6 C 36 %
3073 20-05-2019 14:36:17 14.5 C 36 %
3074 20-05-2019 14:48:17 14.5 C 35 %
3075 20-05-2019 15:00:17 14.9 C 34 %
Sensor: Nr:Datum:Temp:Feuchte:
Aussen-T/F 3076 20-05-2019 15:12:17 14.8 C 33 %
3077 20-05-2019 15:24:17 14.5 C 35 %
3078 20-05-2019 15:36:17 14.5 C 36 %
3079 20-05-2019 15:48:17 14.5 C 34 %
3080 20-05-2019 16:00:18 14.6 C 33 %
3081 20-05-2019 16:12:18 14.7 C 33 %
3082 20-05-2019 16:24:17 14.9 C 32 %
3083 20-05-2019 16:36:18 15 C 31 %
3084 20-05-2019 16:48:18 15.1 C 31 %
3085 20-05-2019 17:00:17 15 C 31 %
3086 20-05-2019 17:12:17 14.8 C 33 %
3087 20-05-2019 17:24:17 14.8 C 32 %
3088 20-05-2019 17:36:17 14.8 C 33 %
3089 20-05-2019 17:48:17 14.8 C 33 %
3090 20-05-2019 18:00:18 14.8 C 32 %
3091 20-05-2019 18:12:18 14.8 C 32 %
3092 20-05-2019 18:24:17 14.7 C 32 %
3093 20-05-2019 18:36:17 14.7 C 32 %
3094 20-05-2019 18:48:17 14.6 C 32 %
3095 20-05-2019 19:00:17 14.5 C 32 %
3096 20-05-2019 19:12:17 14.4 C 33 %
3097 20-05-2019 19:24:17 14.4 C 34 %
3098 20-05-2019 19:36:17 14.3 C 34 %
3099 20-05-2019 19:48:17 14.4 C 33 %
3100 20-05-2019 20:00:17 14.3 C 34 %
Sensor: Nr:Datum:Temp:Feuchte:
Aussen-T/F 3101 20-05-2019 20:12:17 14.2 C 34 %
3102 20-05-2019 20:24:17 14.2 C 34 %
3103 20-05-2019 20:36:17 14.2 C 34 %
3104 20-05-2019 20:48:17 14.2 C 34 %
3105 20-05-2019 21:00:18 14 C 36 %
3106 20-05-2019 21:12:18 13.9 C 37 %
3107 20-05-2019 21:24:17 13.9 C 36 %
3108 20-05-2019 21:36:17 13.9 C 36 %
3109 20-05-2019 21:48:17 13.8 C 36 %
3110 20-05-2019 22:00:17 13.8 C 36 %
3111 20-05-2019 22:12:17 13.8 C 36 %
3112 20-05-2019 22:24:18 13.8 C 36 %
3113 20-05-2019 22:36:17 13.7 C 36 %
3114 20-05-2019 22:48:17 13.7 C 36 %
3115 20-05-2019 23:00:17 13.7 C 36 %
3116 20-05-2019 23:12:18 13.8 C 35 %
3117 20-05-2019 23:24:17 13.7 C 36 %
3118 20-05-2019 23:36:18 14 C 33 %
3119 20-05-2019 23:48:17 14 C 32 %
3120 21-05-2019 00:00:17 14.1 C 32 %
3121 21-05-2019 00:12:17 14 C 33 %
3122 21-05-2019 00:24:17 13.9 C 34 %
3123 21-05-2019 00:36:17 13.8 C 35 %
3124 21-05-2019 00:48:17 13.8 C 35 %
3125 21-05-2019 01:00:17 13.5 C 38 %
Sensor: Nr:Datum:Temp:Feuchte:
Aussen-T/F 3126 21-05-2019 01:12:17 13.5 C 39 %
3127 21-05-2019 01:24:17 13.4 C 39 %
3128 21-05-2019 01:36:17 13.4 C 40 %
3129 21-05-2019 01:48:17 13.2 C 40 %
3130 21-05-2019 02:00:17 13.2 C 41 %
3131 21-05-2019 02:12:17 13.2 C 41 %
3132 21-05-2019 02:24:17 13.2 C 40 %
3133 21-05-2019 02:36:17 13.2 C 40 %
3134 21-05-2019 02:48:18 13 C 42 %
3135 21-05-2019 03:00:17 12.9 C 43 %
3136 21-05-2019 03:12:17 13 C 43 %
3137 21-05-2019 03:24:17 13 C 43 %
3138 21-05-2019 03:36:18 12.8 C 43 %
3139 21-05-2019 03:48:17 12.8 C 43 %
3140 21-05-2019 04:00:18 12.8 C 42 %
3141 21-05-2019 04:12:18 12.8 C 42 %
3142 21-05-2019 04:24:17 12.8 C 41 %
3143 21-05-2019 04:36:17 12.8 C 41 %
3144 21-05-2019 04:48:18 12.8 C 40 %
3145 21-05-2019 05:00:17 12.7 C 40 %
3146 21-05-2019 05:12:17 12.2 C 41 %
3147 21-05-2019 05:24:17 12 C 45 %
3148 21-05-2019 05:36:18 11.8 C 48 %
3149 21-05-2019 05:48:17 11.8 C 48 %
3150 21-05-2019 06:00:17 11.6 C 49 %
Sensor: Nr:Datum:Temp:Feuchte:
Aussen-T/F 3151 21-05-2019 06:12:17 11.5 C 49 %
3152 21-05-2019 06:24:17 11.5 C 49 %
3153 21-05-2019 06:36:17 11.4 C 49 %
3154 21-05-2019 06:48:17 11.5 C 49 %
3155 21-05-2019 07:00:17 11.4 C 50 %
3156 21-05-2019 07:12:17 11.4 C 50 %
3157 21-05-2019 07:24:17 11.5 C 49 %
3158 21-05-2019 07:36:17 11.5 C 47 %
3159 21-05-2019 07:48:17 11.5 C 47 %
3160 21-05-2019 08:00:17 11.5 C 47 %
3161 21-05-2019 08:12:17 11.5 C 47 %
3162 21-05-2019 08:24:17 11.6 C 47 %
3163 21-05-2019 08:36:17 11.7 C 46 %
3164 21-05-2019 08:48:17 11.7 C 46 %
3165 21-05-2019 09:00:17 11.7 C 46 %
3166 21-05-2019 09:12:17 11.7 C 46 %
3167 21-05-2019 09:24:17 11.7 C 46 %
3168 21-05-2019 09:36:17 11.7 C 45 %
3169 21-05-2019 09:48:17 11.7 C 46 %
3170 21-05-2019 10:00:18 11.6 C 46 %
3171 21-05-2019 10:12:18 11.6 C 47 %
3172 21-05-2019 10:24:17 11.6 C 47 %
3173 21-05-2019 10:36:17 11.6 C 46 %
3174 21-05-2019 10:48:18 11.6 C 45 %
3175 21-05-2019 11:00:17 11.7 C 46 %
Sensor: Nr:Datum:Temp:Feuchte:
Aussen-T/F 3176 21-05-2019 11:12:17 11.7 C 46 %
3177 21-05-2019 11:24:17 11.4 C 45 %
3178 21-05-2019 11:36:17 11.4 C 45 %
3179 21-05-2019 11:48:17 11.4 C 46 %
3180 21-05-2019 12:00:17 11.4 C 47 %
3181 21-05-2019 12:12:17 11.4 C 46 %
3182 21-05-2019 12:24:17 11.5 C 46 %
3183 21-05-2019 12:36:17 11.4 C 46 %
3184 21-05-2019 12:48:17 11.5 C 46 %
3185 21-05-2019 13:00:17 11.4 C 46 %
3186 21-05-2019 13:12:17 11.5 C 47 %
3187 21-05-2019 13:24:17 11.6 C 46 %
3188 21-05-2019 13:36:18 11.6 C 46 %
3189 21-05-2019 13:48:17 11.8 C 47 %
3190 21-05-2019 14:00:17 11.5 C 46 %
3191 21-05-2019 14:12:17 11.6 C 47 %
3192 21-05-2019 14:24:18 11.5 C 47 %
3193 21-05-2019 14:36:17 11.4 C 46 %
3194 21-05-2019 14:48:17 11.5 C 46 %
3195 21-05-2019 15:00:17 11.2 C 46 %
3196 21-05-2019 15:12:17 11.3 C 45 %
3197 21-05-2019 15:24:17 11.6 C 45 %
3198 21-05-2019 15:36:17 11.6 C 45 %
3199 21-05-2019 15:48:17 11.4 C 45 %
3200 21-05-2019 16:00:17 11.4 C 46 %
Sensor: Nr:Datum:Temp:Feuchte:
Aussen-T/F 3201 21-05-2019 16:12:17 11.4 C 47 %
3202 21-05-2019 16:24:17 11.4 C 47 %
3203 21-05-2019 16:36:17 11.4 C 47 %
3204 21-05-2019 16:48:17 11.4 C 47 %
3205 21-05-2019 17:00:18 11.5 C 48 %
3206 21-05-2019 17:12:18 11.5 C 48 %
3207 21-05-2019 17:24:17 11.4 C 46 %
3208 21-05-2019 17:36:17 11.5 C 46 %
3209 21-05-2019 17:48:17 11.5 C 47 %
3210 21-05-2019 18:00:18 11.6 C 46 %
3211 21-05-2019 18:12:18 11.6 C 46 %
3212 21-05-2019 18:24:17 11.6 C 46 %
3213 21-05-2019 18:36:17 11.8 C 47 %
3214 21-05-2019 18:48:17 11.8 C 47 %
3215 21-05-2019 19:00:18 11.8 C 47 %
3216 21-05-2019 19:12:18 11.8 C 45 %
3217 21-05-2019 19:24:17 11.7 C 46 %
3218 21-05-2019 19:36:17 11.7 C 47 %
3219 21-05-2019 19:48:17 11.6 C 47 %
3220 21-05-2019 20:00:17 11.6 C 49 %
3221 21-05-2019 20:12:17 11.5 C 50 %
3222 21-05-2019 20:24:17 11.5 C 50 %
3223 21-05-2019 20:36:17 11.5 C 50 %
3224 21-05-2019 20:48:17 11.4 C 49 %
3225 21-05-2019 21:00:17 11.4 C 49 %
Sensor: Nr:Datum:Temp:Feuchte:
Aussen-T/F 3226 21-05-2019 21:12:17 11.3 C 49 %
3227 21-05-2019 21:24:17 11.4 C 49 %
3228 21-05-2019 21:36:17 11.3 C 50 %
3229 21-05-2019 21:48:18 11.3 C 50 %
3230 21-05-2019 22:00:17 11.3 C 50 %
3231 21-05-2019 22:12:17 11.3 C 50 %
3232 21-05-2019 22:24:17 11.2 C 50 %
3233 21-05-2019 22:36:17 11.2 C 50 %
3234 21-05-2019 22:48:17 11.3 C 50 %
3235 21-05-2019 23:00:18 11.1 C 50 %
3236 21-05-2019 23:12:18 11.3 C 50 %
3237 21-05-2019 23:24:17 11.2 C 50 %
3238 21-05-2019 23:36:17 11.2 C 51 %
3239 21-05-2019 23:48:18 11.1 C 53 %
3240 22-05-2019 00:00:17 11.2 C 53 %
3241 22-05-2019 00:12:17 11.2 C 53 %
3242 22-05-2019 00:24:17 11.2 C 54 %
3243 22-05-2019 00:36:18 11.2 C 55 %
3244 22-05-2019 00:48:17 11.2 C 57 %
3245 22-05-2019 01:00:17 11.2 C 58 %
3246 22-05-2019 01:12:17 11.2 C 58 %
3247 22-05-2019 01:24:17 11.1 C 59 %
3248 22-05-2019 01:36:17 11.2 C 59 %
3249 22-05-2019 01:48:17 11.1 C 59 %
3250 22-05-2019 02:00:17 11 C 55 %
Sensor: Nr:Datum:Temp:Feuchte:
Aussen-T/F 3251 22-05-2019 02:12:17 11 C 52 %
3252 22-05-2019 02:24:17 11 C 52 %
3253 22-05-2019 02:36:17 11 C 52 %
3254 22-05-2019 02:48:17 11.1 C 48 %
3255 22-05-2019 03:00:17 11.1 C 48 %
3256 22-05-2019 03:12:17 11.1 C 48 %
3257 22-05-2019 03:24:18 10.8 C 47 %
3258 22-05-2019 03:36:17 11.1 C 46 %
3259 22-05-2019 03:48:17 11.1 C 45 %
3260 22-05-2019 04:00:17 11.1 C 45 %
3261 22-05-2019 04:12:17 11 C 45 %
3262 22-05-2019 04:25:17 11 C 44 %
3263 22-05-2019 04:36:17 11 C 44 %
3264 22-05-2019 04:48:17 11 C 44 %
3265 22-05-2019 05:00:17 11 C 44 %
3266 22-05-2019 05:12:17 10.9 C 45 %
3267 22-05-2019 05:24:18 10.9 C 45 %
3268 22-05-2019 05:37:17 10.9 C 45 %
3269 22-05-2019 05:48:17 10.9 C 45 %
3270 22-05-2019 06:00:18 10.8 C 43 %
3271 22-05-2019 06:12:18 10.8 C 42 %
3272 22-05-2019 06:25:17 10.7 C 42 %
3273 22-05-2019 06:36:17 10.6 C 42 %
3274 22-05-2019 06:48:17 10.6 C 42 %
3275 22-05-2019 07:00:18 10.5 C 42 %
Sensor: Nr:Datum:Temp:Feuchte:
Aussen-T/F 3276 22-05-2019 07:12:18 10.5 C 43 %
3277 22-05-2019 07:24:17 10.4 C 42 %
3278 22-05-2019 07:36:17 10.2 C 42 %
3279 22-05-2019 07:48:18 10.2 C 41 %
3280 22-05-2019 08:00:17 10.2 C 41 %
3281 22-05-2019 08:12:17 10 C 41 %
3282 22-05-2019 08:24:18 10.1 C 39 %
3283 22-05-2019 08:37:17 10.3 C 37 %
3284 22-05-2019 08:49:17 10.4 C 36 %
3285 22-05-2019 09:00:17 10.4 C 35 %
3286 22-05-2019 09:12:17 10.3 C 34 %
3287 22-05-2019 09:25:17 10.4 C 32 %
3288 22-05-2019 09:37:17 10.4 C 32 %
3289 22-05-2019 09:49:17 10.5 C 31 %
3290 22-05-2019 10:00:18 10.7 C 31 %
3291 22-05-2019 10:12:18 10.8 C 30 %
3292 22-05-2019 10:25:17 10.9 C 29 %
3293 22-05-2019 10:36:17 11 C 27 %
3294 22-05-2019 10:49:17 11.2 C 28 %
3295 22-05-2019 11:01:17 11.4 C 27 %
3296 22-05-2019 11:13:17 11.5 C 27 %
3297 22-05-2019 11:24:17 11.8 C 27 %
3298 22-05-2019 11:37:17 12.5 C 26 %
3299 22-05-2019 11:49:17 12.5 C 24 %
3300 22-05-2019 12:01:17 13.6 C 21 %
Sensor: Nr:Datum:Temp:Feuchte:
Aussen-T/F 3301 22-05-2019 12:12:17 13.7 C 20 %
3302 22-05-2019 12:24:18 14.2 C 20 %
3303 22-05-2019 12:37:17 14.8 C 20 %
3304 22-05-2019 12:49:17 14.1 C 20 %
3305 22-05-2019 13:00:17 13.7 C 20 %
3306 22-05-2019 13:12:17 14.4 C 20 %
3307 22-05-2019 13:25:17 14.4 C 20 %
3308 22-05-2019 13:37:17 14.9 C 20 %
3309 22-05-2019 13:49:17 15.2 C 20 %
3310 22-05-2019 14:00:17 15.6 C 20 %
3311 22-05-2019 14:12:18 15.8 C 20 %
3312 22-05-2019 14:25:17 16.5 C 20 %
3313 22-05-2019 14:37:17 16 C 20 %
3314 22-05-2019 14:49:17 16.6 C 20 %
3315 22-05-2019 15:01:17 17.4 C 20 %
3316 22-05-2019 15:13:17 17.1 C 20 %
3317 22-05-2019 15:25:17 18 C 20 %
3318 22-05-2019 15:37:17 18.5 C 20 %
3319 22-05-2019 15:48:17 18.8 C 20 %
3320 22-05-2019 16:01:17 18.9 C 20 %
3321 22-05-2019 16:13:17 19.7 C 20 %
3322 22-05-2019 16:25:17 18.9 C 20 %
3323 22-05-2019 16:37:17 18.1 C 20 %
3324 22-05-2019 16:49:17 18.5 C 20 %
3325 22-05-2019 17:01:17 18.5 C 20 %
Sensor: Nr:Datum:Temp:Feuchte:
Aussen-T/F 3326 22-05-2019 17:13:17 18.3 C 20 %
3327 22-05-2019 17:25:17 18.2 C 20 %
3328 22-05-2019 17:37:17 19.2 C 20 %
3329 22-05-2019 17:49:17 19.3 C 20 %
3330 22-05-2019 18:01:17 19.4 C 20 %
3331 22-05-2019 18:13:17 19.2 C 20 %
3332 22-05-2019 18:25:17 20.2 C 20 %
3333 22-05-2019 18:36:18 19.6 C 20 %
3334 22-05-2019 18:49:17 19.5 C 20 %
3335 22-05-2019 19:01:17 20.1 C 20 %
3336 22-05-2019 19:13:17 21.3 C 20 %
3337 22-05-2019 19:25:18 19.7 C 20 %
3338 22-05-2019 19:37:17 18.7 C 20 %
3339 22-05-2019 19:49:17 18.7 C 20 %
3340 22-05-2019 20:01:18 17.3 C 20 %
3341 22-05-2019 20:12:18 16.5 C 20 %
3342 22-05-2019 20:25:17 16 C 22 %
3343 22-05-2019 20:37:17 15 C 23 %
3344 22-05-2019 20:49:17 14 C 27 %
3345 22-05-2019 21:01:18 13.2 C 29 %
3346 22-05-2019 21:13:18 12.8 C 30 %
3347 22-05-2019 21:25:17 12.5 C 30 %
3348 22-05-2019 21:37:17 12 C 32 %
3349 22-05-2019 21:49:17 11.7 C 35 %
3350 22-05-2019 22:01:18 11.2 C 36 %
Sensor: Nr:Datum:Temp:Feuchte:
Aussen-T/F 3351 22-05-2019 22:13:18 11 C 38 %
3352 22-05-2019 22:25:17 10.6 C 41 %
3353 22-05-2019 22:37:17 10.5 C 42 %
3354 22-05-2019 22:49:17 10.2 C 43 %
3355 22-05-2019 23:01:18 10.2 C 43 %
3356 22-05-2019 23:13:18 9.8 C 45 %
3357 22-05-2019 23:25:17 9.6 C 45 %
3358 22-05-2019 23:37:17 9.4 C 46 %
3359 22-05-2019 23:49:17 9.3 C 47 %
3360 23-05-2019 00:01:17 9.1 C 47 %
3361 23-05-2019 00:13:17 9 C 47 %
3362 23-05-2019 00:25:18 8.8 C 48 %
3363 23-05-2019 00:37:17 8.8 C 48 %
3364 23-05-2019 00:49:17 8.7 C 48 %
3365 23-05-2019 01:01:17 8.6 C 49 %
3366 23-05-2019 01:13:17 8.6 C 49 %
3367 23-05-2019 01:25:18 8.5 C 49 %
3368 23-05-2019 01:37:17 8.4 C 49 %
3369 23-05-2019 01:49:17 8.3 C 49 %
3370 23-05-2019 02:01:17 8.1 C 49 %
3371 23-05-2019 02:13:17 8 C 49 %
3372 23-05-2019 02:25:17 8 C 50 %
3373 23-05-2019 02:37:17 8.1 C 50 %
3374 23-05-2019 02:49:17 8 C 50 %
3375 23-05-2019 03:01:17 8 C 50 %
Sensor: Nr:Datum:Temp:Feuchte:
Aussen-T/F 3376 23-05-2019 03:13:17 8 C 50 %
3377 23-05-2019 03:25:17 8 C 50 %
3378 23-05-2019 03:37:17 7.9 C 51 %
3379 23-05-2019 03:49:17 7.8 C 51 %
3380 23-05-2019 04:01:17 7.6 C 51 %
3381 23-05-2019 04:13:17 7.4 C 51 %
3382 23-05-2019 04:25:18 7.5 C 51 %
3383 23-05-2019 04:37:17 7.3 C 51 %
3384 23-05-2019 04:49:17 7.3 C 51 %
3385 23-05-2019 05:01:17 7.2 C 51 %
3386 23-05-2019 05:13:17 7.1 C 51 %
3387 23-05-2019 05:25:17 7.2 C 52 %
3388 23-05-2019 05:37:17 7.1 C 52 %
3389 23-05-2019 05:49:17 7 C 52 %
3390 23-05-2019 06:01:17 7.3 C 53 %
3391 23-05-2019 06:13:17 7.3 C 53 %
3392 23-05-2019 06:25:17 7.7 C 54 %
3393 23-05-2019 06:37:17 8 C 53 %
3394 23-05-2019 06:49:17 8 C 54 %
3395 23-05-2019 07:01:17 8.4 C 50 %
3396 23-05-2019 07:13:17 8.6 C 48 %
3397 23-05-2019 07:25:18 8.8 C 47 %
3398 23-05-2019 07:37:17 8.8 C 46 %
3399 23-05-2019 07:49:17 8.9 C 45 %
3400 23-05-2019 08:01:17 9.1 C 45 %
Sensor: Nr:Datum:Temp:Feuchte:
Aussen-T/F 3401 23-05-2019 08:13:17 9.3 C 45 %
3402 23-05-2019 08:25:17 9.8 C 45 %
3403 23-05-2019 08:37:17 10.1 C 42 %
3404 23-05-2019 08:49:17 10.5 C 41 %
3405 23-05-2019 09:01:17 10.7 C 41 %
3406 23-05-2019 09:13:17 11.4 C 40 %
3407 23-05-2019 09:25:17 12 C 36 %
3408 23-05-2019 09:37:17 12.8 C 34 %
3409 23-05-2019 09:49:17 13.2 C 31 %
3410 23-05-2019 10:01:18 13.4 C 31 %
3411 23-05-2019 10:13:18 13.8 C 31 %
3412 23-05-2019 10:25:17 14.2 C 31 %
3413 23-05-2019 10:37:17 15.4 C 30 %
3414 23-05-2019 10:49:18 16.8 C 25 %
3415 23-05-2019 11:01:17 19.3 C 20 %
3416 23-05-2019 11:13:17 19 C 20 %
3417 23-05-2019 11:25:17 21.1 C 20 %
3418 23-05-2019 11:37:17 21.2 C 20 %
3419 23-05-2019 11:49:17 21.2 C 20 %
3420 23-05-2019 12:01:17 19.2 C 20 %
3421 23-05-2019 12:13:17 19.1 C 20 %
3422 23-05-2019 12:25:18 19.3 C 20 %
3423 23-05-2019 12:37:17 19.5 C 20 %
3424 23-05-2019 12:49:17 19.5 C 20 %
3425 23-05-2019 13:01:18 19.2 C 20 %
Sensor: Nr:Datum:Temp:Feuchte:
Aussen-T/F 3426 23-05-2019 13:13:18 19.3 C 20 %
3427 23-05-2019 13:25:17 20 C 20 %
3428 23-05-2019 13:37:17 20.8 C 20 %
3429 23-05-2019 13:49:17 21.6 C 20 %
3430 23-05-2019 14:01:17 21.6 C 20 %
3431 23-05-2019 14:13:17 22.6 C 20 %
3432 23-05-2019 14:25:17 22.6 C 20 %
3433 23-05-2019 14:37:18 22.5 C 20 %
3434 23-05-2019 14:49:17 23 C 20 %
3435 23-05-2019 15:01:17 22.9 C 20 %
3436 23-05-2019 15:13:17 22.8 C 20 %
3437 23-05-2019 15:25:17 22.3 C 20 %
3438 23-05-2019 15:37:18 23.6 C 20 %
3439 23-05-2019 15:49:17 24.7 C 20 %
3440 23-05-2019 16:01:17 24.4 C 20 %
3441 23-05-2019 16:13:17 24.6 C 20 %
3442 23-05-2019 16:25:17 24.8 C 20 %
3443 23-05-2019 16:37:17 25 C 20 %
3444 23-05-2019 16:49:17 24.7 C 20 %
3445 23-05-2019 17:01:17 25.6 C 20 %
3446 23-05-2019 17:13:17 25.6 C 20 %
3447 23-05-2019 17:25:17 25.6 C 20 %
3448 23-05-2019 17:37:17 25.9 C 20 %
3449 23-05-2019 17:49:17 25.9 C 20 %
3450 23-05-2019 18:01:17 25.5 C 20 %
Sensor: Nr:Datum:Temp:Feuchte:
Aussen-T/F 3451 23-05-2019 18:13:17 25.6 C 20 %
3452 23-05-2019 18:25:18 25.6 C 20 %
3453 23-05-2019 18:37:17 25.5 C 20 %
3454 23-05-2019 18:49:17 24.9 C 20 %
3455 23-05-2019 19:01:17 24.4 C 20 %
3456 23-05-2019 19:13:17 24.6 C 20 %
3457 23-05-2019 19:25:17 22.4 C 20 %
3458 23-05-2019 19:37:17 21.6 C 20 %
3459 23-05-2019 19:49:17 20.3 C 20 %
3460 23-05-2019 20:01:18 19.3 C 20 %
3461 23-05-2019 20:13:18 18.2 C 20 %
3462 23-05-2019 20:25:17 17.7 C 20 %
3463 23-05-2019 20:37:17 17 C 20 %
3464 23-05-2019 20:49:17 16.8 C 20 %
3465 23-05-2019 21:01:18 16.3 C 20 %
3466 23-05-2019 21:13:18 16 C 21 %
3467 23-05-2019 21:25:17 15.7 C 23 %
3468 23-05-2019 21:37:18 15.1 C 25 %
3469 23-05-2019 21:49:17 14.7 C 26 %
3470 23-05-2019 22:01:17 14.5 C 28 %
3471 23-05-2019 22:13:17 14.5 C 29 %
3472 23-05-2019 22:25:17 14.4 C 29 %
3473 23-05-2019 22:37:17 13.9 C 31 %
3474 23-05-2019 22:49:17 13.6 C 32 %
3475 23-05-2019 23:01:17 13.4 C 33 %
Sensor: Nr:Datum:Temp:Feuchte:
Aussen-T/F 3476 23-05-2019 23:13:17 13.4 C 33 %
3477 23-05-2019 23:25:17 13 C 32 %
3478 23-05-2019 23:37:17 13 C 32 %
3479 23-05-2019 23:49:17 12.6 C 36 %
3480 24-05-2019 00:01:17 12.2 C 37 %
3481 24-05-2019 00:13:17 12.3 C 38 %
3482 24-05-2019 00:25:17 12.4 C 38 %
3483 24-05-2019 00:37:17 12.2 C 36 %
3484 24-05-2019 00:49:17 12 C 37 %
3485 24-05-2019 01:01:17 12 C 37 %
3486 24-05-2019 01:13:17 11.8 C 39 %
3487 24-05-2019 01:25:17 11.8 C 40 %
3488 24-05-2019 01:37:18 11.9 C 40 %
3489 24-05-2019 01:49:17 11.8 C 39 %
3490 24-05-2019 02:01:17 11.5 C 40 %
3491 24-05-2019 02:13:17 11.3 C 41 %
3492 24-05-2019 02:25:18 11.2 C 41 %
3493 24-05-2019 02:37:17 11.2 C 42 %
3494 24-05-2019 02:49:17 11.2 C 42 %
3495 24-05-2019 03:01:17 11.3 C 42 %
3496 24-05-2019 03:13:17 11.1 C 43 %
3497 24-05-2019 03:25:17 10.9 C 44 %
3498 24-05-2019 03:37:17 10.8 C 44 %
3499 24-05-2019 03:49:17 11 C 45 %
3500 24-05-2019 04:01:17 11.1 C 45 %
Sensor: Nr:Datum:Temp:Feuchte:
Aussen-T/F 3501 24-05-2019 04:13:17 11 C 44 %
3502 24-05-2019 04:25:17 10.9 C 45 %
3503 24-05-2019 04:37:17 10.9 C 45 %
3504 24-05-2019 04:49:17 11.1 C 45 %
3505 24-05-2019 05:01:17 11.1 C 45 %
3506 24-05-2019 05:13:17 11 C 44 %
3507 24-05-2019 05:25:17 10.8 C 45 %
3508 24-05-2019 05:37:18 10.6 C 45 %
3509 24-05-2019 05:49:17 10.5 C 45 %
3510 24-05-2019 06:01:18 10.4 C 45 %
3511 24-05-2019 06:13:18 10.4 C 45 %
3512 24-05-2019 06:25:17 10.8 C 47 %
3513 24-05-2019 06:37:17 11 C 46 %
3514 24-05-2019 06:49:18 11.2 C 45 %
3515 24-05-2019 07:01:17 11.3 C 45 %
3516 24-05-2019 07:13:17 11.7 C 44 %
3517 24-05-2019 07:25:17 12 C 42 %
3518 24-05-2019 07:37:17 12 C 38 %
3519 24-05-2019 07:49:17 12 C 38 %
3520 24-05-2019 08:01:17 12.7 C 35 %
3521 24-05-2019 08:13:17 13.4 C 34 %
3522 24-05-2019 08:25:17 14.1 C 28 %
3523 24-05-2019 08:37:17 14.5 C 26 %
3524 24-05-2019 08:49:17 14.9 C 26 %
3525 24-05-2019 09:01:17 15.2 C 22 %
Sensor: Nr:Datum:Temp:Feuchte:
Aussen-T/F 3526 24-05-2019 09:13:17 15.9 C 22 %
3527 24-05-2019 09:25:17 16.2 C 20 %
3528 24-05-2019 09:37:17 16.8 C 20 %
3529 24-05-2019 09:49:17 16.7 C 20 %
3530 24-05-2019 10:01:17 16.7 C 22 %
3531 24-05-2019 10:13:17 17.1 C 20 %
3532 24-05-2019 10:25:17 17.7 C 20 %
3533 24-05-2019 10:37:17 19.1 C 20 %
3534 24-05-2019 10:49:17 19.5 C 20 %
3535 24-05-2019 11:01:17 20.8 C 20 %
3536 24-05-2019 11:13:17 22 C 20 %
3537 24-05-2019 11:25:17 23.9 C 20 %
3538 24-05-2019 11:37:18 23.6 C 20 %
3539 24-05-2019 11:49:17 22.3 C 20 %
3540 24-05-2019 12:01:17 21.9 C 20 %
3541 24-05-2019 12:13:17 21.7 C 20 %
3542 24-05-2019 12:25:17 21.6 C 20 %
3543 24-05-2019 12:37:17 22.1 C 20 %
3544 24-05-2019 12:49:17 22.5 C 20 %
3545 24-05-2019 13:01:17 22.9 C 20 %
3546 24-05-2019 13:13:17 22.7 C 20 %
3547 24-05-2019 13:25:17 22.7 C 20 %
3548 24-05-2019 13:37:17 23.2 C 20 %
3549 24-05-2019 13:49:17 23.7 C 20 %
3550 24-05-2019 14:01:17 23.9 C 20 %
Sensor: Nr:Datum:Temp:Feuchte:
Aussen-T/F 3551 24-05-2019 14:13:18 24.1 C 20 %
3552 24-05-2019 14:25:17 24.2 C 20 %
3553 24-05-2019 14:37:17 24 C 20 %
3554 24-05-2019 14:49:17 24.3 C 20 %
3555 24-05-2019 15:01:17 24.8 C 20 %
3556 24-05-2019 15:13:17 24.9 C 20 %
3557 24-05-2019 15:25:18 24.1 C 20 %
3558 24-05-2019 15:37:17 24.2 C 20 %
3559 24-05-2019 15:49:17 24.2 C 20 %
3560 24-05-2019 16:01:17 24.1 C 20 %
3561 24-05-2019 16:13:17 25.3 C 20 %
3562 24-05-2019 16:25:17 24.3 C 20 %
3563 24-05-2019 16:37:17 24.3 C 20 %
3564 24-05-2019 16:49:17 24.8 C 20 %
3565 24-05-2019 17:01:17 24.3 C 20 %
3566 24-05-2019 17:13:17 24.7 C 20 %
3567 24-05-2019 17:25:17 24.8 C 20 %
3568 24-05-2019 17:37:17 25.3 C 20 %
3569 24-05-2019 17:49:17 26.6 C 20 %
3570 24-05-2019 18:01:18 26.1 C 20 %
3571 24-05-2019 18:13:18 25 C 20 %
3572 24-05-2019 18:25:17 24.3 C 20 %
3573 24-05-2019 18:37:17 24.2 C 20 %
3574 24-05-2019 18:49:17 23.4 C 20 %
3575 24-05-2019 19:01:17 22.5 C 20 %
Sensor: Nr:Datum:Temp:Feuchte:
Aussen-T/F 3576 24-05-2019 19:13:17 20.9 C 20 %
3577 24-05-2019 19:25:17 19.9 C 20 %
3578 24-05-2019 19:37:17 20.6 C 20 %
3579 24-05-2019 19:49:17 20.8 C 20 %
3580 24-05-2019 20:01:17 20.5 C 20 %
3581 24-05-2019 20:13:17 19.3 C 20 %
3582 24-05-2019 20:25:17 19.5 C 20 %
3583 24-05-2019 20:37:17 18.3 C 20 %
3584 24-05-2019 20:49:17 17.6 C 20 %
3585 24-05-2019 21:01:17 17.2 C 20 %
3586 24-05-2019 21:13:17 17.2 C 20 %
3587 24-05-2019 21:25:17 16.5 C 20 %
3588 24-05-2019 21:37:18 15.9 C 20 %
3589 24-05-2019 21:49:17 15.4 C 23 %
3590 24-05-2019 22:01:17 15 C 25 %
3591 24-05-2019 22:13:17 14.5 C 29 %
3592 24-05-2019 22:25:18 14.2 C 31 %
3593 24-05-2019 22:37:17 14.1 C 30 %
3594 24-05-2019 22:49:17 13.7 C 32 %
3595 24-05-2019 23:01:17 13.5 C 32 %
3596 24-05-2019 23:13:17 13.3 C 35 %
3597 24-05-2019 23:25:17 13.8 C 33 %
3598 24-05-2019 23:37:17 14.1 C 30 %
3599 24-05-2019 23:49:17 14.5 C 27 %
3600 25-05-2019 00:01:18 14.8 C 26 %
Sensor: Nr:Datum:Temp:Feuchte:
Aussen-T/F 3601 25-05-2019 00:13:18 15 C 25 %
3602 25-05-2019 00:25:17 14.8 C 25 %
3603 25-05-2019 00:37:17 14.4 C 25 %
3604 25-05-2019 00:49:17 13.9 C 26 %
3605 25-05-2019 01:01:18 13.5 C 27 %
3606 25-05-2019 01:13:18 13.4 C 27 %
3607 25-05-2019 01:25:17 13.2 C 26 %
3608 25-05-2019 01:37:18 13.2 C 26 %
3609 25-05-2019 01:49:17 13 C 25 %
3610 25-05-2019 02:01:17 12.9 C 26 %
3611 25-05-2019 02:13:17 12.4 C 28 %
3612 25-05-2019 02:25:17 12.5 C 26 %
3613 25-05-2019 02:37:17 12.7 C 20 %
3614 25-05-2019 02:49:17 12.4 C 22 %
3615 25-05-2019 03:01:18 12.3 C 24 %
3616 25-05-2019 03:13:18 12 C 25 %
3617 25-05-2019 03:25:17 11.5 C 27 %
3618 25-05-2019 03:37:17 11.3 C 26 %
3619 25-05-2019 03:49:17 10.8 C 27 %
3620 25-05-2019 04:01:17 10.6 C 25 %
3621 25-05-2019 04:13:18 10.6 C 25 %
3622 25-05-2019 04:25:17 10.4 C 25 %
3623 25-05-2019 04:37:17 10.1 C 26 %
3624 25-05-2019 04:49:18 10 C 26 %
3625 25-05-2019 05:01:18 10 C 25 %
Sensor: Nr:Datum:Temp:Feuchte:
Aussen-T/F 3626 25-05-2019 05:13:18 9.8 C 26 %
3627 25-05-2019 05:25:17 9.6 C 28 %
3628 25-05-2019 05:37:17 9.4 C 30 %
3629 25-05-2019 05:49:17 9.2 C 32 %
3630 25-05-2019 06:01:17 9.1 C 33 %
3631 25-05-2019 06:13:17 8.9 C 35 %
3632 25-05-2019 06:25:17 9 C 35 %
3633 25-05-2019 06:37:18 8.9 C 36 %
3634 25-05-2019 06:49:17 8.9 C 38 %
3635 25-05-2019 07:01:17 9 C 38 %
3636 25-05-2019 07:13:17 10 C 30 %
3637 25-05-2019 07:25:17 11.2 C 20 %
3638 25-05-2019 07:37:18 12.2 C 20 %
3639 25-05-2019 07:49:17 12.7 C 20 %
3640 25-05-2019 08:01:17 12.9 C 20 %
3641 25-05-2019 08:13:17 13.3 C 20 %
3642 25-05-2019 08:25:18 13.5 C 20 %
3643 25-05-2019 08:37:17 13.5 C 20 %
3644 25-05-2019 08:49:17 13.7 C 20 %
3645 25-05-2019 09:01:17 14.1 C 20 %
3646 25-05-2019 09:13:17 14.3 C 20 %
3647 25-05-2019 09:25:17 14.7 C 20 %
3648 25-05-2019 09:37:17 15.6 C 20 %
3649 25-05-2019 09:49:17 15.9 C 20 %
3650 25-05-2019 10:01:17 15.6 C 20 %
Sensor: Nr:Datum:Temp:Feuchte:
Aussen-T/F 3651 25-05-2019 10:13:18 15.3 C 20 %
3652 25-05-2019 10:25:17 16.4 C 20 %
3653 25-05-2019 10:37:17 17.5 C 20 %
3654 25-05-2019 10:49:17 17 C 20 %
3655 25-05-2019 11:01:18 16.6 C 20 %
3656 25-05-2019 11:13:18 17.2 C 20 %
3657 25-05-2019 11:25:17 17.7 C 20 %
3658 25-05-2019 11:37:17 20.5 C 20 %
3659 25-05-2019 11:49:17 18.9 C 20 %
3660 25-05-2019 12:01:17 17.9 C 20 %
3661 25-05-2019 12:13:17 17.3 C 20 %
3662 25-05-2019 12:25:17 17.7 C 20 %
3663 25-05-2019 12:37:18 18.7 C 20 %
3664 25-05-2019 12:49:17 18.7 C 20 %
3665 25-05-2019 13:01:17 19.5 C 20 %
3666 25-05-2019 13:13:17 20.4 C 20 %
3667 25-05-2019 13:25:18 20.5 C 20 %
3668 25-05-2019 13:37:17 19.9 C 20 %
3669 25-05-2019 13:49:17 19.7 C 20 %
3670 25-05-2019 14:01:17 20.2 C 20 %
3671 25-05-2019 14:13:17 20.3 C 20 %
3672 25-05-2019 14:25:17 20.5 C 20 %
3673 25-05-2019 14:37:17 21 C 20 %
3674 25-05-2019 14:49:17 21.7 C 20 %
3675 25-05-2019 15:01:17 21.4 C 20 %
Sensor: Nr:Datum:Temp:Feuchte:
Aussen-T/F 3676 25-05-2019 15:13:17 22.2 C 20 %
3677 25-05-2019 15:25:17 22.5 C 20 %
3678 25-05-2019 15:37:17 22.3 C 20 %
3679 25-05-2019 15:49:17 22 C 20 %
3680 25-05-2019 16:01:17 22 C 20 %
3681 25-05-2019 16:13:18 22.9 C 20 %
3682 25-05-2019 16:25:17 23.4 C 20 %
3683 25-05-2019 16:37:17 23 C 20 %
3684 25-05-2019 16:49:17 22.2 C 20 %
3685 25-05-2019 17:01:17 23.6 C 20 %
3686 25-05-2019 17:13:17 22.5 C 20 %
3687 25-05-2019 17:25:17 22.3 C 20 %
3688 25-05-2019 17:37:17 22.5 C 20 %
3689 25-05-2019 17:49:17 21 C 20 %
3690 25-05-2019 18:01:17 20.8 C 20 %
3691 25-05-2019 18:13:18 20.8 C 20 %
3692 25-05-2019 18:25:17 20.3 C 20 %
3693 25-05-2019 18:37:17 20.4 C 20 %
3694 25-05-2019 18:49:17 20.2 C 20 %
3695 25-05-2019 19:01:17 19.6 C 20 %
3696 25-05-2019 19:13:17 19.4 C 20 %
3697 25-05-2019 19:25:17 19.3 C 20 %
3698 25-05-2019 19:37:17 19.3 C 20 %
3699 25-05-2019 19:49:17 19.3 C 20 %
3700 25-05-2019 20:01:17 19.1 C 20 %
Sensor: Nr:Datum:Temp:Feuchte:
Aussen-T/F 3701 25-05-2019 20:13:17 18.4 C 20 %
3702 25-05-2019 20:25:17 17.9 C 20 %
3703 25-05-2019 20:37:17 18 C 20 %
3704 25-05-2019 20:49:17 17.1 C 20 %
3705 25-05-2019 21:01:18 16.8 C 20 %
3706 25-05-2019 21:13:18 16.1 C 20 %
3707 25-05-2019 21:25:17 15.6 C 20 %
3708 25-05-2019 21:37:18 15.4 C 20 %
3709 25-05-2019 21:49:17 15.2 C 20 %
3710 25-05-2019 22:01:17 14.8 C 21 %
3711 25-05-2019 22:13:17 14.7 C 21 %
3712 25-05-2019 22:25:17 14.6 C 21 %
3713 25-05-2019 22:37:18 14.1 C 22 %
3714 25-05-2019 22:49:17 13.7 C 25 %
3715 25-05-2019 23:01:17 13.4 C 26 %
3716 25-05-2019 23:13:17 13.1 C 28 %
3717 25-05-2019 23:25:18 12.5 C 30 %
3718 25-05-2019 23:37:17 12.3 C 31 %
3719 25-05-2019 23:49:17 12.1 C 31 %
3720 26-05-2019 00:01:17 11.8 C 35 %
3721 26-05-2019 00:13:17 11.4 C 36 %
3722 26-05-2019 00:25:17 11.2 C 37 %
3723 26-05-2019 00:37:17 10.8 C 40 %
3724 26-05-2019 00:49:17 10.7 C 41 %
3725 26-05-2019 01:01:17 10.4 C 41 %
Sensor: Nr:Datum:Temp:Feuchte:
Aussen-T/F 3726 26-05-2019 01:13:17 10.4 C 41 %
3727 26-05-2019 01:25:18 10.2 C 43 %
3728 26-05-2019 01:37:17 10.1 C 43 %
3729 26-05-2019 01:49:17 10 C 44 %
3730 26-05-2019 02:01:17 10 C 44 %
3731 26-05-2019 02:13:17 9.9 C 46 %
3732 26-05-2019 02:25:18 9.8 C 46 %
3733 26-05-2019 02:37:17 9.7 C 46 %
3734 26-05-2019 02:49:17 9.4 C 46 %
3735 26-05-2019 03:01:17 9.4 C 47 %
3736 26-05-2019 03:13:18 9.2 C 47 %
3737 26-05-2019 03:25:17 9 C 47 %
3738 26-05-2019 03:37:17 8.9 C 48 %
3739 26-05-2019 03:49:17 8.8 C 49 %
3740 26-05-2019 04:01:18 8.7 C 49 %
3741 26-05-2019 04:13:18 8.7 C 49 %
3742 26-05-2019 04:25:17 8.6 C 49 %
3743 26-05-2019 04:37:17 8.5 C 49 %
3744 26-05-2019 04:49:17 8.4 C 48 %
3745 26-05-2019 05:01:17 8.4 C 49 %
3746 26-05-2019 05:13:17 8.3 C 49 %
3747 26-05-2019 05:25:17 8.4 C 50 %
3748 26-05-2019 05:37:18 8.5 C 50 %
3749 26-05-2019 05:49:17 8.8 C 51 %
3750 26-05-2019 06:01:17 9.3 C 49 %
Sensor: Nr:Datum:Temp:Feuchte:
Aussen-T/F 3751 26-05-2019 06:13:17 9.5 C 46 %
3752 26-05-2019 06:25:17 9.6 C 43 %
3753 26-05-2019 06:37:17 9.5 C 43 %
3754 26-05-2019 06:49:17 9.5 C 42 %
3755 26-05-2019 07:01:17 9.5 C 43 %
3756 26-05-2019 07:13:17 9.8 C 43 %
3757 26-05-2019 07:25:17 9.9 C 41 %
3758 26-05-2019 07:37:17 10.2 C 40 %
3759 26-05-2019 07:49:17 10.5 C 40 %
3760 26-05-2019 08:01:17 10.7 C 40 %
3761 26-05-2019 08:13:17 10.9 C 40 %
3762 26-05-2019 08:25:17 11.3 C 40 %
3763 26-05-2019 08:37:17 11.4 C 40 %
3764 26-05-2019 08:49:17 12.5 C 37 %
3765 26-05-2019 09:01:17 13.7 C 30 %
3766 26-05-2019 09:13:17 14.5 C 27 %
3767 26-05-2019 09:25:17 14.9 C 26 %
3768 26-05-2019 09:37:18 16.3 C 22 %
3769 26-05-2019 09:49:17 16.6 C 20 %
3770 26-05-2019 10:01:17 17.3 C 20 %
3771 26-05-2019 10:13:17 17.3 C 20 %
3772 26-05-2019 10:25:17 17.3 C 20 %
3773 26-05-2019 10:37:17 18.2 C 20 %
3774 26-05-2019 10:49:18 18.7 C 20 %
3775 26-05-2019 11:01:17 19.3 C 20 %
Sensor: Nr:Datum:Temp:Feuchte:
Aussen-T/F 3776 26-05-2019 11:13:17 21.2 C 20 %
3777 26-05-2019 11:25:17 20.8 C 20 %
3778 26-05-2019 11:37:18 21.8 C 20 %
3779 26-05-2019 11:49:17 22.1 C 20 %
3780 26-05-2019 12:01:17 21.2 C 20 %
3781 26-05-2019 12:13:17 19.6 C 20 %
3782 26-05-2019 12:25:17 19.5 C 20 %
3783 26-05-2019 12:37:17 19.9 C 20 %
3784 26-05-2019 12:49:17 19.7 C 20 %
3785 26-05-2019 13:01:18 20.1 C 20 %
3786 26-05-2019 13:13:18 20.5 C 20 %
3787 26-05-2019 13:25:17 20.9 C 20 %
3788 26-05-2019 13:37:17 20.9 C 20 %
3789 26-05-2019 13:49:17 21.4 C 20 %
3790 26-05-2019 14:01:17 21.8 C 20 %
3791 26-05-2019 14:13:17 21.9 C 20 %
3792 26-05-2019 14:25:17 22.7 C 20 %
3793 26-05-2019 14:37:17 23.1 C 20 %
3794 26-05-2019 14:49:17 24 C 20 %
3795 26-05-2019 15:01:17 24 C 20 %
3796 26-05-2019 15:13:17 24.6 C 20 %
3797 26-05-2019 15:25:17 25.4 C 20 %
3798 26-05-2019 15:37:17 23.9 C 20 %
3799 26-05-2019 15:49:17 23.9 C 20 %
3800 26-05-2019 16:01:17 22.5 C 20 %
Sensor: Nr:Datum:Temp:Feuchte:
Aussen-T/F 3801 26-05-2019 16:13:17 24.6 C 20 %
3802 26-05-2019 16:25:17 25.4 C 20 %
3803 26-05-2019 16:37:18 24.9 C 20 %
3804 26-05-2019 16:49:17 23.3 C 20 %
3805 26-05-2019 17:01:17 22.8 C 20 %
3806 26-05-2019 17:13:17 22.6 C 20 %
3807 26-05-2019 17:25:18 22.6 C 20 %
3808 26-05-2019 17:37:17 22.5 C 20 %
3809 26-05-2019 17:49:17 22.5 C 20 %
3810 26-05-2019 18:01:17 22.4 C 20 %
3811 26-05-2019 18:13:17 22.4 C 20 %
3812 26-05-2019 18:25:17 22 C 20 %
3813 26-05-2019 18:37:17 21.6 C 20 %
3814 26-05-2019 18:49:17 21.4 C 20 %
3815 26-05-2019 19:01:17 21.1 C 20 %
3816 26-05-2019 19:13:17 20.6 C 20 %
3817 26-05-2019 19:25:17 20 C 20 %
3818 26-05-2019 19:37:17 19.5 C 20 %
3819 26-05-2019 19:49:17 19.5 C 20 %
3820 26-05-2019 20:01:17 19.1 C 20 %
3821 26-05-2019 20:13:17 18.8 C 20 %
3822 26-05-2019 20:25:17 18.4 C 20 %
3823 26-05-2019 20:37:17 18.5 C 20 %
3824 26-05-2019 20:49:18 18.4 C 20 %
3825 26-05-2019 21:01:17 18.3 C 20 %
Sensor: Nr:Datum:Temp:Feuchte:
Aussen-T/F 3826 26-05-2019 21:13:17 18.3 C 20 %
3827 26-05-2019 21:25:18 18.1 C 20 %
3828 26-05-2019 21:37:17 18.5 C 20 %
3829 26-05-2019 21:49:17 18.7 C 20 %
3830 26-05-2019 22:01:17 18.7 C 20 %
3831 26-05-2019 22:13:17 18.2 C 20 %
3832 26-05-2019 22:25:17 17.3 C 20 %
3833 26-05-2019 22:37:17 17.1 C 20 %
3834 26-05-2019 22:49:17 17.1 C 20 %
3835 26-05-2019 23:01:17 17.4 C 20 %
3836 26-05-2019 23:13:17 17.2 C 20 %
3837 26-05-2019 23:25:17 17.2 C 20 %
3838 26-05-2019 23:37:17 16.7 C 20 %
3839 26-05-2019 23:49:17 16.3 C 20 %
3840 27-05-2019 00:01:18 16.5 C 20 %
3841 27-05-2019 00:13:18 16.4 C 20 %
3842 27-05-2019 00:25:17 16.4 C 21 %
3843 27-05-2019 00:37:17 16.4 C 21 %
3844 27-05-2019 00:49:17 16.1 C 22 %
3845 27-05-2019 01:01:18 16.1 C 22 %
3846 27-05-2019 01:13:18 15.4 C 26 %
3847 27-05-2019 01:25:17 15.4 C 27 %
3848 27-05-2019 01:37:17 15.2 C 28 %
3849 27-05-2019 01:49:17 14.5 C 30 %
3850 27-05-2019 02:01:17 14.1 C 32 %
Sensor: Nr:Datum:Temp:Feuchte:
Aussen-T/F 3851 27-05-2019 02:13:17 14 C 32 %
3852 27-05-2019 02:25:18 13.8 C 33 %
3853 27-05-2019 02:37:17 14.8 C 28 %
3854 27-05-2019 02:49:17 14.3 C 29 %
3855 27-05-2019 03:01:17 13.9 C 31 %
3856 27-05-2019 03:13:17 13.5 C 33 %
3857 27-05-2019 03:25:17 13.4 C 34 %
3858 27-05-2019 03:37:17 13.2 C 35 %
3859 27-05-2019 03:49:17 13.2 C 36 %
3860 27-05-2019 04:01:18 13.3 C 36 %
3861 27-05-2019 04:13:18 13.3 C 36 %
3862 27-05-2019 04:25:17 13.4 C 36 %
3863 27-05-2019 04:37:17 13.7 C 36 %
3864 27-05-2019 04:49:17 14.2 C 32 %
3865 27-05-2019 05:01:18 14.2 C 32 %
3866 27-05-2019 05:13:18 13.8 C 40 %
3867 27-05-2019 05:25:17 13.6 C 44 %
3868 27-05-2019 05:37:18 13.5 C 45 %
3869 27-05-2019 05:49:17 13.5 C 46 %
3870 27-05-2019 06:01:18 13.5 C 47 %
3871 27-05-2019 06:13:18 13.5 C 47 %
3872 27-05-2019 06:25:17 13.4 C 48 %
3873 27-05-2019 06:37:17 13.5 C 47 %
3874 27-05-2019 06:49:17 13.6 C 47 %
3875 27-05-2019 07:01:17 13.7 C 47 %
Sensor: Nr:Datum:Temp:Feuchte:
Aussen-T/F 3876 27-05-2019 07:13:17 13.8 C 46 %
3877 27-05-2019 07:25:18 14 C 44 %
3878 27-05-2019 07:37:18 14.3 C 41 %
3879 27-05-2019 07:49:17 14.5 C 39 %
3880 27-05-2019 08:01:17 14.4 C 39 %
3881 27-05-2019 08:13:17 14.5 C 40 %
3882 27-05-2019 08:25:17 14.6 C 39 %
3883 27-05-2019 08:37:18 14.7 C 40 %
3884 27-05-2019 08:49:17 14.9 C 41 %
3885 27-05-2019 09:01:17 14.9 C 41 %
3886 27-05-2019 09:13:17 15 C 40 %
3887 27-05-2019 09:25:17 15.3 C 40 %
3888 27-05-2019 09:37:17 15.4 C 39 %
3889 27-05-2019 09:49:17 15.2 C 38 %
3890 27-05-2019 10:01:17 15.5 C 40 %
3891 27-05-2019 10:13:17 15.5 C 40 %
3892 27-05-2019 10:25:17 15.6 C 39 %
3893 27-05-2019 10:37:17 15.6 C 39 %
3894 27-05-2019 10:49:17 15.9 C 38 %
3895 27-05-2019 11:01:18 15.7 C 40 %
3896 27-05-2019 11:13:18 15.5 C 41 %
3897 27-05-2019 11:25:17 14.6 C 40 %
3898 27-05-2019 11:37:17 14.2 C 43 %
3899 27-05-2019 11:49:17 14.5 C 45 %
3900 27-05-2019 12:01:17 14.7 C 45 %
Sensor: Nr:Datum:Temp:Feuchte:
Aussen-T/F 3901 27-05-2019 12:13:17 14.9 C 45 %
3902 27-05-2019 12:25:17 14.4 C 43 %
3903 27-05-2019 12:37:18 14.4 C 45 %
3904 27-05-2019 12:49:17 14.5 C 46 %
3905 27-05-2019 13:01:17 14 C 45 %
3906 27-05-2019 13:13:17 14 C 46 %
3907 27-05-2019 13:25:17 13.8 C 47 %
3908 27-05-2019 13:37:17 14.3 C 46 %
3909 27-05-2019 13:49:17 14.3 C 44 %
3910 27-05-2019 14:01:17 14.3 C 44 %
3911 27-05-2019 14:13:17 14.5 C 45 %
3912 27-05-2019 14:25:17 14 C 42 %
3913 27-05-2019 14:37:17 14.3 C 44 %
3914 27-05-2019 14:49:17 14.3 C 45 %
3915 27-05-2019 15:01:17 14.3 C 45 %
3916 27-05-2019 15:13:17 14.5 C 43 %
3917 27-05-2019 15:25:17 15.1 C 41 %
3918 27-05-2019 15:37:18 15.4 C 39 %
3919 27-05-2019 15:49:17 15.2 C 39 %
3920 27-05-2019 16:01:17 14.9 C 40 %
3921 27-05-2019 16:13:17 15 C 45 %
3922 27-05-2019 16:25:17 14.8 C 46 %
3923 27-05-2019 16:37:17 15.2 C 42 %
3924 27-05-2019 16:49:17 15.8 C 44 %
3925 27-05-2019 17:01:18 15.7 C 41 %
Sensor: Nr:Datum:Temp:Feuchte:
Aussen-T/F 3926 27-05-2019 17:13:18 15.9 C 40 %
3927 27-05-2019 17:25:17 15.9 C 40 %
3928 27-05-2019 17:37:18 16.6 C 36 %
3929 27-05-2019 17:49:17 16.8 C 33 %
3930 27-05-2019 18:01:17 16 C 35 %
3931 27-05-2019 18:13:17 15.9 C 40 %
3932 27-05-2019 18:25:18 16 C 42 %
3933 27-05-2019 18:37:17 16.2 C 43 %
3934 27-05-2019 18:49:17 16.3 C 42 %
3935 27-05-2019 19:01:17 16.3 C 42 %
3936 27-05-2019 19:13:17 16.3 C 42 %
3937 27-05-2019 19:25:18 17 C 36 %
3938 27-05-2019 19:37:17 17 C 36 %
3939 27-05-2019 19:49:17 16.5 C 38 %
3940 27-05-2019 20:01:18 15.7 C 42 %
3941 27-05-2019 20:13:18 15.4 C 44 %
3942 27-05-2019 20:25:17 14.8 C 46 %
3943 27-05-2019 20:37:17 14.5 C 48 %
3944 27-05-2019 20:49:17 14.4 C 49 %
3945 27-05-2019 21:01:18 14.4 C 49 %
3946 27-05-2019 21:13:18 14.2 C 49 %
3947 27-05-2019 21:25:17 14.2 C 49 %
3948 27-05-2019 21:37:17 13.8 C 50 %
3949 27-05-2019 21:49:18 13.8 C 50 %
3950 27-05-2019 22:01:18 13.4 C 50 %
Sensor: Nr:Datum:Temp:Feuchte:
Aussen-T/F 3951 27-05-2019 22:13:18 13.3 C 51 %
3952 27-05-2019 22:25:17 13.3 C 51 %
3953 27-05-2019 22:37:17 13.3 C 51 %
3954 27-05-2019 22:49:17 13.3 C 51 %
3955 27-05-2019 23:01:17 13.3 C 51 %
3956 27-05-2019 23:13:17 13.3 C 51 %
3957 27-05-2019 23:25:17 13.3 C 51 %
3958 27-05-2019 23:37:17 13.3 C 51 %
3959 27-05-2019 23:49:17 13.3 C 51 %
3960 28-05-2019 00:01:17 13.3 C 51 %
3961 28-05-2019 00:13:17 13.3 C 51 %
3962 28-05-2019 00:25:17 13.3 C 51 %
3963 28-05-2019 00:37:17 13.3 C 51 %
3964 28-05-2019 00:49:17 13.3 C 51 %
3965 28-05-2019 01:01:17 13.3 C 51 %
3966 28-05-2019 01:13:17 13.3 C 51 %
3967 28-05-2019 01:25:17 11.9 C 63 %
3968 28-05-2019 01:37:17 11.9 C 63 %
3969 28-05-2019 01:49:17 11.9 C 65 %
3970 28-05-2019 02:01:17 12 C 65 %
3971 28-05-2019 02:13:17 12.1 C 65 %
3972 28-05-2019 02:25:18 12.1 C 65 %
3973 28-05-2019 02:37:17 12.1 C 65 %
3974 28-05-2019 02:49:17 12.2 C 65 %
3975 28-05-2019 03:01:18 12.3 C 65 %
Sensor: Nr:Datum:Temp:Feuchte:
Aussen-T/F 3976 28-05-2019 03:13:18 12.3 C 65 %
3977 28-05-2019 03:25:17 12.3 C 65 %
3978 28-05-2019 03:37:18 12.3 C 65 %
3979 28-05-2019 03:49:17 12.3 C 65 %
3980 28-05-2019 04:01:17 12.3 C 65 %
3981 28-05-2019 04:13:17 12.3 C 65 %
3982 28-05-2019 04:25:17 12.3 C 65 %
3983 28-05-2019 04:37:17 11 C 64 %
3984 28-05-2019 04:49:17 11 C 64 %
3985 28-05-2019 05:01:18 11 C 64 %
3986 28-05-2019 05:13:18 11.4 C 66 %
3987 28-05-2019 05:25:18 11.5 C 66 %
3988 28-05-2019 05:37:17 11.5 C 66 %
3989 28-05-2019 05:49:17 11.5 C 66 %
3990 28-05-2019 06:01:18 11.6 C 66 %
3991 28-05-2019 06:13:18 11.8 C 66 %
3992 28-05-2019 06:25:17 11.8 C 66 %
3993 28-05-2019 06:37:17 11.9 C 65 %
3994 28-05-2019 06:49:17 12 C 65 %
3995 28-05-2019 07:01:17 12 C 65 %
3996 28-05-2019 07:13:17 12.1 C 65 %
3997 28-05-2019 07:25:17 12.1 C 65 %
3998 28-05-2019 07:37:17 12.2 C 63 %
3999 28-05-2019 07:49:17 12.4 C 62 %
4000 28-05-2019 08:01:17 12.4 C 61 %
Sensor: Nr:Datum:Temp:Feuchte:
Aussen-T/F 4001 28-05-2019 08:13:17 12.6 C 58 %
4002 28-05-2019 08:25:17 13.1 C 55 %
4003 28-05-2019 08:37:18 13.1 C 49 %
4004 28-05-2019 08:49:17 13.2 C 46 %
4005 28-05-2019 09:01:17 13.5 C 39 %
4006 28-05-2019 09:13:17 13.7 C 36 %
4007 28-05-2019 09:25:17 14.4 C 33 %
4008 28-05-2019 09:37:17 15.1 C 30 %
4009 28-05-2019 09:49:17 15.3 C 30 %
4010 28-05-2019 10:01:18 15.2 C 29 %
4011 28-05-2019 10:13:18 15.8 C 28 %
4012 28-05-2019 10:25:17 15.6 C 27 %
4013 28-05-2019 10:37:18 16.6 C 26 %
4014 28-05-2019 10:49:17 16 C 26 %
4015 28-05-2019 11:01:17 15.6 C 26 %
4016 28-05-2019 11:13:17 15.9 C 26 %
4017 28-05-2019 11:25:17 17.8 C 23 %
4018 28-05-2019 11:37:18 18.3 C 20 %
4019 28-05-2019 11:49:17 18.3 C 20 %
4020 28-05-2019 12:01:17 17.8 C 20 %
4021 28-05-2019 12:13:17 17.1 C 20 %
4022 28-05-2019 12:25:17 16.6 C 20 %
4023 28-05-2019 12:37:17 16.4 C 20 %
4024 28-05-2019 12:49:17 16.8 C 20 %
4025 28-05-2019 13:01:17 17.9 C 20 %
Sensor: Nr:Datum:Temp:Feuchte:
Aussen-T/F 4026 28-05-2019 13:13:17 17.9 C 20 %
4027 28-05-2019 13:25:17 18.1 C 20 %
4028 28-05-2019 13:37:17 18.6 C 20 %
4029 28-05-2019 13:49:17 19 C 20 %
4030 28-05-2019 14:01:18 19.2 C 20 %
4031 28-05-2019 14:13:18 19.3 C 20 %
4032 28-05-2019 14:25:17 19.5 C 20 %
4033 28-05-2019 14:37:17 12.6 C 26 %
4034 28-05-2019 14:49:17 12.7 C 32 %
4035 28-05-2019 15:01:18 13.2 C 29 %
4036 28-05-2019 15:13:18 13.9 C 28 %
4037 28-05-2019 15:25:17 14 C 27 %
4038 28-05-2019 15:37:18 15.5 C 25 %
4039 28-05-2019 15:49:17 15.9 C 25 %
4040 28-05-2019 16:01:17 15.5 C 23 %
4041 28-05-2019 16:13:17 15.9 C 22 %
4042 28-05-2019 16:25:18 17.4 C 20 %
4043 28-05-2019 16:37:17 17.2 C 20 %
4044 28-05-2019 16:49:17 16.7 C 20 %
4045 28-05-2019 17:01:17 16.3 C 20 %
4046 28-05-2019 17:13:17 16.5 C 20 %
4047 28-05-2019 17:25:17 16.8 C 20 %
4048 28-05-2019 17:37:17 18.2 C 20 %
4049 28-05-2019 17:49:17 19.3 C 20 %
4050 28-05-2019 18:01:18 18.7 C 20 %
Sensor: Nr:Datum:Temp:Feuchte:
Aussen-T/F 4051 28-05-2019 18:13:18 17.4 C 20 %
4052 28-05-2019 18:25:17 16.1 C 20 %
4053 28-05-2019 18:37:18 16.6 C 20 %
4054 28-05-2019 18:49:17 16.2 C 20 %
4055 28-05-2019 19:01:17 17.5 C 20 %
4056 28-05-2019 19:13:17 19.6 C 20 %
4057 28-05-2019 19:25:17 18.1 C 20 %
4058 28-05-2019 19:37:17 16.1 C 20 %
4059 28-05-2019 19:49:17 15 C 20 %
4060 28-05-2019 20:01:17 14.7 C 20 %
4061 28-05-2019 20:13:17 14.4 C 20 %
4062 28-05-2019 20:25:17 14.2 C 20 %
4063 28-05-2019 20:37:18 13.9 C 20 %
4064 28-05-2019 20:49:17 13.8 C 21 %
4065 28-05-2019 21:01:17 13.6 C 23 %
4066 28-05-2019 21:13:17 13.2 C 24 %
4067 28-05-2019 21:25:18 12.8 C 26 %
4068 28-05-2019 21:37:17 12.7 C 31 %
4069 28-05-2019 21:49:17 12.5 C 32 %
4070 28-05-2019 22:01:17 12.3 C 33 %
4071 28-05-2019 22:13:17 12 C 35 %
4072 28-05-2019 22:25:17 11.8 C 36 %
4073 28-05-2019 22:37:17 11.9 C 37 %
4074 28-05-2019 22:49:17 12 C 36 %
4075 28-05-2019 23:01:18 12 C 36 %
Sensor: Nr:Datum:Temp:Feuchte:
Aussen-T/F 4076 28-05-2019 23:13:18 12 C 36 %
4077 28-05-2019 23:25:17 12 C 36 %
4078 28-05-2019 23:37:17 11.5 C 36 %
4079 28-05-2019 23:49:17 11.5 C 35 %
4080 29-05-2019 00:01:17 11.5 C 35 %
4081 29-05-2019 00:13:17 11.7 C 31 %
4082 29-05-2019 00:25:17 11.4 C 32 %
4083 29-05-2019 00:37:18 11.4 C 32 %
4084 29-05-2019 00:49:17 11.4 C 32 %
4085 29-05-2019 01:01:17 11.5 C 34 %
4086 29-05-2019 01:13:17 11.5 C 33 %
4087 29-05-2019 01:25:17 11.6 C 33 %
4088 29-05-2019 01:37:17 11.7 C 34 %
4089 29-05-2019 01:49:17 11.9 C 33 %
4090 29-05-2019 02:01:17 11.8 C 33 %
4091 29-05-2019 02:13:17 11.8 C 33 %
4092 29-05-2019 02:25:17 11.8 C 33 %
4093 29-05-2019 02:37:17 11.8 C 32 %
4094 29-05-2019 02:49:17 11.8 C 32 %
4095 29-05-2019 03:01:17 11.6 C 33 %
4096 29-05-2019 03:13:17 11.4 C 34 %
4097 29-05-2019 03:25:17 11.2 C 35 %
4098 29-05-2019 03:37:17 11.4 C 35 %
4099 29-05-2019 03:49:17 11.2 C 34 %
4100 29-05-2019 04:01:17 11.4 C 33 %
Sensor: Nr:Datum:Temp:Feuchte:
Aussen-T/F 4101 29-05-2019 04:13:17 11.3 C 34 %
4102 29-05-2019 04:25:17 11.2 C 34 %
4103 29-05-2019 04:37:17 11 C 35 %
4104 29-05-2019 04:49:17 11 C 35 %
4105 29-05-2019 05:01:17 11 C 35 %
4106 29-05-2019 05:13:17 11 C 34 %
4107 29-05-2019 05:25:17 11 C 34 %
4108 29-05-2019 05:37:17 10.8 C 35 %
4109 29-05-2019 05:49:17 10.8 C 34 %
4110 29-05-2019 06:01:18 10.8 C 35 %
4111 29-05-2019 06:13:18 10.8 C 35 %
4112 29-05-2019 06:25:17 10.8 C 34 %
4113 29-05-2019 06:37:17 11 C 33 %
4114 29-05-2019 06:49:18 10.9 C 34 %
4115 29-05-2019 07:01:17 10.8 C 33 %
4116 29-05-2019 07:13:17 10.6 C 34 %
4117 29-05-2019 07:25:17 10.5 C 35 %
4118 29-05-2019 07:37:18 10.5 C 35 %
4119 29-05-2019 07:49:17 10.6 C 33 %
4120 29-05-2019 08:01:17 10.8 C 34 %
4121 29-05-2019 08:13:17 10.9 C 32 %
4122 29-05-2019 08:25:17 11.2 C 31 %
4123 29-05-2019 08:37:17 11.2 C 30 %
4124 29-05-2019 08:49:17 11.7 C 27 %
4125 29-05-2019 09:01:18 12.1 C 26 %
Sensor: Nr:Datum:Temp:Feuchte:
Aussen-T/F 4126 29-05-2019 09:13:18 12.7 C 25 %
4127 29-05-2019 09:25:17 13.2 C 20 %
4128 29-05-2019 09:37:18 14.4 C 20 %
4129 29-05-2019 09:49:17 14.3 C 20 %
4130 29-05-2019 10:01:17 14.1 C 20 %
4131 29-05-2019 10:13:17 14.4 C 20 %
4132 29-05-2019 10:25:17 14.8 C 20 %
4133 29-05-2019 10:37:17 15.3 C 20 %
4134 29-05-2019 10:49:17 15.8 C 20 %
4135 29-05-2019 11:01:17 16.7 C 20 %
4136 29-05-2019 11:13:17 17.6 C 20 %
4137 29-05-2019 11:25:17 17.5 C 20 %
4138 29-05-2019 11:37:17 19.3 C 20 %
4139 29-05-2019 11:49:17 19.1 C 20 %
4140 29-05-2019 12:01:18 17.9 C 20 %
4141 29-05-2019 12:13:18 17 C 20 %
4142 29-05-2019 12:25:17 16.8 C 20 %
4143 29-05-2019 12:37:17 17 C 20 %
4144 29-05-2019 12:49:18 16.4 C 20 %
4145 29-05-2019 13:01:17 16.5 C 20 %
4146 29-05-2019 13:13:17 17 C 20 %
4147 29-05-2019 13:25:17 17.5 C 20 %
4148 29-05-2019 13:37:18 17 C 20 %
4149 29-05-2019 13:49:17 17.1 C 20 %
4150 29-05-2019 14:01:17 17.3 C 20 %
Sensor: Nr:Datum:Temp:Feuchte:
Aussen-T/F 4151 29-05-2019 14:13:17 18.3 C 20 %
4152 29-05-2019 14:25:17 18.7 C 20 %
4153 29-05-2019 14:37:18 19.7 C 20 %
4154 29-05-2019 14:49:17 20.4 C 20 %
4155 29-05-2019 15:01:17 20.5 C 20 %
4156 29-05-2019 15:13:17 19.8 C 20 %
4157 29-05-2019 15:25:18 20.1 C 20 %
4158 29-05-2019 15:37:17 20.1 C 20 %
4159 29-05-2019 15:49:17 20.6 C 20 %
4160 29-05-2019 16:01:18 20.8 C 20 %
4161 29-05-2019 16:13:18 20.5 C 20 %
4162 29-05-2019 16:25:17 20.8 C 20 %
4163 29-05-2019 16:37:17 21.5 C 20 %
4164 29-05-2019 16:49:17 22.3 C 20 %
4165 29-05-2019 17:01:17 22.6 C 20 %
4166 29-05-2019 17:13:17 23 C 20 %
4167 29-05-2019 17:25:17 23 C 20 %
4168 29-05-2019 17:37:17 24.3 C 20 %
4169 29-05-2019 17:49:17 23.2 C 20 %
4170 29-05-2019 18:01:17 23.1 C 20 %
4171 29-05-2019 18:13:17 21.7 C 20 %
4172 29-05-2019 18:25:17 22.5 C 20 %
4173 29-05-2019 18:37:17 22.6 C 20 %
4174 29-05-2019 18:49:17 22.6 C 20 %
4175 29-05-2019 19:01:18 23.3 C 20 %
Sensor: Nr:Datum:Temp:Feuchte:
Aussen-T/F 4176 29-05-2019 19:13:18 23.6 C 20 %
4177 29-05-2019 19:25:17 21.8 C 20 %
4178 29-05-2019 19:37:17 21.3 C 20 %
4179 29-05-2019 19:49:17 20.4 C 20 %
4180 29-05-2019 20:01:17 19.1 C 20 %
4181 29-05-2019 20:13:17 18.3 C 20 %
4182 29-05-2019 20:25:17 17.2 C 20 %
4183 29-05-2019 20:37:18 17.4 C 20 %
4184 29-05-2019 20:49:17 16.9 C 20 %
4185 29-05-2019 21:01:17 15.9 C 20 %
4186 29-05-2019 21:13:17 15 C 20 %
4187 29-05-2019 21:25:17 14 C 20 %
4188 29-05-2019 21:37:17 13.4 C 23 %
4189 29-05-2019 21:49:17 13.1 C 25 %
4190 29-05-2019 22:01:17 13.1 C 27 %
4191 29-05-2019 22:13:17 12.9 C 28 %
4192 29-05-2019 22:25:17 12.8 C 28 %
4193 29-05-2019 22:37:17 12.7 C 28 %
4194 29-05-2019 22:49:17 12.8 C 29 %
4195 29-05-2019 23:01:17 12.7 C 29 %
4196 29-05-2019 23:13:17 12.8 C 29 %
4197 29-05-2019 23:25:17 12.8 C 30 %
4198 29-05-2019 23:37:17 12.4 C 30 %
4199 29-05-2019 23:49:17 12.2 C 30 %
4200 30-05-2019 00:01:17 12.2 C 30 %
Sensor: Nr:Datum:Temp:Feuchte:
Aussen-T/F 4201 30-05-2019 00:13:17 12.2 C 30 %
4202 30-05-2019 00:25:17 11.4 C 32 %
4203 30-05-2019 00:37:17 11.4 C 33 %
4204 30-05-2019 00:49:18 11.4 C 33 %
4205 30-05-2019 01:01:17 11.4 C 33 %
4206 30-05-2019 01:13:17 10.9 C 36 %
4207 30-05-2019 01:25:17 10.7 C 37 %
4208 30-05-2019 01:37:17 10.7 C 38 %
4209 30-05-2019 01:49:17 10.7 C 37 %
4210 30-05-2019 02:01:17 10.6 C 37 %
4211 30-05-2019 02:13:17 10.6 C 37 %
4212 30-05-2019 02:25:17 10.4 C 38 %
4213 30-05-2019 02:37:17 10.2 C 39 %
4214 30-05-2019 02:49:17 10.1 C 40 %
4215 30-05-2019 03:01:17 9.7 C 40 %
4216 30-05-2019 03:13:17 9.5 C 42 %
4217 30-05-2019 03:25:17 9.5 C 43 %
4218 30-05-2019 03:37:17 9.2 C 43 %
4219 30-05-2019 03:49:17 9.3 C 45 %
4220 30-05-2019 04:01:18 9.3 C 45 %
4221 30-05-2019 04:13:18 9.3 C 45 %
4222 30-05-2019 04:25:17 9.3 C 45 %
4223 30-05-2019 04:37:17 9.3 C 45 %
4224 30-05-2019 04:49:17 9 C 45 %
4225 30-05-2019 05:01:18 9 C 45 %
Sensor: Nr:Datum:Temp:Feuchte:
Aussen-T/F 4226 30-05-2019 05:13:18 8.7 C 46 %
4227 30-05-2019 05:25:17 8.6 C 46 %
4228 30-05-2019 05:37:17 8.8 C 47 %
4229 30-05-2019 05:49:17 8.8 C 47 %
4230 30-05-2019 06:01:17 8.8 C 47 %
4231 30-05-2019 06:13:17 8.8 C 47 %
4232 30-05-2019 06:25:17 10 C 45 %
4233 30-05-2019 06:37:17 10.1 C 43 %
4234 30-05-2019 06:49:17 10.4 C 40 %
4235 30-05-2019 07:01:17 10.9 C 39 %
4236 30-05-2019 07:13:17 11.3 C 36 %
4237 30-05-2019 07:25:17 11.6 C 35 %
4238 30-05-2019 07:37:17 12 C 34 %
4239 30-05-2019 07:49:17 12.1 C 31 %
4240 30-05-2019 08:01:17 12.3 C 30 %
4241 30-05-2019 08:13:17 12.4 C 30 %
4242 30-05-2019 08:25:17 12.8 C 28 %
4243 30-05-2019 08:37:17 12.7 C 28 %
4244 30-05-2019 08:49:17 13.5 C 27 %
4245 30-05-2019 09:01:18 14.2 C 25 %
4246 30-05-2019 09:13:18 14.7 C 25 %
4247 30-05-2019 09:25:17 15.1 C 24 %
4248 30-05-2019 09:37:17 15.6 C 23 %
4249 30-05-2019 09:49:17 15.9 C 23 %
4250 30-05-2019 10:01:18 16.1 C 22 %
Sensor: Nr:Datum:Temp:Feuchte:
Aussen-T/F 4251 30-05-2019 10:13:18 16.8 C 20 %
4252 30-05-2019 10:25:17 17 C 20 %
4253 30-05-2019 10:37:17 17.6 C 20 %
4254 30-05-2019 10:49:17 18.2 C 20 %
4255 30-05-2019 11:01:18 19.1 C 20 %
4256 30-05-2019 11:13:18 18.9 C 20 %
4257 30-05-2019 11:25:17 19 C 20 %
4258 30-05-2019 11:37:17 19.1 C 20 %
4259 30-05-2019 11:49:18 19 C 20 %
4260 30-05-2019 12:01:17 18.7 C 20 %
4261 30-05-2019 12:13:17 18.7 C 20 %
4262 30-05-2019 12:25:18 18.5 C 20 %
4263 30-05-2019 12:37:17 18.6 C 20 %
4264 30-05-2019 12:49:17 18.8 C 20 %
4265 30-05-2019 13:01:17 18.8 C 20 %
4266 30-05-2019 13:13:17 18.4 C 20 %
4267 30-05-2019 13:25:17 18.2 C 20 %
4268 30-05-2019 13:37:17 18.4 C 20 %
4269 30-05-2019 13:49:17 18.5 C 20 %
4270 30-05-2019 14:01:17 19.2 C 20 %
4271 30-05-2019 14:13:17 20 C 20 %
4272 30-05-2019 14:25:17 20.3 C 20 %
4273 30-05-2019 14:37:17 20.5 C 20 %
4274 30-05-2019 14:49:17 20.7 C 20 %
4275 30-05-2019 15:01:18 20.4 C 20 %
Sensor: Nr:Datum:Temp:Feuchte:
Aussen-T/F 4276 30-05-2019 15:13:18 20.6 C 20 %
4277 30-05-2019 15:25:17 22.2 C 20 %
4278 30-05-2019 15:37:17 22.3 C 20 %
4279 30-05-2019 15:49:17 22.8 C 20 %
4280 30-05-2019 16:01:17 22.4 C 20 %
4281 30-05-2019 16:13:17 23.2 C 20 %
4282 30-05-2019 16:25:17 22.8 C 20 %
4283 30-05-2019 16:37:17 22.4 C 20 %
4284 30-05-2019 16:49:17 22 C 20 %
4285 30-05-2019 17:01:17 22 C 20 %
4286 30-05-2019 17:13:17 22.4 C 20 %
4287 30-05-2019 17:25:17 22.4 C 20 %
4288 30-05-2019 17:37:17 22.9 C 20 %
4289 30-05-2019 17:49:17 22.1 C 20 %
4290 30-05-2019 18:01:17 21.6 C 20 %
4291 30-05-2019 18:13:17 21.2 C 20 %
4292 30-05-2019 18:25:17 21 C 20 %
4293 30-05-2019 18:37:17 22.6 C 20 %
4294 30-05-2019 18:49:17 21.7 C 20 %
4295 30-05-2019 19:01:17 21.7 C 20 %
4296 30-05-2019 19:13:17 20.4 C 20 %
4297 30-05-2019 19:25:17 20.1 C 20 %
4298 30-05-2019 19:37:17 19.7 C 20 %
4299 30-05-2019 19:49:17 19.6 C 20 %
4300 30-05-2019 20:01:18 19.7 C 20 %
Sensor: Nr:Datum:Temp:Feuchte:
Aussen-T/F 4301 30-05-2019 20:13:18 19.4 C 20 %
4302 30-05-2019 20:25:17 18.9 C 23 %
4303 30-05-2019 20:37:17 18.7 C 22 %
4304 30-05-2019 20:49:17 18.4 C 25 %
4305 30-05-2019 21:01:17 18.6 C 25 %
4306 30-05-2019 21:13:17 17.8 C 27 %
4307 30-05-2019 21:25:17 17.3 C 29 %
4308 30-05-2019 21:37:17 17.2 C 29 %
4309 30-05-2019 21:49:17 16.9 C 30 %
4310 30-05-2019 22:01:17 16.6 C 31 %
4311 30-05-2019 22:13:17 16.5 C 32 %
4312 30-05-2019 22:25:18 16.3 C 32 %
4313 30-05-2019 22:37:17 16.2 C 33 %
4314 30-05-2019 22:49:17 16.2 C 35 %
4315 30-05-2019 23:01:17 16 C 35 %
4316 30-05-2019 23:13:17 15.8 C 36 %
4317 30-05-2019 23:25:17 15.4 C 37 %
4318 30-05-2019 23:37:17 15.3 C 38 %
4319 30-05-2019 23:49:17 15.2 C 39 %
4320 31-05-2019 00:01:18 15.4 C 39 %
4321 31-05-2019 00:13:18 15.4 C 39 %
4322 31-05-2019 00:25:17 15.6 C 38 %
4323 31-05-2019 00:37:17 15.6 C 38 %
4324 31-05-2019 00:49:18 15.9 C 38 %
4325 31-05-2019 01:01:17 15.5 C 39 %
Sensor: Nr:Datum:Temp:Feuchte:
Aussen-T/F 4326 31-05-2019 01:13:17 15.5 C 39 %
4327 31-05-2019 01:25:17 15.6 C 38 %
4328 31-05-2019 01:37:18 15.9 C 38 %
4329 31-05-2019 01:49:17 15.8 C 38 %
4330 31-05-2019 02:01:17 15.8 C 38 %
4331 31-05-2019 02:13:17 15.8 C 38 %
4332 31-05-2019 02:25:17 15.2 C 38 %
4333 31-05-2019 02:37:18 14.8 C 41 %
4334 31-05-2019 02:49:17 14.5 C 41 %
4335 31-05-2019 03:01:17 14.1 C 42 %
4336 31-05-2019 03:13:17 13.7 C 44 %
4337 31-05-2019 03:25:17 13.6 C 46 %
4338 31-05-2019 03:37:17 14.1 C 46 %
4339 31-05-2019 03:49:17 14 C 45 %
4340 31-05-2019 04:01:18 13.6 C 45 %
4341 31-05-2019 04:13:18 13.4 C 45 %
4342 31-05-2019 04:25:17 12.8 C 46 %
4343 31-05-2019 04:37:17 12.8 C 48 %
4344 31-05-2019 04:49:17 12.4 C 48 %
4345 31-05-2019 05:01:17 12.3 C 48 %
4346 31-05-2019 05:13:17 12.1 C 48 %
4347 31-05-2019 05:25:17 12.2 C 49 %
4348 31-05-2019 05:37:18 12.2 C 49 %
4349 31-05-2019 05:49:17 12.2 C 49 %
4350 31-05-2019 06:01:17 12.2 C 49 %
Sensor: Nr:Datum:Temp:Feuchte:
Aussen-T/F 4351 31-05-2019 06:13:17 12.3 C 50 %
4352 31-05-2019 06:25:17 12.3 C 50 %
4353 31-05-2019 06:37:18 12.4 C 50 %
4354 31-05-2019 06:49:17 12.5 C 50 %
4355 31-05-2019 07:01:17 12.5 C 50 %
4356 31-05-2019 07:13:17 12.8 C 50 %
4357 31-05-2019 07:25:17 12.8 C 49 %
4358 31-05-2019 07:37:17 12.9 C 49 %
4359 31-05-2019 07:49:17 13.2 C 49 %
4360 31-05-2019 08:01:17 13.4 C 49 %
4361 31-05-2019 08:13:18 13.8 C 49 %
4362 31-05-2019 08:25:17 14.2 C 47 %
4363 31-05-2019 08:37:17 14.9 C 45 %
4364 31-05-2019 08:49:17 15.4 C 37 %
4365 31-05-2019 09:01:17 15.8 C 34 %
4366 31-05-2019 09:13:17 17 C 28 %
4367 31-05-2019 09:25:17 17.5 C 27 %
4368 31-05-2019 09:37:18 18.1 C 26 %
4369 31-05-2019 09:49:17 19.4 C 23 %
4370 31-05-2019 10:01:17 19.4 C 22 %
4371 31-05-2019 10:13:17 19.2 C 21 %
4372 31-05-2019 10:25:17 19.2 C 21 %
4373 31-05-2019 10:37:17 20.6 C 20 %
4374 31-05-2019 10:49:18 20.8 C 20 %
4375 31-05-2019 11:01:17 21.2 C 20 %
Sensor: Nr:Datum:Temp:Feuchte:
Aussen-T/F 4376 31-05-2019 11:13:17 21.2 C 20 %
4377 31-05-2019 11:25:17 22.2 C 20 %
4378 31-05-2019 11:37:17 24.1 C 20 %
4379 31-05-2019 11:49:17 24.3 C 20 %
4380 31-05-2019 12:01:17 23.2 C 20 %
4381 31-05-2019 12:13:17 22.9 C 20 %
4382 31-05-2019 12:25:17 22.3 C 20 %
4383 31-05-2019 12:37:17 22.5 C 20 %
4384 31-05-2019 12:49:17 22.9 C 20 %
4385 31-05-2019 13:01:17 23 C 20 %
4386 31-05-2019 13:13:17 23.4 C 20 %
4387 31-05-2019 13:25:17 23.5 C 20 %
4388 31-05-2019 13:37:17 24.3 C 20 %
4389 31-05-2019 13:49:17 24.8 C 20 %
4390 31-05-2019 14:01:18 24.6 C 20 %
4391 31-05-2019 14:13:18 24.7 C 20 %
4392 31-05-2019 14:25:17 24.7 C 20 %
4393 31-05-2019 14:37:17 25.5 C 20 %
4394 31-05-2019 14:49:17 25.8 C 20 %
4395 31-05-2019 15:01:17 25.8 C 20 %
4396 31-05-2019 15:13:17 25.8 C 20 %
4397 31-05-2019 15:25:18 26.2 C 20 %
4398 31-05-2019 15:37:17 25.8 C 20 %
4399 31-05-2019 15:49:17 27.2 C 20 %
4400 31-05-2019 16:01:17 27.2 C 20 %
Sensor: Nr:Datum:Temp:Feuchte:
Aussen-T/F 4401 31-05-2019 16:13:17 27.2 C 20 %
4402 31-05-2019 16:25:18 27.6 C 20 %
4403 31-05-2019 16:37:17 27.2 C 20 %
4404 31-05-2019 16:49:17 27.6 C 20 %
4405 31-05-2019 17:01:17 28.3 C 20 %
4406 31-05-2019 17:13:17 28 C 20 %
4407 31-05-2019 17:25:17 28.6 C 20 %
4408 31-05-2019 17:37:18 28.7 C 20 %
4409 31-05-2019 17:49:18 28.1 C 20 %
4410 31-05-2019 18:01:17 28.6 C 20 %
4411 31-05-2019 18:13:17 28.1 C 20 %
4412 31-05-2019 18:25:17 28.3 C 20 %
4413 31-05-2019 18:37:18 27.4 C 20 %
4414 31-05-2019 18:49:17 28.1 C 20 %
4415 31-05-2019 19:01:17 27.7 C 20 %
4416 31-05-2019 19:13:17 27.2 C 20 %
4417 31-05-2019 19:25:17 25.3 C 20 %
4418 31-05-2019 19:37:17 24.9 C 20 %
4419 31-05-2019 19:49:17 24.1 C 20 %
4420 31-05-2019 20:01:17 23 C 20 %
4421 31-05-2019 20:13:17 23.6 C 20 %
4422 31-05-2019 20:25:17 23.6 C 20 %
4423 31-05-2019 20:37:17 23 C 20 %
4424 31-05-2019 20:49:18 21.8 C 20 %
4425 31-05-2019 21:01:17 20.4 C 20 %
Sensor: Nr:Datum:Temp:Feuchte:
Aussen-T/F 4426 31-05-2019 21:13:17 19.3 C 21 %
4427 31-05-2019 21:25:17 18.9 C 22 %
4428 31-05-2019 21:37:17 18.3 C 23 %
4429 31-05-2019 21:49:17 17.9 C 25 %
4430 31-05-2019 22:01:17 17.8 C 25 %
4431 31-05-2019 22:13:17 17.6 C 25 %
4432 31-05-2019 22:25:18 17.1 C 26 %
4433 31-05-2019 22:37:17 16.6 C 28 %
4434 31-05-2019 22:49:17 16.3 C 29 %
4435 31-05-2019 23:01:17 16.1 C 30 %
4436 31-05-2019 23:13:17 15.6 C 31 %
4437 31-05-2019 23:25:17 15.3 C 32 %
4438 31-05-2019 23:37:17 15.1 C 34 %
4439 31-05-2019 23:49:17 14.9 C 36 %
4440 01-06-2019 00:01:17 14.7 C 36 %
4441 01-06-2019 00:13:17 14.5 C 37 %
4442 01-06-2019 00:25:17 14.2 C 37 %
4443 01-06-2019 00:37:18 14.1 C 38 %
4444 01-06-2019 00:49:17 13.9 C 40 %
4445 01-06-2019 01:01:17 13.8 C 41 %
4446 01-06-2019 01:13:17 13.7 C 42 %
4447 01-06-2019 01:25:17 13.7 C 43 %
4448 01-06-2019 01:37:17 13.5 C 43 %
4449 01-06-2019 01:49:17 13.4 C 43 %
4450 01-06-2019 02:01:17 13.4 C 43 %
Sensor: Nr:Datum:Temp:Feuchte:
Aussen-T/F 4451 01-06-2019 02:13:17 13.2 C 44 %
4452 01-06-2019 02:25:17 13.2 C 45 %
4453 01-06-2019 02:37:17 13 C 45 %
4454 01-06-2019 02:49:17 12.9 C 46 %
4455 01-06-2019 03:01:18 12.8 C 46 %
4456 01-06-2019 03:13:18 12.7 C 46 %
4457 01-06-2019 03:25:17 12.6 C 46 %
4458 01-06-2019 03:37:17 12.4 C 46 %
4459 01-06-2019 03:49:17 12.2 C 46 %
4460 01-06-2019 04:01:18 12.1 C 47 %
4461 01-06-2019 04:13:18 12 C 47 %
4462 01-06-2019 04:25:17 12 C 47 %
4463 01-06-2019 04:37:17 11.8 C 48 %
4464 01-06-2019 04:49:17 11.6 C 48 %
4465 01-06-2019 05:01:18 11.6 C 48 %
4466 01-06-2019 05:13:18 11.5 C 49 %
4467 01-06-2019 05:25:17 11.5 C 49 %
4468 01-06-2019 05:37:17 11.3 C 48 %
4469 01-06-2019 05:49:17 11.4 C 49 %
4470 01-06-2019 06:01:17 11.8 C 50 %
4471 01-06-2019 06:13:17 11.6 C 48 %
4472 01-06-2019 06:25:17 11.5 C 48 %
4473 01-06-2019 06:37:17 11.6 C 49 %
4474 01-06-2019 06:49:17 11.9 C 49 %
4475 01-06-2019 07:01:17 12.3 C 49 %
Sensor: Nr:Datum:Temp:Feuchte:
Aussen-T/F 4476 01-06-2019 07:13:17 12.5 C 48 %
4477 01-06-2019 07:25:17 12.8 C 47 %
4478 01-06-2019 07:37:17 13.3 C 45 %
4479 01-06-2019 07:49:17 13.4 C 45 %
4480 01-06-2019 08:01:17 13.7 C 43 %
4481 01-06-2019 08:13:18 14 C 39 %
4482 01-06-2019 08:25:17 14.5 C 37 %
4483 01-06-2019 08:37:17 14.8 C 37 %
4484 01-06-2019 08:49:17 15.2 C 34 %
4485 01-06-2019 09:01:17 15.8 C 34 %
4486 01-06-2019 09:13:17 16.3 C 31 %
4487 01-06-2019 09:25:17 17 C 30 %
4488 01-06-2019 09:37:17 17 C 30 %
4489 01-06-2019 09:49:17 18.3 C 27 %
4490 01-06-2019 10:01:18 18.2 C 27 %
4491 01-06-2019 10:13:18 18.8 C 25 %
4492 01-06-2019 10:25:17 19.3 C 25 %
4493 01-06-2019 10:37:17 19.3 C 25 %
4494 01-06-2019 10:49:17 20.8 C 23 %
4495 01-06-2019 11:01:18 22.1 C 20 %
4496 01-06-2019 11:13:18 23.2 C 20 %
4497 01-06-2019 11:25:17 23.1 C 20 %
4498 01-06-2019 11:37:18 24 C 20 %
4499 01-06-2019 11:49:17 26.1 C 20 %
4500 01-06-2019 12:01:17 24.4 C 20 %
Sensor: Nr:Datum:Temp:Feuchte:
Aussen-T/F 4501 01-06-2019 12:13:17 24.5 C 20 %
4502 01-06-2019 12:25:18 24.5 C 20 %
4503 01-06-2019 12:37:17 23.7 C 20 %
4504 01-06-2019 12:49:17 23.7 C 20 %
4505 01-06-2019 13:01:17 24.4 C 20 %
4506 01-06-2019 13:13:17 24.3 C 20 %
4507 01-06-2019 13:25:17 24.7 C 20 %
4508 01-06-2019 13:37:17 24.7 C 20 %
4509 01-06-2019 13:49:17 24.7 C 20 %
4510 01-06-2019 14:01:17 25.9 C 20 %
4511 01-06-2019 14:13:17 26.4 C 20 %
4512 01-06-2019 14:25:17 26.4 C 20 %
4513 01-06-2019 14:37:17 27.5 C 20 %
4514 01-06-2019 14:49:17 28.3 C 20 %
4515 01-06-2019 15:01:17 28.4 C 20 %
4516 01-06-2019 15:13:17 28.4 C 20 %
4517 01-06-2019 15:25:17 29.2 C 20 %
4518 01-06-2019 15:37:17 28.8 C 20 %
4519 01-06-2019 15:49:17 29.2 C 20 %
4520 01-06-2019 16:01:18 29.5 C 20 %
4521 01-06-2019 16:13:18 29.8 C 20 %
4522 01-06-2019 16:25:17 30.3 C 20 %
4523 01-06-2019 16:37:17 30.4 C 20 %
4524 01-06-2019 16:49:17 30.6 C 20 %
4525 01-06-2019 17:01:17 30.8 C 20 %
Sensor: Nr:Datum:Temp:Feuchte:
Aussen-T/F 4526 01-06-2019 17:13:17 30.7 C 20 %
4527 01-06-2019 17:25:17 30.9 C 20 %
4528 01-06-2019 17:37:17 30.7 C 20 %
4529 01-06-2019 17:49:17 31.1 C 20 %
4530 01-06-2019 18:01:17 31.4 C 20 %
4531 01-06-2019 18:13:17 31.1 C 20 %
4532 01-06-2019 18:25:18 31 C 20 %
4533 01-06-2019 18:37:17 30.6 C 20 %
4534 01-06-2019 18:49:17 30.1 C 20 %
4535 01-06-2019 19:01:17 29.6 C 20 %
4536 01-06-2019 19:13:17 30.3 C 20 %
4537 01-06-2019 19:25:18 30.9 C 20 %
4538 01-06-2019 19:37:17 29.4 C 20 %
4539 01-06-2019 19:49:17 27.1 C 20 %
4540 01-06-2019 20:01:17 26.4 C 20 %
4541 01-06-2019 20:13:17 25.7 C 20 %
4542 01-06-2019 20:25:18 24.8 C 20 %
4543 01-06-2019 20:37:17 24.1 C 20 %
4544 01-06-2019 20:49:17 23.2 C 20 %
4545 01-06-2019 21:01:17 22.9 C 20 %
4546 01-06-2019 21:13:17 22.1 C 20 %
4547 01-06-2019 21:25:17 21.5 C 20 %
4548 01-06-2019 21:37:17 20.8 C 20 %
4549 01-06-2019 21:49:17 20.4 C 21 %
4550 01-06-2019 22:01:17 20 C 22 %
Sensor: Nr:Datum:Temp:Feuchte:
Aussen-T/F 4551 01-06-2019 22:13:17 19.6 C 24 %
4552 01-06-2019 22:25:17 19.3 C 25 %
4553 01-06-2019 22:37:17 19.1 C 25 %
4554 01-06-2019 22:49:17 18.8 C 26 %
4555 01-06-2019 23:01:17 18.8 C 26 %
4556 01-06-2019 23:13:17 18.8 C 26 %
4557 01-06-2019 23:25:17 17.9 C 29 %
4558 01-06-2019 23:37:18 17.6 C 30 %
4559 01-06-2019 23:49:17 17.2 C 31 %
4560 02-06-2019 00:01:17 16.8 C 34 %
4561 02-06-2019 00:13:17 16.6 C 34 %
4562 02-06-2019 00:25:17 16.4 C 35 %
4563 02-06-2019 00:37:17 16.2 C 35 %
4564 02-06-2019 00:49:17 15.9 C 37 %
4565 02-06-2019 01:01:17 15.6 C 37 %
4566 02-06-2019 01:13:18 15.4 C 38 %
4567 02-06-2019 01:25:17 15.4 C 38 %
4568 02-06-2019 01:37:17 15 C 40 %
4569 02-06-2019 01:49:17 14.9 C 41 %
4570 02-06-2019 02:01:17 14.9 C 41 %
4571 02-06-2019 02:13:17 14.8 C 41 %
4572 02-06-2019 02:25:17 14.5 C 42 %
4573 02-06-2019 02:37:17 14.4 C 43 %
4574 02-06-2019 02:49:17 14.3 C 44 %
4575 02-06-2019 03:01:17 14.3 C 44 %
Sensor: Nr:Datum:Temp:Feuchte:
Aussen-T/F 4576 02-06-2019 03:13:17 14.1 C 44 %
4577 02-06-2019 03:25:18 14 C 45 %
4578 02-06-2019 03:37:17 13.9 C 45 %
4579 02-06-2019 03:49:17 13.9 C 45 %
4580 02-06-2019 04:01:18 13.6 C 46 %
4581 02-06-2019 04:13:18 13.5 C 46 %
4582 02-06-2019 04:25:17 13.6 C 47 %
4583 02-06-2019 04:37:17 13.6 C 47 %
4584 02-06-2019 04:49:17 13.2 C 46 %
4585 02-06-2019 05:01:18 13.2 C 47 %
4586 02-06-2019 05:13:18 13 C 47 %
4587 02-06-2019 05:25:17 13 C 47 %
4588 02-06-2019 05:37:17 13 C 47 %
4589 02-06-2019 05:49:17 12.9 C 48 %
4590 02-06-2019 06:01:18 13 C 47 %
4591 02-06-2019 06:13:18 13 C 47 %
4592 02-06-2019 06:25:17 13.2 C 48 %
4593 02-06-2019 06:37:17 13.4 C 48 %
4594 02-06-2019 06:49:17 13.6 C 48 %
4595 02-06-2019 07:01:18 13.5 C 47 %
4596 02-06-2019 07:13:18 13.7 C 47 %
4597 02-06-2019 07:25:17 13.8 C 47 %
4598 02-06-2019 07:37:17 13.8 C 47 %
4599 02-06-2019 07:49:17 14.1 C 47 %
4600 02-06-2019 08:01:18 14.4 C 47 %
Sensor: Nr:Datum:Temp:Feuchte:
Aussen-T/F 4601 02-06-2019 08:13:18 14.8 C 46 %
4602 02-06-2019 08:25:17 15.1 C 45 %
4603 02-06-2019 08:37:17 15.5 C 44 %
4604 02-06-2019 08:49:17 15.5 C 44 %
4605 02-06-2019 09:01:17 15.5 C 44 %
4606 02-06-2019 09:13:17 17.2 C 36 %
4607 02-06-2019 09:25:17 17.8 C 35 %
4608 02-06-2019 09:37:17 18.6 C 34 %
4609 02-06-2019 09:49:17 20 C 29 %
4610 02-06-2019 10:01:17 19.7 C 29 %
4611 02-06-2019 10:13:17 19.7 C 29 %
4612 02-06-2019 10:25:17 19.7 C 29 %
4613 02-06-2019 10:37:17 19.7 C 29 %
4614 02-06-2019 10:49:17 23.2 C 23 %
4615 02-06-2019 11:01:17 23.9 C 22 %
4616 02-06-2019 11:13:17 23.9 C 22 %
4617 02-06-2019 11:25:17 23.9 C 22 %
4618 02-06-2019 11:37:18 26.6 C 20 %
4619 02-06-2019 11:49:17 29 C 20 %
4620 02-06-2019 12:01:18 29 C 20 %
4621 02-06-2019 12:13:18 29 C 20 %
4622 02-06-2019 12:25:17 29 C 20 %
4623 02-06-2019 12:37:17 27.8 C 20 %
4624 02-06-2019 12:49:17 27.9 C 20 %
4625 02-06-2019 13:01:17 27.9 C 20 %
Sensor: Nr:Datum:Temp:Feuchte:
Aussen-T/F 4626 02-06-2019 13:13:17 27.8 C 20 %
4627 02-06-2019 13:25:17 27.8 C 20 %
4628 02-06-2019 13:37:18 27.8 C 20 %
4629 02-06-2019 13:49:18 28.7 C 20 %
4630 02-06-2019 14:01:17 29.2 C 20 %
4631 02-06-2019 14:13:17 29.1 C 20 %
4632 02-06-2019 14:25:17 30.6 C 20 %
4633 02-06-2019 14:37:17 30.6 C 20 %
4634 02-06-2019 14:49:17 30.8 C 20 %
4635 02-06-2019 15:01:17 31.4 C 20 %
4636 02-06-2019 15:13:17 31.9 C 20 %
4637 02-06-2019 15:25:17 32.3 C 20 %
4638 02-06-2019 15:37:18 32.3 C 20 %
4639 02-06-2019 15:49:17 32.5 C 20 %
4640 02-06-2019 16:01:17 32.7 C 20 %
4641 02-06-2019 16:13:17 33.1 C 20 %
4642 02-06-2019 16:25:18 33.2 C 20 %
4643 02-06-2019 16:37:17 33 C 20 %
4644 02-06-2019 16:49:17 33.1 C 20 %
4645 02-06-2019 17:01:17 33.1 C 20 %
4646 02-06-2019 17:13:17 33 C 20 %
4647 02-06-2019 17:25:17 33.5 C 20 %
4648 02-06-2019 17:37:17 33 C 20 %
4649 02-06-2019 17:49:17 34 C 20 %
4650 02-06-2019 18:01:17 33.1 C 20 %
Sensor: Nr:Datum:Temp:Feuchte:
Aussen-T/F 4651 02-06-2019 18:13:17 33.6 C 20 %
4652 02-06-2019 18:25:17 33.1 C